<?xml version="1.0" encoding="UTF-8" standalone="no" ?>
<gpx xmlns="http://www.topografix.com/GPX/1/1" xmlns:xsi="http://www.w3.org/2001/XMLSchema-instance" xsi:schemaLocation="http://www.topografix.com/GPX/1/1 http://www.topografix.com/GPX/1/1/gpx.xsd" version="1.1" creator="VisuGPX - https://www.visugpx.com">
  <metadata>
    <name>Mandailles Saint Julien - Puy Chavaroche</name>
    <desc><![CDATA[Rando au départ de Mandailles St Julien en montant au Puy Chavaroche ]]></desc>
  </metadata>
  <trk>
    <name><![CDATA[09-AOU-13 04:47:24 PM]]></name>
    <trkseg>
      <trkpt lat="45.06775" lon="2.6569">
        <ele>867.25</ele>
        <time>2013-08-09T08:46:37Z</time>
      </trkpt>
      <trkpt lat="45.06776" lon="2.65691">
        <ele>867.73</ele>
        <time>2013-08-09T08:46:38Z</time>
      </trkpt>
      <trkpt lat="45.06776" lon="2.65691">
        <ele>867.25</ele>
        <time>2013-08-09T08:46:39Z</time>
      </trkpt>
      <trkpt lat="45.06776" lon="2.65696">
        <ele>869.17</ele>
        <time>2013-08-09T08:47:10Z</time>
      </trkpt>
      <trkpt lat="45.06778" lon="2.65699">
        <ele>870.61</ele>
        <time>2013-08-09T08:47:48Z</time>
      </trkpt>
      <trkpt lat="45.06777" lon="2.657">
        <ele>871.57</ele>
        <time>2013-08-09T08:48:14Z</time>
      </trkpt>
      <trkpt lat="45.06776" lon="2.65699">
        <ele>872.53</ele>
        <time>2013-08-09T08:48:50Z</time>
      </trkpt>
      <trkpt lat="45.06776" lon="2.657">
        <ele>873.01</ele>
        <time>2013-08-09T08:48:58Z</time>
      </trkpt>
      <trkpt lat="45.06776" lon="2.657">
        <ele>873.98</ele>
        <time>2013-08-09T08:49:25Z</time>
      </trkpt>
      <trkpt lat="45.06776" lon="2.657">
        <ele>874.94</ele>
        <time>2013-08-09T08:49:51Z</time>
      </trkpt>
      <trkpt lat="45.06778" lon="2.65698">
        <ele>876.38</ele>
        <time>2013-08-09T08:50:23Z</time>
      </trkpt>
      <trkpt lat="45.06778" lon="2.65698">
        <ele>877.82</ele>
        <time>2013-08-09T08:50:55Z</time>
      </trkpt>
      <trkpt lat="45.06777" lon="2.65698">
        <ele>878.78</ele>
        <time>2013-08-09T08:51:23Z</time>
      </trkpt>
      <trkpt lat="45.06777" lon="2.65697">
        <ele>879.26</ele>
        <time>2013-08-09T08:51:48Z</time>
      </trkpt>
      <trkpt lat="45.06777" lon="2.65697">
        <ele>880.22</ele>
        <time>2013-08-09T08:52:17Z</time>
      </trkpt>
      <trkpt lat="45.06778" lon="2.65698">
        <ele>880.22</ele>
        <time>2013-08-09T08:52:33Z</time>
      </trkpt>
      <trkpt lat="45.06778" lon="2.65698">
        <ele>881.19</ele>
        <time>2013-08-09T08:52:48Z</time>
      </trkpt>
      <trkpt lat="45.06779" lon="2.65698">
        <ele>881.19</ele>
        <time>2013-08-09T08:52:57Z</time>
      </trkpt>
      <trkpt lat="45.0678" lon="2.65702">
        <ele>881.67</ele>
        <time>2013-08-09T08:53:06Z</time>
      </trkpt>
      <trkpt lat="45.06782" lon="2.65704">
        <ele>881.67</ele>
        <time>2013-08-09T08:53:08Z</time>
      </trkpt>
      <trkpt lat="45.06786" lon="2.65717">
        <ele>881.67</ele>
        <time>2013-08-09T08:53:23Z</time>
      </trkpt>
      <trkpt lat="45.0679" lon="2.65728">
        <ele>881.19</ele>
        <time>2013-08-09T08:53:35Z</time>
      </trkpt>
      <trkpt lat="45.06791" lon="2.65735">
        <ele>881.67</ele>
        <time>2013-08-09T08:53:49Z</time>
      </trkpt>
      <trkpt lat="45.06792" lon="2.65738">
        <ele>881.19</ele>
        <time>2013-08-09T08:53:51Z</time>
      </trkpt>
      <trkpt lat="45.06795" lon="2.65737">
        <ele>880.22</ele>
        <time>2013-08-09T08:53:55Z</time>
      </trkpt>
      <trkpt lat="45.06812" lon="2.65736">
        <ele>878.3</ele>
        <time>2013-08-09T08:54:10Z</time>
      </trkpt>
      <trkpt lat="45.06816" lon="2.65731">
        <ele>877.34</ele>
        <time>2013-08-09T08:54:15Z</time>
      </trkpt>
      <trkpt lat="45.06824" lon="2.65718">
        <ele>876.86</ele>
        <time>2013-08-09T08:54:26Z</time>
      </trkpt>
      <trkpt lat="45.06829" lon="2.65708">
        <ele>876.38</ele>
        <time>2013-08-09T08:54:33Z</time>
      </trkpt>
      <trkpt lat="45.06839" lon="2.65687">
        <ele>875.9</ele>
        <time>2013-08-09T08:54:49Z</time>
      </trkpt>
      <trkpt lat="45.06845" lon="2.65688">
        <ele>875.9</ele>
        <time>2013-08-09T08:55:02Z</time>
      </trkpt>
      <trkpt lat="45.06853" lon="2.65702">
        <ele>876.86</ele>
        <time>2013-08-09T08:55:16Z</time>
      </trkpt>
      <trkpt lat="45.06858" lon="2.65708">
        <ele>876.86</ele>
        <time>2013-08-09T08:55:23Z</time>
      </trkpt>
      <trkpt lat="45.06863" lon="2.65713">
        <ele>876.86</ele>
        <time>2013-08-09T08:55:28Z</time>
      </trkpt>
      <trkpt lat="45.06878" lon="2.65723">
        <ele>876.38</ele>
        <time>2013-08-09T08:55:42Z</time>
      </trkpt>
      <trkpt lat="45.06883" lon="2.65726">
        <ele>876.38</ele>
        <time>2013-08-09T08:55:48Z</time>
      </trkpt>
      <trkpt lat="45.06889" lon="2.65739">
        <ele>877.34</ele>
        <time>2013-08-09T08:56:02Z</time>
      </trkpt>
      <trkpt lat="45.06888" lon="2.65738">
        <ele>877.82</ele>
        <time>2013-08-09T08:56:19Z</time>
      </trkpt>
      <trkpt lat="45.06888" lon="2.65738">
        <ele>878.3</ele>
        <time>2013-08-09T08:56:35Z</time>
      </trkpt>
      <trkpt lat="45.06894" lon="2.65743">
        <ele>878.78</ele>
        <time>2013-08-09T08:56:53Z</time>
      </trkpt>
      <trkpt lat="45.06913" lon="2.65761">
        <ele>879.26</ele>
        <time>2013-08-09T08:57:12Z</time>
      </trkpt>
      <trkpt lat="45.06927" lon="2.65773">
        <ele>879.74</ele>
        <time>2013-08-09T08:57:25Z</time>
      </trkpt>
      <trkpt lat="45.06929" lon="2.65775">
        <ele>879.74</ele>
        <time>2013-08-09T08:57:26Z</time>
      </trkpt>
      <trkpt lat="45.0695" lon="2.65778">
        <ele>880.22</ele>
        <time>2013-08-09T08:57:40Z</time>
      </trkpt>
      <trkpt lat="45.06964" lon="2.65771">
        <ele>880.71</ele>
        <time>2013-08-09T08:57:55Z</time>
      </trkpt>
      <trkpt lat="45.06975" lon="2.65759">
        <ele>880.71</ele>
        <time>2013-08-09T08:58:08Z</time>
      </trkpt>
      <trkpt lat="45.06988" lon="2.65743">
        <ele>881.67</ele>
        <time>2013-08-09T08:58:22Z</time>
      </trkpt>
      <trkpt lat="45.06999" lon="2.65729">
        <ele>881.67</ele>
        <time>2013-08-09T08:58:35Z</time>
      </trkpt>
      <trkpt lat="45.06996" lon="2.65726">
        <ele>882.15</ele>
        <time>2013-08-09T08:58:46Z</time>
      </trkpt>
      <trkpt lat="45.06995" lon="2.65714">
        <ele>881.67</ele>
        <time>2013-08-09T08:58:58Z</time>
      </trkpt>
      <trkpt lat="45.06996" lon="2.65711">
        <ele>881.67</ele>
        <time>2013-08-09T08:59:01Z</time>
      </trkpt>
      <trkpt lat="45.07005" lon="2.65691">
        <ele>883.11</ele>
        <time>2013-08-09T08:59:17Z</time>
      </trkpt>
      <trkpt lat="45.07016" lon="2.65682">
        <ele>884.55</ele>
        <time>2013-08-09T08:59:30Z</time>
      </trkpt>
      <trkpt lat="45.07025" lon="2.65673">
        <ele>885.51</ele>
        <time>2013-08-09T08:59:42Z</time>
      </trkpt>
      <trkpt lat="45.07036" lon="2.65664">
        <ele>887.43</ele>
        <time>2013-08-09T08:59:57Z</time>
      </trkpt>
      <trkpt lat="45.0704" lon="2.65661">
        <ele>889.36</ele>
        <time>2013-08-09T09:00:08Z</time>
      </trkpt>
      <trkpt lat="45.07046" lon="2.65644">
        <ele>891.28</ele>
        <time>2013-08-09T09:00:18Z</time>
      </trkpt>
      <trkpt lat="45.0704" lon="2.6563">
        <ele>892.24</ele>
        <time>2013-08-09T09:00:28Z</time>
      </trkpt>
      <trkpt lat="45.07027" lon="2.65621">
        <ele>895.12</ele>
        <time>2013-08-09T09:00:45Z</time>
      </trkpt>
      <trkpt lat="45.0702" lon="2.65609">
        <ele>898.01</ele>
        <time>2013-08-09T09:00:59Z</time>
      </trkpt>
      <trkpt lat="45.07009" lon="2.65596">
        <ele>899.93</ele>
        <time>2013-08-09T09:01:12Z</time>
      </trkpt>
      <trkpt lat="45.07002" lon="2.65583">
        <ele>901.85</ele>
        <time>2013-08-09T09:01:27Z</time>
      </trkpt>
      <trkpt lat="45.07008" lon="2.65572">
        <ele>904.26</ele>
        <time>2013-08-09T09:01:40Z</time>
      </trkpt>
      <trkpt lat="45.0702" lon="2.65562">
        <ele>907.62</ele>
        <time>2013-08-09T09:01:58Z</time>
      </trkpt>
      <trkpt lat="45.07028" lon="2.65565">
        <ele>908.58</ele>
        <time>2013-08-09T09:02:12Z</time>
      </trkpt>
      <trkpt lat="45.07031" lon="2.65568">
        <ele>909.54</ele>
        <time>2013-08-09T09:02:23Z</time>
      </trkpt>
      <trkpt lat="45.07043" lon="2.65579">
        <ele>910.51</ele>
        <time>2013-08-09T09:02:40Z</time>
      </trkpt>
      <trkpt lat="45.07055" lon="2.65587">
        <ele>910.99</ele>
        <time>2013-08-09T09:02:57Z</time>
      </trkpt>
      <trkpt lat="45.07058" lon="2.6559">
        <ele>911.95</ele>
        <time>2013-08-09T09:03:15Z</time>
      </trkpt>
      <trkpt lat="45.07069" lon="2.65602">
        <ele>913.39</ele>
        <time>2013-08-09T09:03:34Z</time>
      </trkpt>
      <trkpt lat="45.07087" lon="2.65616">
        <ele>914.83</ele>
        <time>2013-08-09T09:03:48Z</time>
      </trkpt>
      <trkpt lat="45.07087" lon="2.65626">
        <ele>916.75</ele>
        <time>2013-08-09T09:04:01Z</time>
      </trkpt>
      <trkpt lat="45.07089" lon="2.65641">
        <ele>919.16</ele>
        <time>2013-08-09T09:04:16Z</time>
      </trkpt>
      <trkpt lat="45.07091" lon="2.65647">
        <ele>920.6</ele>
        <time>2013-08-09T09:04:33Z</time>
      </trkpt>
      <trkpt lat="45.07097" lon="2.65655">
        <ele>923</ele>
        <time>2013-08-09T09:04:53Z</time>
      </trkpt>
      <trkpt lat="45.07102" lon="2.65661">
        <ele>924.93</ele>
        <time>2013-08-09T09:05:08Z</time>
      </trkpt>
      <trkpt lat="45.07109" lon="2.65663">
        <ele>927.81</ele>
        <time>2013-08-09T09:05:26Z</time>
      </trkpt>
      <trkpt lat="45.07122" lon="2.65665">
        <ele>930.21</ele>
        <time>2013-08-09T09:05:44Z</time>
      </trkpt>
      <trkpt lat="45.07136" lon="2.65664">
        <ele>932.14</ele>
        <time>2013-08-09T09:06:00Z</time>
      </trkpt>
      <trkpt lat="45.07154" lon="2.65671">
        <ele>934.54</ele>
        <time>2013-08-09T09:06:18Z</time>
      </trkpt>
      <trkpt lat="45.07164" lon="2.65677">
        <ele>937.42</ele>
        <time>2013-08-09T09:06:33Z</time>
      </trkpt>
      <trkpt lat="45.07174" lon="2.65687">
        <ele>940.31</ele>
        <time>2013-08-09T09:06:49Z</time>
      </trkpt>
      <trkpt lat="45.0719" lon="2.65694">
        <ele>943.67</ele>
        <time>2013-08-09T09:07:04Z</time>
      </trkpt>
      <trkpt lat="45.07195" lon="2.65699">
        <ele>945.11</ele>
        <time>2013-08-09T09:07:13Z</time>
      </trkpt>
      <trkpt lat="45.07206" lon="2.65701">
        <ele>947.52</ele>
        <time>2013-08-09T09:07:25Z</time>
      </trkpt>
      <trkpt lat="45.07215" lon="2.65702">
        <ele>948.48</ele>
        <time>2013-08-09T09:07:40Z</time>
      </trkpt>
      <trkpt lat="45.07233" lon="2.65697">
        <ele>950.88</ele>
        <time>2013-08-09T09:07:58Z</time>
      </trkpt>
      <trkpt lat="45.07245" lon="2.65693">
        <ele>952.8</ele>
        <time>2013-08-09T09:08:09Z</time>
      </trkpt>
      <trkpt lat="45.07249" lon="2.6569">
        <ele>952.8</ele>
        <time>2013-08-09T09:08:14Z</time>
      </trkpt>
      <trkpt lat="45.07259" lon="2.65683">
        <ele>954.73</ele>
        <time>2013-08-09T09:08:27Z</time>
      </trkpt>
      <trkpt lat="45.07268" lon="2.65682">
        <ele>956.65</ele>
        <time>2013-08-09T09:08:42Z</time>
      </trkpt>
      <trkpt lat="45.0727" lon="2.65682">
        <ele>956.65</ele>
        <time>2013-08-09T09:09:08Z</time>
      </trkpt>
      <trkpt lat="45.07272" lon="2.6568">
        <ele>957.13</ele>
        <time>2013-08-09T09:09:31Z</time>
      </trkpt>
      <trkpt lat="45.07274" lon="2.65678">
        <ele>957.61</ele>
        <time>2013-08-09T09:09:58Z</time>
      </trkpt>
      <trkpt lat="45.07276" lon="2.65674">
        <ele>958.57</ele>
        <time>2013-08-09T09:10:27Z</time>
      </trkpt>
      <trkpt lat="45.07279" lon="2.65673">
        <ele>959.53</ele>
        <time>2013-08-09T09:10:38Z</time>
      </trkpt>
      <trkpt lat="45.07284" lon="2.6567">
        <ele>961.94</ele>
        <time>2013-08-09T09:10:50Z</time>
      </trkpt>
      <trkpt lat="45.07287" lon="2.65667">
        <ele>964.82</ele>
        <time>2013-08-09T09:11:06Z</time>
      </trkpt>
      <trkpt lat="45.07295" lon="2.65662">
        <ele>966.74</ele>
        <time>2013-08-09T09:11:22Z</time>
      </trkpt>
      <trkpt lat="45.07298" lon="2.65656">
        <ele>969.63</ele>
        <time>2013-08-09T09:11:38Z</time>
      </trkpt>
      <trkpt lat="45.07302" lon="2.6565">
        <ele>971.07</ele>
        <time>2013-08-09T09:12:01Z</time>
      </trkpt>
      <trkpt lat="45.07302" lon="2.65648">
        <ele>971.07</ele>
        <time>2013-08-09T09:12:03Z</time>
      </trkpt>
      <trkpt lat="45.07292" lon="2.65625">
        <ele>973.47</ele>
        <time>2013-08-09T09:12:17Z</time>
      </trkpt>
      <trkpt lat="45.07283" lon="2.65614">
        <ele>975.39</ele>
        <time>2013-08-09T09:12:31Z</time>
      </trkpt>
      <trkpt lat="45.07278" lon="2.65607">
        <ele>977.32</ele>
        <time>2013-08-09T09:12:44Z</time>
      </trkpt>
      <trkpt lat="45.07272" lon="2.65596">
        <ele>979.24</ele>
        <time>2013-08-09T09:12:57Z</time>
      </trkpt>
      <trkpt lat="45.07267" lon="2.65592">
        <ele>982.12</ele>
        <time>2013-08-09T09:13:09Z</time>
      </trkpt>
      <trkpt lat="45.07259" lon="2.65587">
        <ele>984.53</ele>
        <time>2013-08-09T09:13:20Z</time>
      </trkpt>
      <trkpt lat="45.07251" lon="2.65578">
        <ele>986.45</ele>
        <time>2013-08-09T09:13:33Z</time>
      </trkpt>
      <trkpt lat="45.07251" lon="2.65575">
        <ele>989.33</ele>
        <time>2013-08-09T09:13:45Z</time>
      </trkpt>
      <trkpt lat="45.07252" lon="2.65572">
        <ele>992.7</ele>
        <time>2013-08-09T09:14:00Z</time>
      </trkpt>
      <trkpt lat="45.07254" lon="2.65573">
        <ele>992.7</ele>
        <time>2013-08-09T09:14:09Z</time>
      </trkpt>
      <trkpt lat="45.07255" lon="2.65571">
        <ele>995.1</ele>
        <time>2013-08-09T09:14:25Z</time>
      </trkpt>
      <trkpt lat="45.07255" lon="2.65568">
        <ele>994.62</ele>
        <time>2013-08-09T09:14:38Z</time>
      </trkpt>
      <trkpt lat="45.07255" lon="2.65568">
        <ele>994.14</ele>
        <time>2013-08-09T09:14:40Z</time>
      </trkpt>
      <trkpt lat="45.07256" lon="2.65567">
        <ele>994.62</ele>
        <time>2013-08-09T09:14:52Z</time>
      </trkpt>
      <trkpt lat="45.07259" lon="2.65565">
        <ele>994.62</ele>
        <time>2013-08-09T09:15:10Z</time>
      </trkpt>
      <trkpt lat="45.07261" lon="2.65564">
        <ele>996.06</ele>
        <time>2013-08-09T09:15:29Z</time>
      </trkpt>
      <trkpt lat="45.07262" lon="2.65564">
        <ele>999.91</ele>
        <time>2013-08-09T09:15:35Z</time>
      </trkpt>
      <trkpt lat="45.07264" lon="2.65561">
        <ele>998.95</ele>
        <time>2013-08-09T09:15:40Z</time>
      </trkpt>
      <trkpt lat="45.07274" lon="2.65551">
        <ele>1001.83</ele>
        <time>2013-08-09T09:15:55Z</time>
      </trkpt>
      <trkpt lat="45.07277" lon="2.6555">
        <ele>1002.79</ele>
        <time>2013-08-09T09:15:57Z</time>
      </trkpt>
      <trkpt lat="45.07283" lon="2.65544">
        <ele>1005.68</ele>
        <time>2013-08-09T09:16:09Z</time>
      </trkpt>
      <trkpt lat="45.07287" lon="2.65536">
        <ele>1008.56</ele>
        <time>2013-08-09T09:16:20Z</time>
      </trkpt>
      <trkpt lat="45.07297" lon="2.65522">
        <ele>1011.44</ele>
        <time>2013-08-09T09:16:35Z</time>
      </trkpt>
      <trkpt lat="45.07306" lon="2.65516">
        <ele>1014.33</ele>
        <time>2013-08-09T09:16:48Z</time>
      </trkpt>
      <trkpt lat="45.07312" lon="2.65513">
        <ele>1017.69</ele>
        <time>2013-08-09T09:17:02Z</time>
      </trkpt>
      <trkpt lat="45.07312" lon="2.65496">
        <ele>1020.58</ele>
        <time>2013-08-09T09:17:15Z</time>
      </trkpt>
      <trkpt lat="45.07309" lon="2.65488">
        <ele>1022.02</ele>
        <time>2013-08-09T09:17:27Z</time>
      </trkpt>
      <trkpt lat="45.07302" lon="2.65475">
        <ele>1023.94</ele>
        <time>2013-08-09T09:17:40Z</time>
      </trkpt>
      <trkpt lat="45.07296" lon="2.65461">
        <ele>1025.38</ele>
        <time>2013-08-09T09:17:53Z</time>
      </trkpt>
      <trkpt lat="45.0729" lon="2.65443">
        <ele>1025.86</ele>
        <time>2013-08-09T09:18:08Z</time>
      </trkpt>
      <trkpt lat="45.07292" lon="2.65427">
        <ele>1027.31</ele>
        <time>2013-08-09T09:18:22Z</time>
      </trkpt>
      <trkpt lat="45.07293" lon="2.6542">
        <ele>1028.27</ele>
        <time>2013-08-09T09:18:26Z</time>
      </trkpt>
      <trkpt lat="45.07291" lon="2.65403">
        <ele>1031.15</ele>
        <time>2013-08-09T09:18:40Z</time>
      </trkpt>
      <trkpt lat="45.07289" lon="2.65387">
        <ele>1033.07</ele>
        <time>2013-08-09T09:18:53Z</time>
      </trkpt>
      <trkpt lat="45.07287" lon="2.65378">
        <ele>1035.48</ele>
        <time>2013-08-09T09:19:05Z</time>
      </trkpt>
      <trkpt lat="45.07284" lon="2.65368">
        <ele>1037.88</ele>
        <time>2013-08-09T09:19:18Z</time>
      </trkpt>
      <trkpt lat="45.0728" lon="2.65359">
        <ele>1040.76</ele>
        <time>2013-08-09T09:19:32Z</time>
      </trkpt>
      <trkpt lat="45.07272" lon="2.65351">
        <ele>1043.65</ele>
        <time>2013-08-09T09:19:45Z</time>
      </trkpt>
      <trkpt lat="45.07266" lon="2.65343">
        <ele>1046.53</ele>
        <time>2013-08-09T09:19:58Z</time>
      </trkpt>
      <trkpt lat="45.07264" lon="2.65337">
        <ele>1048.45</ele>
        <time>2013-08-09T09:20:12Z</time>
      </trkpt>
      <trkpt lat="45.07259" lon="2.65328">
        <ele>1050.86</ele>
        <time>2013-08-09T09:20:23Z</time>
      </trkpt>
      <trkpt lat="45.07256" lon="2.65319">
        <ele>1053.26</ele>
        <time>2013-08-09T09:20:37Z</time>
      </trkpt>
      <trkpt lat="45.07256" lon="2.6531">
        <ele>1056.15</ele>
        <time>2013-08-09T09:20:51Z</time>
      </trkpt>
      <trkpt lat="45.07257" lon="2.65304">
        <ele>1057.59</ele>
        <time>2013-08-09T09:20:58Z</time>
      </trkpt>
      <trkpt lat="45.07258" lon="2.65301">
        <ele>1057.59</ele>
        <time>2013-08-09T09:21:00Z</time>
      </trkpt>
      <trkpt lat="45.07261" lon="2.65295">
        <ele>1058.55</ele>
        <time>2013-08-09T09:21:06Z</time>
      </trkpt>
      <trkpt lat="45.07267" lon="2.65282">
        <ele>1059.99</ele>
        <time>2013-08-09T09:21:19Z</time>
      </trkpt>
      <trkpt lat="45.07277" lon="2.65271">
        <ele>1060.95</ele>
        <time>2013-08-09T09:21:32Z</time>
      </trkpt>
      <trkpt lat="45.07278" lon="2.65269">
        <ele>1060.95</ele>
        <time>2013-08-09T09:21:34Z</time>
      </trkpt>
      <trkpt lat="45.07288" lon="2.65259">
        <ele>1062.39</ele>
        <time>2013-08-09T09:21:47Z</time>
      </trkpt>
      <trkpt lat="45.07292" lon="2.65253">
        <ele>1062.87</ele>
        <time>2013-08-09T09:21:54Z</time>
      </trkpt>
      <trkpt lat="45.07299" lon="2.65241">
        <ele>1064.32</ele>
        <time>2013-08-09T09:22:06Z</time>
      </trkpt>
      <trkpt lat="45.07307" lon="2.65231">
        <ele>1065.76</ele>
        <time>2013-08-09T09:22:18Z</time>
      </trkpt>
      <trkpt lat="45.07309" lon="2.65231">
        <ele>1065.76</ele>
        <time>2013-08-09T09:22:21Z</time>
      </trkpt>
      <trkpt lat="45.07319" lon="2.65228">
        <ele>1067.68</ele>
        <time>2013-08-09T09:22:33Z</time>
      </trkpt>
      <trkpt lat="45.07329" lon="2.65233">
        <ele>1068.16</ele>
        <time>2013-08-09T09:22:45Z</time>
      </trkpt>
      <trkpt lat="45.07331" lon="2.65234">
        <ele>1068.16</ele>
        <time>2013-08-09T09:22:47Z</time>
      </trkpt>
      <trkpt lat="45.07346" lon="2.65245">
        <ele>1068.64</ele>
        <time>2013-08-09T09:23:01Z</time>
      </trkpt>
      <trkpt lat="45.07359" lon="2.65259">
        <ele>1069.6</ele>
        <time>2013-08-09T09:23:15Z</time>
      </trkpt>
      <trkpt lat="45.07371" lon="2.65267">
        <ele>1071.53</ele>
        <time>2013-08-09T09:23:30Z</time>
      </trkpt>
      <trkpt lat="45.07372" lon="2.6527">
        <ele>1074.41</ele>
        <time>2013-08-09T09:23:42Z</time>
      </trkpt>
      <trkpt lat="45.07379" lon="2.65283">
        <ele>1077.78</ele>
        <time>2013-08-09T09:23:57Z</time>
      </trkpt>
      <trkpt lat="45.07394" lon="2.65292">
        <ele>1079.7</ele>
        <time>2013-08-09T09:24:10Z</time>
      </trkpt>
      <trkpt lat="45.07402" lon="2.65302">
        <ele>1082.1</ele>
        <time>2013-08-09T09:24:25Z</time>
      </trkpt>
      <trkpt lat="45.07411" lon="2.65318">
        <ele>1084.02</ele>
        <time>2013-08-09T09:24:38Z</time>
      </trkpt>
      <trkpt lat="45.07418" lon="2.65332">
        <ele>1084.99</ele>
        <time>2013-08-09T09:24:50Z</time>
      </trkpt>
      <trkpt lat="45.07427" lon="2.65342">
        <ele>1084.99</ele>
        <time>2013-08-09T09:25:03Z</time>
      </trkpt>
      <trkpt lat="45.07438" lon="2.65351">
        <ele>1085.95</ele>
        <time>2013-08-09T09:25:17Z</time>
      </trkpt>
      <trkpt lat="45.07443" lon="2.65355">
        <ele>1085.95</ele>
        <time>2013-08-09T09:25:22Z</time>
      </trkpt>
      <trkpt lat="45.07447" lon="2.65359">
        <ele>1086.43</ele>
        <time>2013-08-09T09:25:26Z</time>
      </trkpt>
      <trkpt lat="45.07461" lon="2.65366">
        <ele>1087.87</ele>
        <time>2013-08-09T09:25:42Z</time>
      </trkpt>
      <trkpt lat="45.07472" lon="2.6537">
        <ele>1089.31</ele>
        <time>2013-08-09T09:25:56Z</time>
      </trkpt>
      <trkpt lat="45.07484" lon="2.65376">
        <ele>1090.75</ele>
        <time>2013-08-09T09:26:10Z</time>
      </trkpt>
      <trkpt lat="45.07499" lon="2.65385">
        <ele>1092.68</ele>
        <time>2013-08-09T09:26:27Z</time>
      </trkpt>
      <trkpt lat="45.07504" lon="2.65387">
        <ele>1093.64</ele>
        <time>2013-08-09T09:26:33Z</time>
      </trkpt>
      <trkpt lat="45.07513" lon="2.65395">
        <ele>1095.56</ele>
        <time>2013-08-09T09:26:49Z</time>
      </trkpt>
      <trkpt lat="45.0752" lon="2.65406">
        <ele>1097.96</ele>
        <time>2013-08-09T09:27:04Z</time>
      </trkpt>
      <trkpt lat="45.07528" lon="2.65411">
        <ele>1099.89</ele>
        <time>2013-08-09T09:27:17Z</time>
      </trkpt>
      <trkpt lat="45.07532" lon="2.65415">
        <ele>1102.77</ele>
        <time>2013-08-09T09:27:31Z</time>
      </trkpt>
      <trkpt lat="45.07538" lon="2.65417">
        <ele>1104.21</ele>
        <time>2013-08-09T09:27:44Z</time>
      </trkpt>
      <trkpt lat="45.07542" lon="2.65421">
        <ele>1105.65</ele>
        <time>2013-08-09T09:27:54Z</time>
      </trkpt>
      <trkpt lat="45.07547" lon="2.65425">
        <ele>1107.58</ele>
        <time>2013-08-09T09:28:08Z</time>
      </trkpt>
      <trkpt lat="45.07554" lon="2.6543">
        <ele>1110.46</ele>
        <time>2013-08-09T09:28:21Z</time>
      </trkpt>
      <trkpt lat="45.07562" lon="2.65432">
        <ele>1112.38</ele>
        <time>2013-08-09T09:28:32Z</time>
      </trkpt>
      <trkpt lat="45.07573" lon="2.65432">
        <ele>1114.31</ele>
        <time>2013-08-09T09:28:46Z</time>
      </trkpt>
      <trkpt lat="45.07577" lon="2.65432">
        <ele>1115.75</ele>
        <time>2013-08-09T09:28:53Z</time>
      </trkpt>
      <trkpt lat="45.07584" lon="2.65429">
        <ele>1118.15</ele>
        <time>2013-08-09T09:29:06Z</time>
      </trkpt>
      <trkpt lat="45.07593" lon="2.65427">
        <ele>1120.07</ele>
        <time>2013-08-09T09:29:19Z</time>
      </trkpt>
      <trkpt lat="45.07601" lon="2.65428">
        <ele>1121.52</ele>
        <time>2013-08-09T09:29:33Z</time>
      </trkpt>
      <trkpt lat="45.07612" lon="2.65429">
        <ele>1123.92</ele>
        <time>2013-08-09T09:29:47Z</time>
      </trkpt>
      <trkpt lat="45.07618" lon="2.65434">
        <ele>1126.32</ele>
        <time>2013-08-09T09:29:59Z</time>
      </trkpt>
      <trkpt lat="45.07626" lon="2.65441">
        <ele>1128.73</ele>
        <time>2013-08-09T09:30:11Z</time>
      </trkpt>
      <trkpt lat="45.07636" lon="2.65439">
        <ele>1130.65</ele>
        <time>2013-08-09T09:30:24Z</time>
      </trkpt>
      <trkpt lat="45.07647" lon="2.65438">
        <ele>1132.57</ele>
        <time>2013-08-09T09:30:38Z</time>
      </trkpt>
      <trkpt lat="45.07656" lon="2.65438">
        <ele>1133.53</ele>
        <time>2013-08-09T09:30:51Z</time>
      </trkpt>
      <trkpt lat="45.07657" lon="2.65437">
        <ele>1134.01</ele>
        <time>2013-08-09T09:31:09Z</time>
      </trkpt>
      <trkpt lat="45.07656" lon="2.65438">
        <ele>1134.49</ele>
        <time>2013-08-09T09:31:33Z</time>
      </trkpt>
      <trkpt lat="45.07657" lon="2.65438">
        <ele>1134.01</ele>
        <time>2013-08-09T09:31:52Z</time>
      </trkpt>
      <trkpt lat="45.07657" lon="2.65438">
        <ele>1134.01</ele>
        <time>2013-08-09T09:32:17Z</time>
      </trkpt>
      <trkpt lat="45.07658" lon="2.65437">
        <ele>1134.49</ele>
        <time>2013-08-09T09:32:48Z</time>
      </trkpt>
      <trkpt lat="45.07657" lon="2.65437">
        <ele>1134.97</ele>
        <time>2013-08-09T09:33:17Z</time>
      </trkpt>
      <trkpt lat="45.07657" lon="2.65437">
        <ele>1134.97</ele>
        <time>2013-08-09T09:33:18Z</time>
      </trkpt>
      <trkpt lat="45.07657" lon="2.65438">
        <ele>1134.01</ele>
        <time>2013-08-09T09:33:27Z</time>
      </trkpt>
      <trkpt lat="45.07658" lon="2.65438">
        <ele>1138.82</ele>
        <time>2013-08-09T09:33:28Z</time>
      </trkpt>
      <trkpt lat="45.07665" lon="2.65434">
        <ele>1136.42</ele>
        <time>2013-08-09T09:33:43Z</time>
      </trkpt>
      <trkpt lat="45.07673" lon="2.65432">
        <ele>1136.9</ele>
        <time>2013-08-09T09:33:53Z</time>
      </trkpt>
      <trkpt lat="45.07681" lon="2.6543">
        <ele>1138.82</ele>
        <time>2013-08-09T09:34:04Z</time>
      </trkpt>
      <trkpt lat="45.07687" lon="2.65427">
        <ele>1139.78</ele>
        <time>2013-08-09T09:34:13Z</time>
      </trkpt>
      <trkpt lat="45.0769" lon="2.65428">
        <ele>1140.26</ele>
        <time>2013-08-09T09:34:16Z</time>
      </trkpt>
      <trkpt lat="45.07697" lon="2.65428">
        <ele>1141.22</ele>
        <time>2013-08-09T09:34:24Z</time>
      </trkpt>
      <trkpt lat="45.07702" lon="2.65425">
        <ele>1142.18</ele>
        <time>2013-08-09T09:34:31Z</time>
      </trkpt>
      <trkpt lat="45.07709" lon="2.65421">
        <ele>1144.11</ele>
        <time>2013-08-09T09:34:44Z</time>
      </trkpt>
      <trkpt lat="45.07713" lon="2.6542">
        <ele>1145.07</ele>
        <time>2013-08-09T09:34:49Z</time>
      </trkpt>
      <trkpt lat="45.07717" lon="2.6542">
        <ele>1145.55</ele>
        <time>2013-08-09T09:34:53Z</time>
      </trkpt>
      <trkpt lat="45.07724" lon="2.65417">
        <ele>1147.47</ele>
        <time>2013-08-09T09:35:06Z</time>
      </trkpt>
      <trkpt lat="45.07732" lon="2.65416">
        <ele>1149.39</ele>
        <time>2013-08-09T09:35:16Z</time>
      </trkpt>
      <trkpt lat="45.07734" lon="2.65417">
        <ele>1149.87</ele>
        <time>2013-08-09T09:35:18Z</time>
      </trkpt>
      <trkpt lat="45.07741" lon="2.65414">
        <ele>1151.8</ele>
        <time>2013-08-09T09:35:29Z</time>
      </trkpt>
      <trkpt lat="45.07743" lon="2.65414">
        <ele>1151.8</ele>
        <time>2013-08-09T09:35:31Z</time>
      </trkpt>
      <trkpt lat="45.07752" lon="2.65413">
        <ele>1153.72</ele>
        <time>2013-08-09T09:35:42Z</time>
      </trkpt>
      <trkpt lat="45.0776" lon="2.65412">
        <ele>1155.16</ele>
        <time>2013-08-09T09:35:52Z</time>
      </trkpt>
      <trkpt lat="45.07767" lon="2.6541">
        <ele>1156.12</ele>
        <time>2013-08-09T09:36:04Z</time>
      </trkpt>
      <trkpt lat="45.07769" lon="2.6541">
        <ele>1156.12</ele>
        <time>2013-08-09T09:36:06Z</time>
      </trkpt>
      <trkpt lat="45.07772" lon="2.65409">
        <ele>1156.6</ele>
        <time>2013-08-09T09:36:09Z</time>
      </trkpt>
      <trkpt lat="45.07783" lon="2.65407">
        <ele>1157.56</ele>
        <time>2013-08-09T09:36:23Z</time>
      </trkpt>
      <trkpt lat="45.07796" lon="2.65404">
        <ele>1158.53</ele>
        <time>2013-08-09T09:36:39Z</time>
      </trkpt>
      <trkpt lat="45.07805" lon="2.65402">
        <ele>1159.49</ele>
        <time>2013-08-09T09:36:53Z</time>
      </trkpt>
      <trkpt lat="45.07816" lon="2.65401">
        <ele>1160.93</ele>
        <time>2013-08-09T09:37:10Z</time>
      </trkpt>
      <trkpt lat="45.07825" lon="2.65412">
        <ele>1161.89</ele>
        <time>2013-08-09T09:37:25Z</time>
      </trkpt>
      <trkpt lat="45.07839" lon="2.65423">
        <ele>1163.33</ele>
        <time>2013-08-09T09:37:44Z</time>
      </trkpt>
      <trkpt lat="45.07849" lon="2.6543">
        <ele>1164.77</ele>
        <time>2013-08-09T09:37:57Z</time>
      </trkpt>
      <trkpt lat="45.07847" lon="2.6543">
        <ele>1165.26</ele>
        <time>2013-08-09T09:38:13Z</time>
      </trkpt>
      <trkpt lat="45.07847" lon="2.65431">
        <ele>1165.26</ele>
        <time>2013-08-09T09:38:34Z</time>
      </trkpt>
      <trkpt lat="45.07849" lon="2.65432">
        <ele>1165.26</ele>
        <time>2013-08-09T09:38:54Z</time>
      </trkpt>
      <trkpt lat="45.0785" lon="2.65432">
        <ele>1165.74</ele>
        <time>2013-08-09T09:39:17Z</time>
      </trkpt>
      <trkpt lat="45.0785" lon="2.65432">
        <ele>1165.74</ele>
        <time>2013-08-09T09:39:31Z</time>
      </trkpt>
      <trkpt lat="45.07853" lon="2.65434">
        <ele>1166.22</ele>
        <time>2013-08-09T09:39:35Z</time>
      </trkpt>
      <trkpt lat="45.07862" lon="2.65435">
        <ele>1167.66</ele>
        <time>2013-08-09T09:39:46Z</time>
      </trkpt>
      <trkpt lat="45.07868" lon="2.65437">
        <ele>1168.62</ele>
        <time>2013-08-09T09:39:53Z</time>
      </trkpt>
      <trkpt lat="45.07877" lon="2.65443">
        <ele>1170.06</ele>
        <time>2013-08-09T09:40:03Z</time>
      </trkpt>
      <trkpt lat="45.07888" lon="2.65447">
        <ele>1171.5</ele>
        <time>2013-08-09T09:40:16Z</time>
      </trkpt>
      <trkpt lat="45.07889" lon="2.65447">
        <ele>1171.98</ele>
        <time>2013-08-09T09:40:17Z</time>
      </trkpt>
      <trkpt lat="45.07891" lon="2.65447">
        <ele>1172.95</ele>
        <time>2013-08-09T09:40:19Z</time>
      </trkpt>
      <trkpt lat="45.07895" lon="2.65448">
        <ele>1172.47</ele>
        <time>2013-08-09T09:40:22Z</time>
      </trkpt>
      <trkpt lat="45.07906" lon="2.65454">
        <ele>1173.91</ele>
        <time>2013-08-09T09:40:36Z</time>
      </trkpt>
      <trkpt lat="45.07911" lon="2.65453">
        <ele>1173.91</ele>
        <time>2013-08-09T09:40:40Z</time>
      </trkpt>
      <trkpt lat="45.07923" lon="2.65451">
        <ele>1174.87</ele>
        <time>2013-08-09T09:40:53Z</time>
      </trkpt>
      <trkpt lat="45.07931" lon="2.6545">
        <ele>1173.43</ele>
        <time>2013-08-09T09:41:06Z</time>
      </trkpt>
      <trkpt lat="45.07945" lon="2.65449">
        <ele>1171.98</ele>
        <time>2013-08-09T09:41:20Z</time>
      </trkpt>
      <trkpt lat="45.07955" lon="2.65445">
        <ele>1169.58</ele>
        <time>2013-08-09T09:41:36Z</time>
      </trkpt>
      <trkpt lat="45.07963" lon="2.65439">
        <ele>1167.18</ele>
        <time>2013-08-09T09:41:52Z</time>
      </trkpt>
      <trkpt lat="45.07989" lon="2.65427">
        <ele>1165.26</ele>
        <time>2013-08-09T09:42:07Z</time>
      </trkpt>
      <trkpt lat="45.08001" lon="2.65421">
        <ele>1164.29</ele>
        <time>2013-08-09T09:42:22Z</time>
      </trkpt>
      <trkpt lat="45.08009" lon="2.65415">
        <ele>1161.41</ele>
        <time>2013-08-09T09:42:38Z</time>
      </trkpt>
      <trkpt lat="45.08018" lon="2.65408">
        <ele>1160.93</ele>
        <time>2013-08-09T09:42:46Z</time>
      </trkpt>
      <trkpt lat="45.08028" lon="2.65399">
        <ele>1160.45</ele>
        <time>2013-08-09T09:42:52Z</time>
      </trkpt>
      <trkpt lat="45.08039" lon="2.65386">
        <ele>1160.93</ele>
        <time>2013-08-09T09:43:07Z</time>
      </trkpt>
      <trkpt lat="45.08058" lon="2.65382">
        <ele>1160.93</ele>
        <time>2013-08-09T09:43:22Z</time>
      </trkpt>
      <trkpt lat="45.08067" lon="2.65381">
        <ele>1161.89</ele>
        <time>2013-08-09T09:43:38Z</time>
      </trkpt>
      <trkpt lat="45.08086" lon="2.65378">
        <ele>1161.41</ele>
        <time>2013-08-09T09:43:53Z</time>
      </trkpt>
      <trkpt lat="45.08095" lon="2.65372">
        <ele>1160.93</ele>
        <time>2013-08-09T09:44:07Z</time>
      </trkpt>
      <trkpt lat="45.08113" lon="2.65364">
        <ele>1161.41</ele>
        <time>2013-08-09T09:44:20Z</time>
      </trkpt>
      <trkpt lat="45.08118" lon="2.65365">
        <ele>1161.89</ele>
        <time>2013-08-09T09:44:24Z</time>
      </trkpt>
      <trkpt lat="45.08133" lon="2.6537">
        <ele>1163.81</ele>
        <time>2013-08-09T09:44:39Z</time>
      </trkpt>
      <trkpt lat="45.08144" lon="2.65377">
        <ele>1166.22</ele>
        <time>2013-08-09T09:44:55Z</time>
      </trkpt>
      <trkpt lat="45.08167" lon="2.65385">
        <ele>1167.66</ele>
        <time>2013-08-09T09:45:10Z</time>
      </trkpt>
      <trkpt lat="45.08175" lon="2.65387">
        <ele>1167.66</ele>
        <time>2013-08-09T09:45:16Z</time>
      </trkpt>
      <trkpt lat="45.08186" lon="2.65396">
        <ele>1168.14</ele>
        <time>2013-08-09T09:45:27Z</time>
      </trkpt>
      <trkpt lat="45.08187" lon="2.65399">
        <ele>1168.62</ele>
        <time>2013-08-09T09:45:29Z</time>
      </trkpt>
      <trkpt lat="45.08199" lon="2.65418">
        <ele>1169.1</ele>
        <time>2013-08-09T09:45:43Z</time>
      </trkpt>
      <trkpt lat="45.08203" lon="2.65438">
        <ele>1168.62</ele>
        <time>2013-08-09T09:45:56Z</time>
      </trkpt>
      <trkpt lat="45.08209" lon="2.6546">
        <ele>1168.62</ele>
        <time>2013-08-09T09:46:11Z</time>
      </trkpt>
      <trkpt lat="45.08216" lon="2.65473">
        <ele>1168.62</ele>
        <time>2013-08-09T09:46:24Z</time>
      </trkpt>
      <trkpt lat="45.08227" lon="2.65488">
        <ele>1168.14</ele>
        <time>2013-08-09T09:46:37Z</time>
      </trkpt>
      <trkpt lat="45.08228" lon="2.6549">
        <ele>1168.14</ele>
        <time>2013-08-09T09:46:39Z</time>
      </trkpt>
      <trkpt lat="45.08238" lon="2.65504">
        <ele>1167.66</ele>
        <time>2013-08-09T09:46:51Z</time>
      </trkpt>
      <trkpt lat="45.08246" lon="2.6552">
        <ele>1165.74</ele>
        <time>2013-08-09T09:47:04Z</time>
      </trkpt>
      <trkpt lat="45.08246" lon="2.65525">
        <ele>1164.77</ele>
        <time>2013-08-09T09:47:08Z</time>
      </trkpt>
      <trkpt lat="45.08254" lon="2.65548">
        <ele>1162.85</ele>
        <time>2013-08-09T09:47:22Z</time>
      </trkpt>
      <trkpt lat="45.08253" lon="2.65551">
        <ele>1162.85</ele>
        <time>2013-08-09T09:47:24Z</time>
      </trkpt>
      <trkpt lat="45.08256" lon="2.65571">
        <ele>1159.97</ele>
        <time>2013-08-09T09:47:37Z</time>
      </trkpt>
      <trkpt lat="45.08261" lon="2.65593">
        <ele>1159.01</ele>
        <time>2013-08-09T09:47:51Z</time>
      </trkpt>
      <trkpt lat="45.08267" lon="2.65613">
        <ele>1157.08</ele>
        <time>2013-08-09T09:48:04Z</time>
      </trkpt>
      <trkpt lat="45.08276" lon="2.65624">
        <ele>1156.6</ele>
        <time>2013-08-09T09:48:17Z</time>
      </trkpt>
      <trkpt lat="45.08292" lon="2.65636">
        <ele>1156.12</ele>
        <time>2013-08-09T09:48:30Z</time>
      </trkpt>
      <trkpt lat="45.08307" lon="2.65644">
        <ele>1156.12</ele>
        <time>2013-08-09T09:48:44Z</time>
      </trkpt>
      <trkpt lat="45.08314" lon="2.65645">
        <ele>1157.08</ele>
        <time>2013-08-09T09:48:59Z</time>
      </trkpt>
      <trkpt lat="45.08316" lon="2.65645">
        <ele>1157.56</ele>
        <time>2013-08-09T09:49:01Z</time>
      </trkpt>
      <trkpt lat="45.0833" lon="2.65645">
        <ele>1156.6</ele>
        <time>2013-08-09T09:49:09Z</time>
      </trkpt>
      <trkpt lat="45.08345" lon="2.65645">
        <ele>1154.68</ele>
        <time>2013-08-09T09:49:22Z</time>
      </trkpt>
      <trkpt lat="45.08351" lon="2.65644">
        <ele>1153.24</ele>
        <time>2013-08-09T09:49:35Z</time>
      </trkpt>
      <trkpt lat="45.08365" lon="2.65642">
        <ele>1151.32</ele>
        <time>2013-08-09T09:49:47Z</time>
      </trkpt>
      <trkpt lat="45.08383" lon="2.65639">
        <ele>1150.35</ele>
        <time>2013-08-09T09:50:00Z</time>
      </trkpt>
      <trkpt lat="45.08392" lon="2.6564">
        <ele>1149.39</ele>
        <time>2013-08-09T09:50:13Z</time>
      </trkpt>
      <trkpt lat="45.084" lon="2.65637">
        <ele>1148.91</ele>
        <time>2013-08-09T09:50:23Z</time>
      </trkpt>
      <trkpt lat="45.0841" lon="2.65636">
        <ele>1148.43</ele>
        <time>2013-08-09T09:50:32Z</time>
      </trkpt>
      <trkpt lat="45.0842" lon="2.65636">
        <ele>1147.47</ele>
        <time>2013-08-09T09:50:43Z</time>
      </trkpt>
      <trkpt lat="45.08422" lon="2.65635">
        <ele>1147.95</ele>
        <time>2013-08-09T09:50:59Z</time>
      </trkpt>
      <trkpt lat="45.08423" lon="2.65636">
        <ele>1147.95</ele>
        <time>2013-08-09T09:51:21Z</time>
      </trkpt>
      <trkpt lat="45.08426" lon="2.65634">
        <ele>1147.95</ele>
        <time>2013-08-09T09:51:34Z</time>
      </trkpt>
      <trkpt lat="45.08431" lon="2.65632">
        <ele>1147.47</ele>
        <time>2013-08-09T09:51:42Z</time>
      </trkpt>
      <trkpt lat="45.08435" lon="2.65632">
        <ele>1146.99</ele>
        <time>2013-08-09T09:51:45Z</time>
      </trkpt>
      <trkpt lat="45.0844" lon="2.65634">
        <ele>1146.51</ele>
        <time>2013-08-09T09:51:57Z</time>
      </trkpt>
      <trkpt lat="45.0844" lon="2.65635">
        <ele>1146.99</ele>
        <time>2013-08-09T09:52:17Z</time>
      </trkpt>
      <trkpt lat="45.08441" lon="2.65641">
        <ele>1145.55</ele>
        <time>2013-08-09T09:52:35Z</time>
      </trkpt>
      <trkpt lat="45.08441" lon="2.65642">
        <ele>1145.07</ele>
        <time>2013-08-09T09:52:36Z</time>
      </trkpt>
      <trkpt lat="45.08441" lon="2.65658">
        <ele>1143.14</ele>
        <time>2013-08-09T09:52:48Z</time>
      </trkpt>
      <trkpt lat="45.08438" lon="2.6567">
        <ele>1141.22</ele>
        <time>2013-08-09T09:52:59Z</time>
      </trkpt>
      <trkpt lat="45.08436" lon="2.65688">
        <ele>1138.82</ele>
        <time>2013-08-09T09:53:12Z</time>
      </trkpt>
      <trkpt lat="45.08436" lon="2.6569">
        <ele>1138.34</ele>
        <time>2013-08-09T09:53:13Z</time>
      </trkpt>
      <trkpt lat="45.08439" lon="2.65693">
        <ele>1137.86</ele>
        <time>2013-08-09T09:53:18Z</time>
      </trkpt>
      <trkpt lat="45.0845" lon="2.65687">
        <ele>1136.9</ele>
        <time>2013-08-09T09:53:29Z</time>
      </trkpt>
      <trkpt lat="45.08454" lon="2.65685">
        <ele>1137.38</ele>
        <time>2013-08-09T09:53:33Z</time>
      </trkpt>
      <trkpt lat="45.08459" lon="2.65681">
        <ele>1137.38</ele>
        <time>2013-08-09T09:53:38Z</time>
      </trkpt>
      <trkpt lat="45.08462" lon="2.65674">
        <ele>1137.38</ele>
        <time>2013-08-09T09:53:43Z</time>
      </trkpt>
      <trkpt lat="45.08468" lon="2.6567">
        <ele>1137.86</ele>
        <time>2013-08-09T09:53:51Z</time>
      </trkpt>
      <trkpt lat="45.08478" lon="2.65664">
        <ele>1137.38</ele>
        <time>2013-08-09T09:54:00Z</time>
      </trkpt>
      <trkpt lat="45.0848" lon="2.65662">
        <ele>1136.9</ele>
        <time>2013-08-09T09:54:03Z</time>
      </trkpt>
      <trkpt lat="45.08484" lon="2.65661">
        <ele>1136.42</ele>
        <time>2013-08-09T09:54:07Z</time>
      </trkpt>
      <trkpt lat="45.08493" lon="2.65653">
        <ele>1135.94</ele>
        <time>2013-08-09T09:54:18Z</time>
      </trkpt>
      <trkpt lat="45.08503" lon="2.65642">
        <ele>1135.45</ele>
        <time>2013-08-09T09:54:31Z</time>
      </trkpt>
      <trkpt lat="45.08505" lon="2.65638">
        <ele>1135.45</ele>
        <time>2013-08-09T09:54:46Z</time>
      </trkpt>
      <trkpt lat="45.08505" lon="2.65636">
        <ele>1135.94</ele>
        <time>2013-08-09T09:55:02Z</time>
      </trkpt>
      <trkpt lat="45.08506" lon="2.65635">
        <ele>1135.45</ele>
        <time>2013-08-09T09:55:16Z</time>
      </trkpt>
      <trkpt lat="45.08513" lon="2.65619">
        <ele>1135.45</ele>
        <time>2013-08-09T09:55:28Z</time>
      </trkpt>
      <trkpt lat="45.08515" lon="2.65615">
        <ele>1135.94</ele>
        <time>2013-08-09T09:55:33Z</time>
      </trkpt>
      <trkpt lat="45.08526" lon="2.6561">
        <ele>1135.94</ele>
        <time>2013-08-09T09:55:44Z</time>
      </trkpt>
      <trkpt lat="45.08533" lon="2.65606">
        <ele>1136.42</ele>
        <time>2013-08-09T09:55:51Z</time>
      </trkpt>
      <trkpt lat="45.08535" lon="2.65604">
        <ele>1135.94</ele>
        <time>2013-08-09T09:55:54Z</time>
      </trkpt>
      <trkpt lat="45.08546" lon="2.65592">
        <ele>1135.94</ele>
        <time>2013-08-09T09:56:09Z</time>
      </trkpt>
      <trkpt lat="45.08549" lon="2.65586">
        <ele>1135.94</ele>
        <time>2013-08-09T09:56:16Z</time>
      </trkpt>
      <trkpt lat="45.08554" lon="2.65582">
        <ele>1136.42</ele>
        <time>2013-08-09T09:56:26Z</time>
      </trkpt>
      <trkpt lat="45.08561" lon="2.65577">
        <ele>1136.42</ele>
        <time>2013-08-09T09:56:38Z</time>
      </trkpt>
      <trkpt lat="45.08568" lon="2.65571">
        <ele>1136.9</ele>
        <time>2013-08-09T09:56:53Z</time>
      </trkpt>
      <trkpt lat="45.08571" lon="2.65576">
        <ele>1136.9</ele>
        <time>2013-08-09T09:57:11Z</time>
      </trkpt>
      <trkpt lat="45.08575" lon="2.65575">
        <ele>1136.9</ele>
        <time>2013-08-09T09:57:24Z</time>
      </trkpt>
      <trkpt lat="45.08577" lon="2.65573">
        <ele>1136.9</ele>
        <time>2013-08-09T09:57:47Z</time>
      </trkpt>
      <trkpt lat="45.0858" lon="2.6557">
        <ele>1136.9</ele>
        <time>2013-08-09T09:58:04Z</time>
      </trkpt>
      <trkpt lat="45.08579" lon="2.65569">
        <ele>1136.9</ele>
        <time>2013-08-09T09:58:17Z</time>
      </trkpt>
      <trkpt lat="45.08582" lon="2.6557">
        <ele>1136.9</ele>
        <time>2013-08-09T09:58:28Z</time>
      </trkpt>
      <trkpt lat="45.08586" lon="2.65568">
        <ele>1137.86</ele>
        <time>2013-08-09T09:58:49Z</time>
      </trkpt>
      <trkpt lat="45.08592" lon="2.65569">
        <ele>1138.82</ele>
        <time>2013-08-09T09:59:02Z</time>
      </trkpt>
      <trkpt lat="45.08597" lon="2.65574">
        <ele>1140.26</ele>
        <time>2013-08-09T09:59:20Z</time>
      </trkpt>
      <trkpt lat="45.08605" lon="2.65582">
        <ele>1142.66</ele>
        <time>2013-08-09T09:59:32Z</time>
      </trkpt>
      <trkpt lat="45.08614" lon="2.65589">
        <ele>1144.59</ele>
        <time>2013-08-09T09:59:47Z</time>
      </trkpt>
      <trkpt lat="45.08618" lon="2.65592">
        <ele>1146.03</ele>
        <time>2013-08-09T09:59:55Z</time>
      </trkpt>
      <trkpt lat="45.0862" lon="2.65592">
        <ele>1146.03</ele>
        <time>2013-08-09T09:59:57Z</time>
      </trkpt>
      <trkpt lat="45.08624" lon="2.65591">
        <ele>1146.51</ele>
        <time>2013-08-09T10:00:00Z</time>
      </trkpt>
      <trkpt lat="45.08634" lon="2.65592">
        <ele>1147.95</ele>
        <time>2013-08-09T10:00:11Z</time>
      </trkpt>
      <trkpt lat="45.08642" lon="2.65597">
        <ele>1148.91</ele>
        <time>2013-08-09T10:00:23Z</time>
      </trkpt>
      <trkpt lat="45.08645" lon="2.65599">
        <ele>1148.91</ele>
        <time>2013-08-09T10:00:43Z</time>
      </trkpt>
      <trkpt lat="45.08646" lon="2.65599">
        <ele>1148.91</ele>
        <time>2013-08-09T10:00:44Z</time>
      </trkpt>
      <trkpt lat="45.08654" lon="2.65601">
        <ele>1149.87</ele>
        <time>2013-08-09T10:00:55Z</time>
      </trkpt>
      <trkpt lat="45.08658" lon="2.65599">
        <ele>1151.32</ele>
        <time>2013-08-09T10:01:06Z</time>
      </trkpt>
      <trkpt lat="45.08661" lon="2.65597">
        <ele>1152.28</ele>
        <time>2013-08-09T10:01:14Z</time>
      </trkpt>
      <trkpt lat="45.08668" lon="2.6559">
        <ele>1153.72</ele>
        <time>2013-08-09T10:01:26Z</time>
      </trkpt>
      <trkpt lat="45.08672" lon="2.6559">
        <ele>1155.16</ele>
        <time>2013-08-09T10:01:34Z</time>
      </trkpt>
      <trkpt lat="45.08674" lon="2.65591">
        <ele>1154.68</ele>
        <time>2013-08-09T10:01:48Z</time>
      </trkpt>
      <trkpt lat="45.08673" lon="2.65593">
        <ele>1154.68</ele>
        <time>2013-08-09T10:02:04Z</time>
      </trkpt>
      <trkpt lat="45.08672" lon="2.65592">
        <ele>1155.16</ele>
        <time>2013-08-09T10:02:33Z</time>
      </trkpt>
      <trkpt lat="45.08675" lon="2.65592">
        <ele>1156.12</ele>
        <time>2013-08-09T10:02:39Z</time>
      </trkpt>
      <trkpt lat="45.08686" lon="2.65583">
        <ele>1159.01</ele>
        <time>2013-08-09T10:02:54Z</time>
      </trkpt>
      <trkpt lat="45.08694" lon="2.65578">
        <ele>1161.89</ele>
        <time>2013-08-09T10:03:08Z</time>
      </trkpt>
      <trkpt lat="45.08703" lon="2.6558">
        <ele>1163.81</ele>
        <time>2013-08-09T10:03:20Z</time>
      </trkpt>
      <trkpt lat="45.08709" lon="2.65582">
        <ele>1164.77</ele>
        <time>2013-08-09T10:03:26Z</time>
      </trkpt>
      <trkpt lat="45.0872" lon="2.65588">
        <ele>1167.18</ele>
        <time>2013-08-09T10:03:39Z</time>
      </trkpt>
      <trkpt lat="45.0873" lon="2.65592">
        <ele>1168.14</ele>
        <time>2013-08-09T10:03:48Z</time>
      </trkpt>
      <trkpt lat="45.08733" lon="2.65594">
        <ele>1168.62</ele>
        <time>2013-08-09T10:03:51Z</time>
      </trkpt>
      <trkpt lat="45.08738" lon="2.65599">
        <ele>1169.58</ele>
        <time>2013-08-09T10:03:59Z</time>
      </trkpt>
      <trkpt lat="45.08741" lon="2.65602">
        <ele>1170.54</ele>
        <time>2013-08-09T10:04:05Z</time>
      </trkpt>
      <trkpt lat="45.08744" lon="2.65605">
        <ele>1171.02</ele>
        <time>2013-08-09T10:04:09Z</time>
      </trkpt>
      <trkpt lat="45.08745" lon="2.65608">
        <ele>1171.02</ele>
        <time>2013-08-09T10:04:12Z</time>
      </trkpt>
      <trkpt lat="45.08749" lon="2.6561">
        <ele>1171.5</ele>
        <time>2013-08-09T10:04:15Z</time>
      </trkpt>
      <trkpt lat="45.08758" lon="2.65617">
        <ele>1173.43</ele>
        <time>2013-08-09T10:04:28Z</time>
      </trkpt>
      <trkpt lat="45.08768" lon="2.65625">
        <ele>1175.83</ele>
        <time>2013-08-09T10:04:42Z</time>
      </trkpt>
      <trkpt lat="45.08775" lon="2.65629">
        <ele>1177.75</ele>
        <time>2013-08-09T10:04:54Z</time>
      </trkpt>
      <trkpt lat="45.08781" lon="2.65636">
        <ele>1179.19</ele>
        <time>2013-08-09T10:05:06Z</time>
      </trkpt>
      <trkpt lat="45.08783" lon="2.65638">
        <ele>1181.12</ele>
        <time>2013-08-09T10:05:19Z</time>
      </trkpt>
      <trkpt lat="45.08788" lon="2.65648">
        <ele>1183.52</ele>
        <time>2013-08-09T10:05:35Z</time>
      </trkpt>
      <trkpt lat="45.08801" lon="2.65668">
        <ele>1185.44</ele>
        <time>2013-08-09T10:05:50Z</time>
      </trkpt>
      <trkpt lat="45.08804" lon="2.65673">
        <ele>1186.4</ele>
        <time>2013-08-09T10:05:56Z</time>
      </trkpt>
      <trkpt lat="45.08815" lon="2.65684">
        <ele>1188.33</ele>
        <time>2013-08-09T10:06:10Z</time>
      </trkpt>
      <trkpt lat="45.0882" lon="2.65692">
        <ele>1190.25</ele>
        <time>2013-08-09T10:06:21Z</time>
      </trkpt>
      <trkpt lat="45.08823" lon="2.65697">
        <ele>1192.17</ele>
        <time>2013-08-09T10:06:33Z</time>
      </trkpt>
      <trkpt lat="45.08827" lon="2.65705">
        <ele>1193.61</ele>
        <time>2013-08-09T10:06:47Z</time>
      </trkpt>
      <trkpt lat="45.08838" lon="2.65718">
        <ele>1196.02</ele>
        <time>2013-08-09T10:07:03Z</time>
      </trkpt>
      <trkpt lat="45.08842" lon="2.65718">
        <ele>1196.98</ele>
        <time>2013-08-09T10:07:23Z</time>
      </trkpt>
      <trkpt lat="45.08848" lon="2.65721">
        <ele>1198.9</ele>
        <time>2013-08-09T10:07:35Z</time>
      </trkpt>
      <trkpt lat="45.08854" lon="2.65723">
        <ele>1199.38</ele>
        <time>2013-08-09T10:07:47Z</time>
      </trkpt>
      <trkpt lat="45.08857" lon="2.65726">
        <ele>1199.38</ele>
        <time>2013-08-09T10:07:52Z</time>
      </trkpt>
      <trkpt lat="45.08866" lon="2.65735">
        <ele>1199.38</ele>
        <time>2013-08-09T10:08:05Z</time>
      </trkpt>
      <trkpt lat="45.08877" lon="2.65737">
        <ele>1200.34</ele>
        <time>2013-08-09T10:08:15Z</time>
      </trkpt>
      <trkpt lat="45.0889" lon="2.65739">
        <ele>1200.82</ele>
        <time>2013-08-09T10:08:30Z</time>
      </trkpt>
      <trkpt lat="45.08896" lon="2.6574">
        <ele>1201.79</ele>
        <time>2013-08-09T10:08:46Z</time>
      </trkpt>
      <trkpt lat="45.08899" lon="2.65744">
        <ele>1200.82</ele>
        <time>2013-08-09T10:09:01Z</time>
      </trkpt>
      <trkpt lat="45.08898" lon="2.65742">
        <ele>1200.82</ele>
        <time>2013-08-09T10:09:40Z</time>
      </trkpt>
      <trkpt lat="45.089" lon="2.6574">
        <ele>1200.82</ele>
        <time>2013-08-09T10:10:13Z</time>
      </trkpt>
      <trkpt lat="45.08898" lon="2.6574">
        <ele>1200.82</ele>
        <time>2013-08-09T10:10:31Z</time>
      </trkpt>
      <trkpt lat="45.08899" lon="2.65739">
        <ele>1200.82</ele>
        <time>2013-08-09T10:11:02Z</time>
      </trkpt>
      <trkpt lat="45.08899" lon="2.65739">
        <ele>1200.82</ele>
        <time>2013-08-09T10:11:35Z</time>
      </trkpt>
      <trkpt lat="45.08904" lon="2.65739">
        <ele>1202.27</ele>
        <time>2013-08-09T10:11:49Z</time>
      </trkpt>
      <trkpt lat="45.08908" lon="2.6574">
        <ele>1202.75</ele>
        <time>2013-08-09T10:12:01Z</time>
      </trkpt>
      <trkpt lat="45.08911" lon="2.65739">
        <ele>1202.75</ele>
        <time>2013-08-09T10:12:03Z</time>
      </trkpt>
      <trkpt lat="45.08925" lon="2.65741">
        <ele>1203.23</ele>
        <time>2013-08-09T10:12:18Z</time>
      </trkpt>
      <trkpt lat="45.08931" lon="2.65752">
        <ele>1203.23</ele>
        <time>2013-08-09T10:12:27Z</time>
      </trkpt>
      <trkpt lat="45.08936" lon="2.65767">
        <ele>1204.19</ele>
        <time>2013-08-09T10:12:40Z</time>
      </trkpt>
      <trkpt lat="45.0894" lon="2.65783">
        <ele>1204.67</ele>
        <time>2013-08-09T10:12:52Z</time>
      </trkpt>
      <trkpt lat="45.0894" lon="2.65799">
        <ele>1205.15</ele>
        <time>2013-08-09T10:13:06Z</time>
      </trkpt>
      <trkpt lat="45.08946" lon="2.65818">
        <ele>1206.11</ele>
        <time>2013-08-09T10:13:19Z</time>
      </trkpt>
      <trkpt lat="45.08951" lon="2.65834">
        <ele>1205.63</ele>
        <time>2013-08-09T10:13:33Z</time>
      </trkpt>
      <trkpt lat="45.08953" lon="2.65851">
        <ele>1206.59</ele>
        <time>2013-08-09T10:13:47Z</time>
      </trkpt>
      <trkpt lat="45.08961" lon="2.65861">
        <ele>1205.63</ele>
        <time>2013-08-09T10:14:00Z</time>
      </trkpt>
      <trkpt lat="45.08967" lon="2.65859">
        <ele>1205.63</ele>
        <time>2013-08-09T10:14:14Z</time>
      </trkpt>
      <trkpt lat="45.08981" lon="2.65858">
        <ele>1205.15</ele>
        <time>2013-08-09T10:14:29Z</time>
      </trkpt>
      <trkpt lat="45.09006" lon="2.65859">
        <ele>1204.19</ele>
        <time>2013-08-09T10:14:43Z</time>
      </trkpt>
      <trkpt lat="45.09013" lon="2.65855">
        <ele>1206.11</ele>
        <time>2013-08-09T10:14:55Z</time>
      </trkpt>
      <trkpt lat="45.0902" lon="2.65845">
        <ele>1208.03</ele>
        <time>2013-08-09T10:15:11Z</time>
      </trkpt>
      <trkpt lat="45.09021" lon="2.65842">
        <ele>1208.03</ele>
        <time>2013-08-09T10:15:45Z</time>
      </trkpt>
      <trkpt lat="45.09023" lon="2.6585">
        <ele>1206.59</ele>
        <time>2013-08-09T10:16:01Z</time>
      </trkpt>
      <trkpt lat="45.09024" lon="2.65862">
        <ele>1203.23</ele>
        <time>2013-08-09T10:16:11Z</time>
      </trkpt>
      <trkpt lat="45.0903" lon="2.65867">
        <ele>1200.34</ele>
        <time>2013-08-09T10:16:23Z</time>
      </trkpt>
      <trkpt lat="45.09032" lon="2.65871">
        <ele>1197.94</ele>
        <time>2013-08-09T10:16:35Z</time>
      </trkpt>
      <trkpt lat="45.09042" lon="2.65871">
        <ele>1196.5</ele>
        <time>2013-08-09T10:16:47Z</time>
      </trkpt>
      <trkpt lat="45.0906" lon="2.65875">
        <ele>1195.06</ele>
        <time>2013-08-09T10:16:58Z</time>
      </trkpt>
      <trkpt lat="45.0907" lon="2.6588">
        <ele>1193.61</ele>
        <time>2013-08-09T10:17:10Z</time>
      </trkpt>
      <trkpt lat="45.09077" lon="2.65889">
        <ele>1193.13</ele>
        <time>2013-08-09T10:17:18Z</time>
      </trkpt>
      <trkpt lat="45.09086" lon="2.65895">
        <ele>1191.69</ele>
        <time>2013-08-09T10:17:31Z</time>
      </trkpt>
      <trkpt lat="45.0909" lon="2.65897">
        <ele>1191.21</ele>
        <time>2013-08-09T10:17:43Z</time>
      </trkpt>
      <trkpt lat="45.09087" lon="2.65902">
        <ele>1191.69</ele>
        <time>2013-08-09T10:17:55Z</time>
      </trkpt>
      <trkpt lat="45.09088" lon="2.65908">
        <ele>1190.25</ele>
        <time>2013-08-09T10:18:05Z</time>
      </trkpt>
      <trkpt lat="45.09092" lon="2.65902">
        <ele>1190.25</ele>
        <time>2013-08-09T10:18:17Z</time>
      </trkpt>
      <trkpt lat="45.09096" lon="2.65902">
        <ele>1190.73</ele>
        <time>2013-08-09T10:18:29Z</time>
      </trkpt>
      <trkpt lat="45.09097" lon="2.65904">
        <ele>1190.73</ele>
        <time>2013-08-09T10:18:42Z</time>
      </trkpt>
      <trkpt lat="45.09096" lon="2.65907">
        <ele>1190.25</ele>
        <time>2013-08-09T10:18:55Z</time>
      </trkpt>
      <trkpt lat="45.09102" lon="2.65911">
        <ele>1191.69</ele>
        <time>2013-08-09T10:19:05Z</time>
      </trkpt>
      <trkpt lat="45.09106" lon="2.65911">
        <ele>1193.61</ele>
        <time>2013-08-09T10:19:18Z</time>
      </trkpt>
      <trkpt lat="45.09107" lon="2.65911">
        <ele>1193.61</ele>
        <time>2013-08-09T10:19:38Z</time>
      </trkpt>
      <trkpt lat="45.09107" lon="2.65913">
        <ele>1193.61</ele>
        <time>2013-08-09T10:20:03Z</time>
      </trkpt>
      <trkpt lat="45.09107" lon="2.65913">
        <ele>1194.09</ele>
        <time>2013-08-09T10:20:21Z</time>
      </trkpt>
      <trkpt lat="45.09107" lon="2.65914">
        <ele>1194.09</ele>
        <time>2013-08-09T10:20:44Z</time>
      </trkpt>
      <trkpt lat="45.09108" lon="2.65915">
        <ele>1194.58</ele>
        <time>2013-08-09T10:21:04Z</time>
      </trkpt>
      <trkpt lat="45.09108" lon="2.65915">
        <ele>1194.58</ele>
        <time>2013-08-09T10:21:24Z</time>
      </trkpt>
      <trkpt lat="45.09106" lon="2.65913">
        <ele>1194.58</ele>
        <time>2013-08-09T10:21:42Z</time>
      </trkpt>
      <trkpt lat="45.09105" lon="2.65916">
        <ele>1194.58</ele>
        <time>2013-08-09T10:21:52Z</time>
      </trkpt>
      <trkpt lat="45.09104" lon="2.65924">
        <ele>1195.06</ele>
        <time>2013-08-09T10:22:02Z</time>
      </trkpt>
      <trkpt lat="45.09102" lon="2.65932">
        <ele>1196.02</ele>
        <time>2013-08-09T10:22:15Z</time>
      </trkpt>
      <trkpt lat="45.09103" lon="2.65934">
        <ele>1196.98</ele>
        <time>2013-08-09T10:22:30Z</time>
      </trkpt>
      <trkpt lat="45.09102" lon="2.65941">
        <ele>1197.94</ele>
        <time>2013-08-09T10:22:43Z</time>
      </trkpt>
      <trkpt lat="45.09101" lon="2.65949">
        <ele>1198.9</ele>
        <time>2013-08-09T10:22:55Z</time>
      </trkpt>
      <trkpt lat="45.09102" lon="2.65953">
        <ele>1199.38</ele>
        <time>2013-08-09T10:23:00Z</time>
      </trkpt>
      <trkpt lat="45.09096" lon="2.65968">
        <ele>1201.3</ele>
        <time>2013-08-09T10:23:12Z</time>
      </trkpt>
      <trkpt lat="45.09096" lon="2.6597">
        <ele>1201.3</ele>
        <time>2013-08-09T10:23:13Z</time>
      </trkpt>
      <trkpt lat="45.09097" lon="2.65979">
        <ele>1202.27</ele>
        <time>2013-08-09T10:23:20Z</time>
      </trkpt>
      <trkpt lat="45.09107" lon="2.65997">
        <ele>1202.27</ele>
        <time>2013-08-09T10:23:35Z</time>
      </trkpt>
      <trkpt lat="45.09108" lon="2.65998">
        <ele>1201.79</ele>
        <time>2013-08-09T10:23:36Z</time>
      </trkpt>
      <trkpt lat="45.0912" lon="2.66011">
        <ele>1200.82</ele>
        <time>2013-08-09T10:23:50Z</time>
      </trkpt>
      <trkpt lat="45.09122" lon="2.66013">
        <ele>1200.82</ele>
        <time>2013-08-09T10:23:53Z</time>
      </trkpt>
      <trkpt lat="45.09124" lon="2.66015">
        <ele>1200.82</ele>
        <time>2013-08-09T10:23:56Z</time>
      </trkpt>
      <trkpt lat="45.09132" lon="2.6603">
        <ele>1201.3</ele>
        <time>2013-08-09T10:24:08Z</time>
      </trkpt>
      <trkpt lat="45.09131" lon="2.66032">
        <ele>1201.3</ele>
        <time>2013-08-09T10:24:20Z</time>
      </trkpt>
      <trkpt lat="45.0913" lon="2.66031">
        <ele>1200.82</ele>
        <time>2013-08-09T10:24:30Z</time>
      </trkpt>
      <trkpt lat="45.09129" lon="2.66032">
        <ele>1200.82</ele>
        <time>2013-08-09T10:24:47Z</time>
      </trkpt>
      <trkpt lat="45.09129" lon="2.66031">
        <ele>1201.3</ele>
        <time>2013-08-09T10:25:04Z</time>
      </trkpt>
      <trkpt lat="45.09129" lon="2.66032">
        <ele>1201.3</ele>
        <time>2013-08-09T10:25:12Z</time>
      </trkpt>
      <trkpt lat="45.09131" lon="2.66037">
        <ele>1202.27</ele>
        <time>2013-08-09T10:25:19Z</time>
      </trkpt>
      <trkpt lat="45.09135" lon="2.66044">
        <ele>1202.75</ele>
        <time>2013-08-09T10:25:25Z</time>
      </trkpt>
      <trkpt lat="45.09134" lon="2.66048">
        <ele>1202.75</ele>
        <time>2013-08-09T10:25:28Z</time>
      </trkpt>
      <trkpt lat="45.09135" lon="2.66051">
        <ele>1203.23</ele>
        <time>2013-08-09T10:25:30Z</time>
      </trkpt>
      <trkpt lat="45.09136" lon="2.66054">
        <ele>1202.75</ele>
        <time>2013-08-09T10:25:32Z</time>
      </trkpt>
      <trkpt lat="45.09139" lon="2.66065">
        <ele>1202.75</ele>
        <time>2013-08-09T10:25:39Z</time>
      </trkpt>
      <trkpt lat="45.09142" lon="2.66077">
        <ele>1202.75</ele>
        <time>2013-08-09T10:25:47Z</time>
      </trkpt>
      <trkpt lat="45.09146" lon="2.66097">
        <ele>1203.71</ele>
        <time>2013-08-09T10:26:00Z</time>
      </trkpt>
      <trkpt lat="45.09146" lon="2.661">
        <ele>1203.23</ele>
        <time>2013-08-09T10:26:02Z</time>
      </trkpt>
      <trkpt lat="45.09152" lon="2.66114">
        <ele>1204.19</ele>
        <time>2013-08-09T10:26:16Z</time>
      </trkpt>
      <trkpt lat="45.09152" lon="2.66114">
        <ele>1204.19</ele>
        <time>2013-08-09T10:26:17Z</time>
      </trkpt>
      <trkpt lat="45.09166" lon="2.66129">
        <ele>1203.23</ele>
        <time>2013-08-09T10:26:31Z</time>
      </trkpt>
      <trkpt lat="45.09178" lon="2.66142">
        <ele>1201.79</ele>
        <time>2013-08-09T10:26:44Z</time>
      </trkpt>
      <trkpt lat="45.0918" lon="2.66145">
        <ele>1201.3</ele>
        <time>2013-08-09T10:26:47Z</time>
      </trkpt>
      <trkpt lat="45.0919" lon="2.66149">
        <ele>1199.38</ele>
        <time>2013-08-09T10:26:56Z</time>
      </trkpt>
      <trkpt lat="45.09192" lon="2.66151">
        <ele>1199.38</ele>
        <time>2013-08-09T10:26:58Z</time>
      </trkpt>
      <trkpt lat="45.09196" lon="2.66158">
        <ele>1198.9</ele>
        <time>2013-08-09T10:27:03Z</time>
      </trkpt>
      <trkpt lat="45.09207" lon="2.66174">
        <ele>1196.98</ele>
        <time>2013-08-09T10:27:17Z</time>
      </trkpt>
      <trkpt lat="45.09213" lon="2.6618">
        <ele>1196.02</ele>
        <time>2013-08-09T10:27:24Z</time>
      </trkpt>
      <trkpt lat="45.09216" lon="2.66182">
        <ele>1196.02</ele>
        <time>2013-08-09T10:27:27Z</time>
      </trkpt>
      <trkpt lat="45.09232" lon="2.66193">
        <ele>1194.09</ele>
        <time>2013-08-09T10:27:41Z</time>
      </trkpt>
      <trkpt lat="45.0924" lon="2.66192">
        <ele>1192.17</ele>
        <time>2013-08-09T10:27:53Z</time>
      </trkpt>
      <trkpt lat="45.09245" lon="2.6619">
        <ele>1191.21</ele>
        <time>2013-08-09T10:28:01Z</time>
      </trkpt>
      <trkpt lat="45.09254" lon="2.66191">
        <ele>1190.73</ele>
        <time>2013-08-09T10:28:13Z</time>
      </trkpt>
      <trkpt lat="45.09256" lon="2.66193">
        <ele>1190.25</ele>
        <time>2013-08-09T10:28:16Z</time>
      </trkpt>
      <trkpt lat="45.09261" lon="2.66204">
        <ele>1189.77</ele>
        <time>2013-08-09T10:28:27Z</time>
      </trkpt>
      <trkpt lat="45.09255" lon="2.6622">
        <ele>1190.73</ele>
        <time>2013-08-09T10:28:39Z</time>
      </trkpt>
      <trkpt lat="45.0925" lon="2.66233">
        <ele>1192.65</ele>
        <time>2013-08-09T10:28:51Z</time>
      </trkpt>
      <trkpt lat="45.09249" lon="2.66249">
        <ele>1194.09</ele>
        <time>2013-08-09T10:29:04Z</time>
      </trkpt>
      <trkpt lat="45.09255" lon="2.66261">
        <ele>1195.06</ele>
        <time>2013-08-09T10:29:18Z</time>
      </trkpt>
      <trkpt lat="45.09259" lon="2.66265">
        <ele>1195.06</ele>
        <time>2013-08-09T10:29:23Z</time>
      </trkpt>
      <trkpt lat="45.09264" lon="2.6627">
        <ele>1195.54</ele>
        <time>2013-08-09T10:29:28Z</time>
      </trkpt>
      <trkpt lat="45.09267" lon="2.66272">
        <ele>1196.5</ele>
        <time>2013-08-09T10:29:31Z</time>
      </trkpt>
      <trkpt lat="45.09269" lon="2.66275">
        <ele>1195.54</ele>
        <time>2013-08-09T10:29:33Z</time>
      </trkpt>
      <trkpt lat="45.09272" lon="2.66279">
        <ele>1195.54</ele>
        <time>2013-08-09T10:29:37Z</time>
      </trkpt>
      <trkpt lat="45.09277" lon="2.66289">
        <ele>1196.02</ele>
        <time>2013-08-09T10:29:47Z</time>
      </trkpt>
      <trkpt lat="45.09279" lon="2.66292">
        <ele>1196.5</ele>
        <time>2013-08-09T10:29:50Z</time>
      </trkpt>
      <trkpt lat="45.09282" lon="2.66294">
        <ele>1196.98</ele>
        <time>2013-08-09T10:29:53Z</time>
      </trkpt>
      <trkpt lat="45.09284" lon="2.66298">
        <ele>1196.98</ele>
        <time>2013-08-09T10:29:56Z</time>
      </trkpt>
      <trkpt lat="45.09289" lon="2.66303">
        <ele>1197.46</ele>
        <time>2013-08-09T10:30:03Z</time>
      </trkpt>
      <trkpt lat="45.09294" lon="2.66307">
        <ele>1197.94</ele>
        <time>2013-08-09T10:30:09Z</time>
      </trkpt>
      <trkpt lat="45.09296" lon="2.66312">
        <ele>1197.94</ele>
        <time>2013-08-09T10:30:14Z</time>
      </trkpt>
      <trkpt lat="45.09298" lon="2.66314">
        <ele>1198.42</ele>
        <time>2013-08-09T10:30:16Z</time>
      </trkpt>
      <trkpt lat="45.09299" lon="2.66316">
        <ele>1198.42</ele>
        <time>2013-08-09T10:30:18Z</time>
      </trkpt>
      <trkpt lat="45.093" lon="2.66321">
        <ele>1198.9</ele>
        <time>2013-08-09T10:30:22Z</time>
      </trkpt>
      <trkpt lat="45.09303" lon="2.66329">
        <ele>1198.9</ele>
        <time>2013-08-09T10:30:28Z</time>
      </trkpt>
      <trkpt lat="45.09304" lon="2.66333">
        <ele>1198.9</ele>
        <time>2013-08-09T10:30:32Z</time>
      </trkpt>
      <trkpt lat="45.09307" lon="2.66342">
        <ele>1199.38</ele>
        <time>2013-08-09T10:30:39Z</time>
      </trkpt>
      <trkpt lat="45.09311" lon="2.66358">
        <ele>1198.9</ele>
        <time>2013-08-09T10:30:50Z</time>
      </trkpt>
      <trkpt lat="45.09314" lon="2.66366">
        <ele>1199.86</ele>
        <time>2013-08-09T10:30:56Z</time>
      </trkpt>
      <trkpt lat="45.0932" lon="2.6638">
        <ele>1200.82</ele>
        <time>2013-08-09T10:31:09Z</time>
      </trkpt>
      <trkpt lat="45.09323" lon="2.66398">
        <ele>1201.3</ele>
        <time>2013-08-09T10:31:22Z</time>
      </trkpt>
      <trkpt lat="45.09327" lon="2.66412">
        <ele>1201.79</ele>
        <time>2013-08-09T10:31:33Z</time>
      </trkpt>
      <trkpt lat="45.09327" lon="2.66413">
        <ele>1201.79</ele>
        <time>2013-08-09T10:31:39Z</time>
      </trkpt>
      <trkpt lat="45.09329" lon="2.6642">
        <ele>1201.79</ele>
        <time>2013-08-09T10:31:44Z</time>
      </trkpt>
      <trkpt lat="45.09333" lon="2.66439">
        <ele>1202.27</ele>
        <time>2013-08-09T10:31:58Z</time>
      </trkpt>
      <trkpt lat="45.09334" lon="2.66453">
        <ele>1202.75</ele>
        <time>2013-08-09T10:32:09Z</time>
      </trkpt>
      <trkpt lat="45.09334" lon="2.66454">
        <ele>1203.23</ele>
        <time>2013-08-09T10:32:10Z</time>
      </trkpt>
      <trkpt lat="45.09335" lon="2.66457">
        <ele>1203.71</ele>
        <time>2013-08-09T10:32:12Z</time>
      </trkpt>
      <trkpt lat="45.09336" lon="2.66465">
        <ele>1203.71</ele>
        <time>2013-08-09T10:32:18Z</time>
      </trkpt>
      <trkpt lat="45.09339" lon="2.66473">
        <ele>1204.67</ele>
        <time>2013-08-09T10:32:25Z</time>
      </trkpt>
      <trkpt lat="45.09341" lon="2.66475">
        <ele>1204.19</ele>
        <time>2013-08-09T10:32:27Z</time>
      </trkpt>
      <trkpt lat="45.09346" lon="2.66478">
        <ele>1203.71</ele>
        <time>2013-08-09T10:32:34Z</time>
      </trkpt>
      <trkpt lat="45.09349" lon="2.66477">
        <ele>1203.23</ele>
        <time>2013-08-09T10:32:37Z</time>
      </trkpt>
      <trkpt lat="45.09355" lon="2.66475">
        <ele>1205.63</ele>
        <time>2013-08-09T10:32:45Z</time>
      </trkpt>
      <trkpt lat="45.09358" lon="2.66473">
        <ele>1206.59</ele>
        <time>2013-08-09T10:32:50Z</time>
      </trkpt>
      <trkpt lat="45.09366" lon="2.6647">
        <ele>1209.96</ele>
        <time>2013-08-09T10:33:00Z</time>
      </trkpt>
      <trkpt lat="45.09368" lon="2.66467">
        <ele>1210.92</ele>
        <time>2013-08-09T10:33:04Z</time>
      </trkpt>
      <trkpt lat="45.09376" lon="2.66459">
        <ele>1212.36</ele>
        <time>2013-08-09T10:33:16Z</time>
      </trkpt>
      <trkpt lat="45.09383" lon="2.66453">
        <ele>1214.28</ele>
        <time>2013-08-09T10:33:27Z</time>
      </trkpt>
      <trkpt lat="45.09384" lon="2.66451">
        <ele>1214.76</ele>
        <time>2013-08-09T10:33:30Z</time>
      </trkpt>
      <trkpt lat="45.09393" lon="2.66447">
        <ele>1217.65</ele>
        <time>2013-08-09T10:33:42Z</time>
      </trkpt>
      <trkpt lat="45.09402" lon="2.66442">
        <ele>1219.57</ele>
        <time>2013-08-09T10:33:53Z</time>
      </trkpt>
      <trkpt lat="45.09406" lon="2.66433">
        <ele>1222.45</ele>
        <time>2013-08-09T10:34:06Z</time>
      </trkpt>
      <trkpt lat="45.09407" lon="2.6643">
        <ele>1222.93</ele>
        <time>2013-08-09T10:34:09Z</time>
      </trkpt>
      <trkpt lat="45.09406" lon="2.66424">
        <ele>1224.38</ele>
        <time>2013-08-09T10:34:16Z</time>
      </trkpt>
      <trkpt lat="45.09406" lon="2.66411">
        <ele>1226.3</ele>
        <time>2013-08-09T10:34:29Z</time>
      </trkpt>
      <trkpt lat="45.09405" lon="2.66405">
        <ele>1226.78</ele>
        <time>2013-08-09T10:34:35Z</time>
      </trkpt>
      <trkpt lat="45.09403" lon="2.66395">
        <ele>1227.74</ele>
        <time>2013-08-09T10:34:47Z</time>
      </trkpt>
      <trkpt lat="45.09403" lon="2.66393">
        <ele>1227.26</ele>
        <time>2013-08-09T10:34:59Z</time>
      </trkpt>
      <trkpt lat="45.09403" lon="2.66393">
        <ele>1227.74</ele>
        <time>2013-08-09T10:35:28Z</time>
      </trkpt>
      <trkpt lat="45.09403" lon="2.66394">
        <ele>1227.74</ele>
        <time>2013-08-09T10:35:45Z</time>
      </trkpt>
      <trkpt lat="45.09403" lon="2.66393">
        <ele>1227.26</ele>
        <time>2013-08-09T10:36:11Z</time>
      </trkpt>
      <trkpt lat="45.09403" lon="2.66393">
        <ele>1227.26</ele>
        <time>2013-08-09T10:36:44Z</time>
      </trkpt>
      <trkpt lat="45.09402" lon="2.66392">
        <ele>1227.26</ele>
        <time>2013-08-09T10:37:17Z</time>
      </trkpt>
      <trkpt lat="45.09402" lon="2.66392">
        <ele>1227.74</ele>
        <time>2013-08-09T10:37:45Z</time>
      </trkpt>
      <trkpt lat="45.09402" lon="2.66392">
        <ele>1228.22</ele>
        <time>2013-08-09T10:38:24Z</time>
      </trkpt>
      <trkpt lat="45.09402" lon="2.66392">
        <ele>1228.7</ele>
        <time>2013-08-09T10:38:57Z</time>
      </trkpt>
      <trkpt lat="45.09403" lon="2.66392">
        <ele>1228.22</ele>
        <time>2013-08-09T10:39:18Z</time>
      </trkpt>
      <trkpt lat="45.09402" lon="2.66393">
        <ele>1228.7</ele>
        <time>2013-08-09T10:39:48Z</time>
      </trkpt>
      <trkpt lat="45.09402" lon="2.66393">
        <ele>1228.22</ele>
        <time>2013-08-09T10:40:18Z</time>
      </trkpt>
      <trkpt lat="45.09402" lon="2.66393">
        <ele>1228.22</ele>
        <time>2013-08-09T10:40:51Z</time>
      </trkpt>
      <trkpt lat="45.09402" lon="2.66393">
        <ele>1228.22</ele>
        <time>2013-08-09T10:41:16Z</time>
      </trkpt>
      <trkpt lat="45.09402" lon="2.66394">
        <ele>1228.22</ele>
        <time>2013-08-09T10:41:36Z</time>
      </trkpt>
      <trkpt lat="45.09403" lon="2.66393">
        <ele>1228.22</ele>
        <time>2013-08-09T10:42:08Z</time>
      </trkpt>
      <trkpt lat="45.09403" lon="2.66393">
        <ele>1228.22</ele>
        <time>2013-08-09T10:42:46Z</time>
      </trkpt>
      <trkpt lat="45.09402" lon="2.66394">
        <ele>1228.22</ele>
        <time>2013-08-09T10:43:19Z</time>
      </trkpt>
      <trkpt lat="45.09403" lon="2.66394">
        <ele>1227.74</ele>
        <time>2013-08-09T10:43:50Z</time>
      </trkpt>
      <trkpt lat="45.09403" lon="2.66394">
        <ele>1228.22</ele>
        <time>2013-08-09T10:44:20Z</time>
      </trkpt>
      <trkpt lat="45.09403" lon="2.66395">
        <ele>1228.7</ele>
        <time>2013-08-09T10:44:48Z</time>
      </trkpt>
      <trkpt lat="45.09403" lon="2.66395">
        <ele>1229.18</ele>
        <time>2013-08-09T10:45:25Z</time>
      </trkpt>
      <trkpt lat="45.09403" lon="2.66395">
        <ele>1230.14</ele>
        <time>2013-08-09T10:45:55Z</time>
      </trkpt>
      <trkpt lat="45.09403" lon="2.66395">
        <ele>1229.66</ele>
        <time>2013-08-09T10:46:30Z</time>
      </trkpt>
      <trkpt lat="45.09403" lon="2.66395">
        <ele>1229.66</ele>
        <time>2013-08-09T10:47:03Z</time>
      </trkpt>
      <trkpt lat="45.09403" lon="2.66395">
        <ele>1229.66</ele>
        <time>2013-08-09T10:47:34Z</time>
      </trkpt>
      <trkpt lat="45.09403" lon="2.66395">
        <ele>1229.66</ele>
        <time>2013-08-09T10:48:06Z</time>
      </trkpt>
      <trkpt lat="45.09403" lon="2.66395">
        <ele>1229.18</ele>
        <time>2013-08-09T10:48:42Z</time>
      </trkpt>
      <trkpt lat="45.09403" lon="2.66395">
        <ele>1229.66</ele>
        <time>2013-08-09T10:49:13Z</time>
      </trkpt>
      <trkpt lat="45.09403" lon="2.66395">
        <ele>1229.66</ele>
        <time>2013-08-09T10:49:39Z</time>
      </trkpt>
      <trkpt lat="45.09403" lon="2.66395">
        <ele>1230.62</ele>
        <time>2013-08-09T10:50:13Z</time>
      </trkpt>
      <trkpt lat="45.09403" lon="2.66394">
        <ele>1230.62</ele>
        <time>2013-08-09T10:50:41Z</time>
      </trkpt>
      <trkpt lat="45.09402" lon="2.66394">
        <ele>1230.62</ele>
        <time>2013-08-09T10:51:17Z</time>
      </trkpt>
      <trkpt lat="45.09402" lon="2.66395">
        <ele>1230.62</ele>
        <time>2013-08-09T10:51:48Z</time>
      </trkpt>
      <trkpt lat="45.09402" lon="2.66395">
        <ele>1231.59</ele>
        <time>2013-08-09T10:52:18Z</time>
      </trkpt>
      <trkpt lat="45.09402" lon="2.66395">
        <ele>1231.59</ele>
        <time>2013-08-09T10:52:50Z</time>
      </trkpt>
      <trkpt lat="45.09402" lon="2.66395">
        <ele>1232.07</ele>
        <time>2013-08-09T10:53:21Z</time>
      </trkpt>
      <trkpt lat="45.09402" lon="2.66395">
        <ele>1232.07</ele>
        <time>2013-08-09T10:53:52Z</time>
      </trkpt>
      <trkpt lat="45.09402" lon="2.66395">
        <ele>1232.07</ele>
        <time>2013-08-09T10:54:26Z</time>
      </trkpt>
      <trkpt lat="45.09402" lon="2.66395">
        <ele>1232.07</ele>
        <time>2013-08-09T10:54:59Z</time>
      </trkpt>
      <trkpt lat="45.09402" lon="2.66395">
        <ele>1233.51</ele>
        <time>2013-08-09T10:55:33Z</time>
      </trkpt>
      <trkpt lat="45.09402" lon="2.66396">
        <ele>1232.55</ele>
        <time>2013-08-09T10:56:15Z</time>
      </trkpt>
      <trkpt lat="45.09402" lon="2.66396">
        <ele>1233.03</ele>
        <time>2013-08-09T10:56:50Z</time>
      </trkpt>
      <trkpt lat="45.09401" lon="2.66396">
        <ele>1232.55</ele>
        <time>2013-08-09T10:57:26Z</time>
      </trkpt>
      <trkpt lat="45.09401" lon="2.66397">
        <ele>1232.55</ele>
        <time>2013-08-09T10:58:00Z</time>
      </trkpt>
      <trkpt lat="45.09401" lon="2.66397">
        <ele>1233.03</ele>
        <time>2013-08-09T10:58:28Z</time>
      </trkpt>
      <trkpt lat="45.09401" lon="2.66397">
        <ele>1233.03</ele>
        <time>2013-08-09T10:59:02Z</time>
      </trkpt>
      <trkpt lat="45.09401" lon="2.66397">
        <ele>1233.03</ele>
        <time>2013-08-09T10:59:31Z</time>
      </trkpt>
      <trkpt lat="45.09401" lon="2.66397">
        <ele>1233.51</ele>
        <time>2013-08-09T11:00:02Z</time>
      </trkpt>
      <trkpt lat="45.09401" lon="2.66398">
        <ele>1233.99</ele>
        <time>2013-08-09T11:00:35Z</time>
      </trkpt>
      <trkpt lat="45.09401" lon="2.66398">
        <ele>1233.51</ele>
        <time>2013-08-09T11:01:07Z</time>
      </trkpt>
      <trkpt lat="45.09401" lon="2.66398">
        <ele>1233.99</ele>
        <time>2013-08-09T11:01:38Z</time>
      </trkpt>
      <trkpt lat="45.09401" lon="2.66398">
        <ele>1234.47</ele>
        <time>2013-08-09T11:02:07Z</time>
      </trkpt>
      <trkpt lat="45.09401" lon="2.66398">
        <ele>1233.99</ele>
        <time>2013-08-09T11:02:32Z</time>
      </trkpt>
      <trkpt lat="45.094" lon="2.66399">
        <ele>1234.47</ele>
        <time>2013-08-09T11:03:01Z</time>
      </trkpt>
      <trkpt lat="45.094" lon="2.664">
        <ele>1234.95</ele>
        <time>2013-08-09T11:03:28Z</time>
      </trkpt>
      <trkpt lat="45.094" lon="2.664">
        <ele>1234.95</ele>
        <time>2013-08-09T11:04:00Z</time>
      </trkpt>
      <trkpt lat="45.094" lon="2.664">
        <ele>1234.95</ele>
        <time>2013-08-09T11:04:31Z</time>
      </trkpt>
      <trkpt lat="45.094" lon="2.664">
        <ele>1235.43</ele>
        <time>2013-08-09T11:05:06Z</time>
      </trkpt>
      <trkpt lat="45.094" lon="2.664">
        <ele>1235.43</ele>
        <time>2013-08-09T11:05:41Z</time>
      </trkpt>
      <trkpt lat="45.094" lon="2.66401">
        <ele>1235.43</ele>
        <time>2013-08-09T11:06:16Z</time>
      </trkpt>
      <trkpt lat="45.094" lon="2.66401">
        <ele>1235.43</ele>
        <time>2013-08-09T11:06:50Z</time>
      </trkpt>
      <trkpt lat="45.094" lon="2.66401">
        <ele>1235.91</ele>
        <time>2013-08-09T11:07:23Z</time>
      </trkpt>
      <trkpt lat="45.094" lon="2.66402">
        <ele>1235.91</ele>
        <time>2013-08-09T11:07:56Z</time>
      </trkpt>
      <trkpt lat="45.09401" lon="2.66402">
        <ele>1236.39</ele>
        <time>2013-08-09T11:08:30Z</time>
      </trkpt>
      <trkpt lat="45.09401" lon="2.66402">
        <ele>1236.39</ele>
        <time>2013-08-09T11:08:57Z</time>
      </trkpt>
      <trkpt lat="45.09401" lon="2.66398">
        <ele>1236.39</ele>
        <time>2013-08-09T11:09:11Z</time>
      </trkpt>
      <trkpt lat="45.09401" lon="2.66398">
        <ele>1236.39</ele>
        <time>2013-08-09T11:09:40Z</time>
      </trkpt>
      <trkpt lat="45.09401" lon="2.66398">
        <ele>1236.39</ele>
        <time>2013-08-09T11:10:07Z</time>
      </trkpt>
      <trkpt lat="45.09401" lon="2.66397">
        <ele>1236.39</ele>
        <time>2013-08-09T11:10:35Z</time>
      </trkpt>
      <trkpt lat="45.09399" lon="2.66397">
        <ele>1236.39</ele>
        <time>2013-08-09T11:10:56Z</time>
      </trkpt>
      <trkpt lat="45.09401" lon="2.66398">
        <ele>1236.87</ele>
        <time>2013-08-09T11:11:03Z</time>
      </trkpt>
      <trkpt lat="45.094" lon="2.66399">
        <ele>1237.35</ele>
        <time>2013-08-09T11:11:06Z</time>
      </trkpt>
      <trkpt lat="45.09398" lon="2.66399">
        <ele>1239.76</ele>
        <time>2013-08-09T11:11:08Z</time>
      </trkpt>
      <trkpt lat="45.09397" lon="2.66401">
        <ele>1237.35</ele>
        <time>2013-08-09T11:11:21Z</time>
      </trkpt>
      <trkpt lat="45.09397" lon="2.664">
        <ele>1237.35</ele>
        <time>2013-08-09T11:11:37Z</time>
      </trkpt>
      <trkpt lat="45.09398" lon="2.66399">
        <ele>1237.83</ele>
        <time>2013-08-09T11:12:02Z</time>
      </trkpt>
      <trkpt lat="45.09399" lon="2.66399">
        <ele>1237.83</ele>
        <time>2013-08-09T11:12:22Z</time>
      </trkpt>
      <trkpt lat="45.094" lon="2.66399">
        <ele>1237.83</ele>
        <time>2013-08-09T11:12:38Z</time>
      </trkpt>
      <trkpt lat="45.094" lon="2.66397">
        <ele>1237.83</ele>
        <time>2013-08-09T11:12:55Z</time>
      </trkpt>
      <trkpt lat="45.094" lon="2.66397">
        <ele>1237.83</ele>
        <time>2013-08-09T11:13:20Z</time>
      </trkpt>
      <trkpt lat="45.094" lon="2.66396">
        <ele>1237.83</ele>
        <time>2013-08-09T11:13:34Z</time>
      </trkpt>
      <trkpt lat="45.09399" lon="2.66392">
        <ele>1238.8</ele>
        <time>2013-08-09T11:13:56Z</time>
      </trkpt>
      <trkpt lat="45.09397" lon="2.66378">
        <ele>1239.76</ele>
        <time>2013-08-09T11:14:09Z</time>
      </trkpt>
      <trkpt lat="45.09397" lon="2.66365">
        <ele>1242.16</ele>
        <time>2013-08-09T11:14:24Z</time>
      </trkpt>
      <trkpt lat="45.09401" lon="2.66352">
        <ele>1244.08</ele>
        <time>2013-08-09T11:14:38Z</time>
      </trkpt>
      <trkpt lat="45.09402" lon="2.66344">
        <ele>1246.49</ele>
        <time>2013-08-09T11:14:48Z</time>
      </trkpt>
      <trkpt lat="45.09405" lon="2.66329">
        <ele>1249.37</ele>
        <time>2013-08-09T11:15:02Z</time>
      </trkpt>
      <trkpt lat="45.0941" lon="2.66319">
        <ele>1251.29</ele>
        <time>2013-08-09T11:15:16Z</time>
      </trkpt>
      <trkpt lat="45.09413" lon="2.66322">
        <ele>1252.74</ele>
        <time>2013-08-09T11:15:22Z</time>
      </trkpt>
      <trkpt lat="45.09423" lon="2.66329">
        <ele>1255.14</ele>
        <time>2013-08-09T11:15:36Z</time>
      </trkpt>
      <trkpt lat="45.0943" lon="2.66338">
        <ele>1256.58</ele>
        <time>2013-08-09T11:15:49Z</time>
      </trkpt>
      <trkpt lat="45.09434" lon="2.66346">
        <ele>1258.98</ele>
        <time>2013-08-09T11:16:02Z</time>
      </trkpt>
      <trkpt lat="45.09442" lon="2.66351">
        <ele>1260.91</ele>
        <time>2013-08-09T11:16:16Z</time>
      </trkpt>
      <trkpt lat="45.09449" lon="2.66357">
        <ele>1262.83</ele>
        <time>2013-08-09T11:16:28Z</time>
      </trkpt>
      <trkpt lat="45.09457" lon="2.66363">
        <ele>1264.27</ele>
        <time>2013-08-09T11:16:41Z</time>
      </trkpt>
      <trkpt lat="45.09463" lon="2.66367">
        <ele>1265.23</ele>
        <time>2013-08-09T11:16:53Z</time>
      </trkpt>
      <trkpt lat="45.09465" lon="2.66367">
        <ele>1265.71</ele>
        <time>2013-08-09T11:16:56Z</time>
      </trkpt>
      <trkpt lat="45.09474" lon="2.66367">
        <ele>1267.64</ele>
        <time>2013-08-09T11:17:09Z</time>
      </trkpt>
      <trkpt lat="45.09482" lon="2.66365">
        <ele>1269.56</ele>
        <time>2013-08-09T11:17:22Z</time>
      </trkpt>
      <trkpt lat="45.09487" lon="2.66361">
        <ele>1271</ele>
        <time>2013-08-09T11:17:33Z</time>
      </trkpt>
      <trkpt lat="45.0949" lon="2.66359">
        <ele>1272.92</ele>
        <time>2013-08-09T11:17:46Z</time>
      </trkpt>
      <trkpt lat="45.09498" lon="2.66352">
        <ele>1275.81</ele>
        <time>2013-08-09T11:18:01Z</time>
      </trkpt>
      <trkpt lat="45.09508" lon="2.66343">
        <ele>1278.21</ele>
        <time>2013-08-09T11:18:16Z</time>
      </trkpt>
      <trkpt lat="45.09518" lon="2.66334">
        <ele>1280.13</ele>
        <time>2013-08-09T11:18:27Z</time>
      </trkpt>
      <trkpt lat="45.09526" lon="2.66324">
        <ele>1282.54</ele>
        <time>2013-08-09T11:18:40Z</time>
      </trkpt>
      <trkpt lat="45.09538" lon="2.66311">
        <ele>1283.98</ele>
        <time>2013-08-09T11:18:53Z</time>
      </trkpt>
      <trkpt lat="45.09547" lon="2.66304">
        <ele>1285.42</ele>
        <time>2013-08-09T11:19:08Z</time>
      </trkpt>
      <trkpt lat="45.09556" lon="2.66292">
        <ele>1285.42</ele>
        <time>2013-08-09T11:19:21Z</time>
      </trkpt>
      <trkpt lat="45.09564" lon="2.66282">
        <ele>1285.42</ele>
        <time>2013-08-09T11:19:33Z</time>
      </trkpt>
      <trkpt lat="45.09574" lon="2.66276">
        <ele>1285.9</ele>
        <time>2013-08-09T11:19:46Z</time>
      </trkpt>
      <trkpt lat="45.09581" lon="2.66267">
        <ele>1288.3</ele>
        <time>2013-08-09T11:19:57Z</time>
      </trkpt>
      <trkpt lat="45.09587" lon="2.66259">
        <ele>1289.75</ele>
        <time>2013-08-09T11:20:09Z</time>
      </trkpt>
      <trkpt lat="45.09594" lon="2.66252">
        <ele>1291.19</ele>
        <time>2013-08-09T11:20:21Z</time>
      </trkpt>
      <trkpt lat="45.09607" lon="2.66239">
        <ele>1292.15</ele>
        <time>2013-08-09T11:20:34Z</time>
      </trkpt>
      <trkpt lat="45.09614" lon="2.66229">
        <ele>1294.07</ele>
        <time>2013-08-09T11:20:47Z</time>
      </trkpt>
      <trkpt lat="45.09616" lon="2.6622">
        <ele>1296.48</ele>
        <time>2013-08-09T11:21:02Z</time>
      </trkpt>
      <trkpt lat="45.09618" lon="2.66205">
        <ele>1298.88</ele>
        <time>2013-08-09T11:21:13Z</time>
      </trkpt>
      <trkpt lat="45.09615" lon="2.662">
        <ele>1300.32</ele>
        <time>2013-08-09T11:21:20Z</time>
      </trkpt>
      <trkpt lat="45.09605" lon="2.66198">
        <ele>1302.24</ele>
        <time>2013-08-09T11:21:30Z</time>
      </trkpt>
      <trkpt lat="45.096" lon="2.66201">
        <ele>1305.13</ele>
        <time>2013-08-09T11:21:43Z</time>
      </trkpt>
      <trkpt lat="45.09602" lon="2.66197">
        <ele>1307.53</ele>
        <time>2013-08-09T11:21:54Z</time>
      </trkpt>
      <trkpt lat="45.09604" lon="2.66195">
        <ele>1308.01</ele>
        <time>2013-08-09T11:21:57Z</time>
      </trkpt>
      <trkpt lat="45.09606" lon="2.66192">
        <ele>1308.01</ele>
        <time>2013-08-09T11:21:59Z</time>
      </trkpt>
      <trkpt lat="45.09617" lon="2.66181">
        <ele>1308.97</ele>
        <time>2013-08-09T11:22:14Z</time>
      </trkpt>
      <trkpt lat="45.09628" lon="2.66169">
        <ele>1309.45</ele>
        <time>2013-08-09T11:22:28Z</time>
      </trkpt>
      <trkpt lat="45.09636" lon="2.66156">
        <ele>1310.41</ele>
        <time>2013-08-09T11:22:41Z</time>
      </trkpt>
      <trkpt lat="45.0964" lon="2.6615">
        <ele>1310.9</ele>
        <time>2013-08-09T11:22:47Z</time>
      </trkpt>
      <trkpt lat="45.09643" lon="2.66145">
        <ele>1310.9</ele>
        <time>2013-08-09T11:22:52Z</time>
      </trkpt>
      <trkpt lat="45.09649" lon="2.66135">
        <ele>1311.86</ele>
        <time>2013-08-09T11:23:05Z</time>
      </trkpt>
      <trkpt lat="45.09652" lon="2.66133">
        <ele>1312.34</ele>
        <time>2013-08-09T11:23:10Z</time>
      </trkpt>
      <trkpt lat="45.09654" lon="2.6613">
        <ele>1312.82</ele>
        <time>2013-08-09T11:23:13Z</time>
      </trkpt>
      <trkpt lat="45.09661" lon="2.6612">
        <ele>1312.82</ele>
        <time>2013-08-09T11:23:26Z</time>
      </trkpt>
      <trkpt lat="45.09669" lon="2.66114">
        <ele>1312.82</ele>
        <time>2013-08-09T11:23:37Z</time>
      </trkpt>
      <trkpt lat="45.0967" lon="2.66113">
        <ele>1312.82</ele>
        <time>2013-08-09T11:23:38Z</time>
      </trkpt>
      <trkpt lat="45.09683" lon="2.661">
        <ele>1313.3</ele>
        <time>2013-08-09T11:23:54Z</time>
      </trkpt>
      <trkpt lat="45.09689" lon="2.66095">
        <ele>1313.78</ele>
        <time>2013-08-09T11:24:02Z</time>
      </trkpt>
      <trkpt lat="45.09699" lon="2.66081">
        <ele>1315.22</ele>
        <time>2013-08-09T11:24:16Z</time>
      </trkpt>
      <trkpt lat="45.09703" lon="2.66072">
        <ele>1316.18</ele>
        <time>2013-08-09T11:24:31Z</time>
      </trkpt>
      <trkpt lat="45.09707" lon="2.66076">
        <ele>1316.18</ele>
        <time>2013-08-09T11:24:58Z</time>
      </trkpt>
      <trkpt lat="45.09708" lon="2.66075">
        <ele>1316.66</ele>
        <time>2013-08-09T11:25:03Z</time>
      </trkpt>
      <trkpt lat="45.09717" lon="2.6607">
        <ele>1318.1</ele>
        <time>2013-08-09T11:25:15Z</time>
      </trkpt>
      <trkpt lat="45.09727" lon="2.66069">
        <ele>1318.59</ele>
        <time>2013-08-09T11:25:22Z</time>
      </trkpt>
      <trkpt lat="45.09741" lon="2.66065">
        <ele>1320.51</ele>
        <time>2013-08-09T11:25:37Z</time>
      </trkpt>
      <trkpt lat="45.09747" lon="2.66058">
        <ele>1320.99</ele>
        <time>2013-08-09T11:25:49Z</time>
      </trkpt>
      <trkpt lat="45.09755" lon="2.66043">
        <ele>1324.35</ele>
        <time>2013-08-09T11:26:05Z</time>
      </trkpt>
      <trkpt lat="45.09765" lon="2.66036">
        <ele>1326.28</ele>
        <time>2013-08-09T11:26:18Z</time>
      </trkpt>
      <trkpt lat="45.09769" lon="2.66032">
        <ele>1329.64</ele>
        <time>2013-08-09T11:26:30Z</time>
      </trkpt>
      <trkpt lat="45.09769" lon="2.66027">
        <ele>1333.01</ele>
        <time>2013-08-09T11:26:44Z</time>
      </trkpt>
      <trkpt lat="45.09771" lon="2.6602">
        <ele>1335.89</ele>
        <time>2013-08-09T11:26:58Z</time>
      </trkpt>
      <trkpt lat="45.09773" lon="2.6601">
        <ele>1338.29</ele>
        <time>2013-08-09T11:27:11Z</time>
      </trkpt>
      <trkpt lat="45.09778" lon="2.66">
        <ele>1341.66</ele>
        <time>2013-08-09T11:27:23Z</time>
      </trkpt>
      <trkpt lat="45.09783" lon="2.65993">
        <ele>1345.5</ele>
        <time>2013-08-09T11:27:37Z</time>
      </trkpt>
      <trkpt lat="45.09784" lon="2.65987">
        <ele>1348.39</ele>
        <time>2013-08-09T11:27:53Z</time>
      </trkpt>
      <trkpt lat="45.09789" lon="2.65975">
        <ele>1351.27</ele>
        <time>2013-08-09T11:28:08Z</time>
      </trkpt>
      <trkpt lat="45.09794" lon="2.65969">
        <ele>1354.15</ele>
        <time>2013-08-09T11:28:23Z</time>
      </trkpt>
      <trkpt lat="45.09799" lon="2.65965">
        <ele>1356.08</ele>
        <time>2013-08-09T11:28:38Z</time>
      </trkpt>
      <trkpt lat="45.09806" lon="2.65958">
        <ele>1358</ele>
        <time>2013-08-09T11:28:55Z</time>
      </trkpt>
      <trkpt lat="45.09825" lon="2.65943">
        <ele>1358.96</ele>
        <time>2013-08-09T11:29:09Z</time>
      </trkpt>
      <trkpt lat="45.09837" lon="2.65939">
        <ele>1360.88</ele>
        <time>2013-08-09T11:29:22Z</time>
      </trkpt>
      <trkpt lat="45.09842" lon="2.65936">
        <ele>1363.77</ele>
        <time>2013-08-09T11:29:37Z</time>
      </trkpt>
      <trkpt lat="45.09844" lon="2.65934">
        <ele>1364.73</ele>
        <time>2013-08-09T11:29:53Z</time>
      </trkpt>
      <trkpt lat="45.09849" lon="2.65926">
        <ele>1366.65</ele>
        <time>2013-08-09T11:30:06Z</time>
      </trkpt>
      <trkpt lat="45.09866" lon="2.65921">
        <ele>1368.57</ele>
        <time>2013-08-09T11:30:20Z</time>
      </trkpt>
      <trkpt lat="45.09875" lon="2.65913">
        <ele>1370.98</ele>
        <time>2013-08-09T11:30:36Z</time>
      </trkpt>
      <trkpt lat="45.09884" lon="2.65914">
        <ele>1373.86</ele>
        <time>2013-08-09T11:30:51Z</time>
      </trkpt>
      <trkpt lat="45.09887" lon="2.65912">
        <ele>1377.23</ele>
        <time>2013-08-09T11:31:07Z</time>
      </trkpt>
      <trkpt lat="45.09889" lon="2.6591">
        <ele>1380.11</ele>
        <time>2013-08-09T11:31:21Z</time>
      </trkpt>
      <trkpt lat="45.09889" lon="2.65903">
        <ele>1382.99</ele>
        <time>2013-08-09T11:31:37Z</time>
      </trkpt>
      <trkpt lat="45.09892" lon="2.65897">
        <ele>1384.92</ele>
        <time>2013-08-09T11:31:50Z</time>
      </trkpt>
      <trkpt lat="45.09899" lon="2.65896">
        <ele>1385.4</ele>
        <time>2013-08-09T11:32:03Z</time>
      </trkpt>
      <trkpt lat="45.09905" lon="2.65896">
        <ele>1387.32</ele>
        <time>2013-08-09T11:32:14Z</time>
      </trkpt>
      <trkpt lat="45.09914" lon="2.65897">
        <ele>1388.76</ele>
        <time>2013-08-09T11:32:26Z</time>
      </trkpt>
      <trkpt lat="45.09927" lon="2.65894">
        <ele>1390.68</ele>
        <time>2013-08-09T11:32:41Z</time>
      </trkpt>
      <trkpt lat="45.09931" lon="2.65887">
        <ele>1392.61</ele>
        <time>2013-08-09T11:32:52Z</time>
      </trkpt>
      <trkpt lat="45.09934" lon="2.65884">
        <ele>1395.01</ele>
        <time>2013-08-09T11:33:06Z</time>
      </trkpt>
      <trkpt lat="45.09936" lon="2.65885">
        <ele>1395.49</ele>
        <time>2013-08-09T11:33:14Z</time>
      </trkpt>
      <trkpt lat="45.0994" lon="2.65887">
        <ele>1396.45</ele>
        <time>2013-08-09T11:33:23Z</time>
      </trkpt>
      <trkpt lat="45.09947" lon="2.65889">
        <ele>1397.41</ele>
        <time>2013-08-09T11:33:37Z</time>
      </trkpt>
      <trkpt lat="45.09949" lon="2.65889">
        <ele>1397.89</ele>
        <time>2013-08-09T11:33:50Z</time>
      </trkpt>
      <trkpt lat="45.0995" lon="2.6589">
        <ele>1396.93</ele>
        <time>2013-08-09T11:34:03Z</time>
      </trkpt>
      <trkpt lat="45.09949" lon="2.6589">
        <ele>1397.41</ele>
        <time>2013-08-09T11:34:15Z</time>
      </trkpt>
      <trkpt lat="45.09953" lon="2.65885">
        <ele>1399.34</ele>
        <time>2013-08-09T11:34:29Z</time>
      </trkpt>
      <trkpt lat="45.09958" lon="2.65886">
        <ele>1400.78</ele>
        <time>2013-08-09T11:34:40Z</time>
      </trkpt>
      <trkpt lat="45.09964" lon="2.65891">
        <ele>1402.22</ele>
        <time>2013-08-09T11:34:52Z</time>
      </trkpt>
      <trkpt lat="45.09965" lon="2.65889">
        <ele>1404.14</ele>
        <time>2013-08-09T11:35:00Z</time>
      </trkpt>
      <trkpt lat="45.09974" lon="2.65893">
        <ele>1406.07</ele>
        <time>2013-08-09T11:35:13Z</time>
      </trkpt>
      <trkpt lat="45.09976" lon="2.6589">
        <ele>1407.03</ele>
        <time>2013-08-09T11:35:22Z</time>
      </trkpt>
      <trkpt lat="45.09979" lon="2.65885">
        <ele>1410.39</ele>
        <time>2013-08-09T11:35:37Z</time>
      </trkpt>
      <trkpt lat="45.09983" lon="2.65883">
        <ele>1412.79</ele>
        <time>2013-08-09T11:35:48Z</time>
      </trkpt>
      <trkpt lat="45.09983" lon="2.65876">
        <ele>1415.2</ele>
        <time>2013-08-09T11:36:04Z</time>
      </trkpt>
      <trkpt lat="45.09988" lon="2.65872">
        <ele>1417.6</ele>
        <time>2013-08-09T11:36:18Z</time>
      </trkpt>
      <trkpt lat="45.09992" lon="2.65871">
        <ele>1420</ele>
        <time>2013-08-09T11:36:30Z</time>
      </trkpt>
      <trkpt lat="45.09999" lon="2.65877">
        <ele>1422.89</ele>
        <time>2013-08-09T11:36:43Z</time>
      </trkpt>
      <trkpt lat="45.10006" lon="2.65882">
        <ele>1424.81</ele>
        <time>2013-08-09T11:36:56Z</time>
      </trkpt>
      <trkpt lat="45.1001" lon="2.65881">
        <ele>1427.21</ele>
        <time>2013-08-09T11:37:09Z</time>
      </trkpt>
      <trkpt lat="45.10013" lon="2.65881">
        <ele>1430.1</ele>
        <time>2013-08-09T11:37:23Z</time>
      </trkpt>
      <trkpt lat="45.1002" lon="2.65878">
        <ele>1432.5</ele>
        <time>2013-08-09T11:37:36Z</time>
      </trkpt>
      <trkpt lat="45.10025" lon="2.65874">
        <ele>1434.42</ele>
        <time>2013-08-09T11:37:47Z</time>
      </trkpt>
      <trkpt lat="45.10021" lon="2.65872">
        <ele>1436.83</ele>
        <time>2013-08-09T11:37:58Z</time>
      </trkpt>
      <trkpt lat="45.1002" lon="2.65863">
        <ele>1439.23</ele>
        <time>2013-08-09T11:38:09Z</time>
      </trkpt>
      <trkpt lat="45.10021" lon="2.65857">
        <ele>1441.63</ele>
        <time>2013-08-09T11:38:21Z</time>
      </trkpt>
      <trkpt lat="45.10024" lon="2.65856">
        <ele>1444.04</ele>
        <time>2013-08-09T11:38:34Z</time>
      </trkpt>
      <trkpt lat="45.10029" lon="2.65847">
        <ele>1446.44</ele>
        <time>2013-08-09T11:38:47Z</time>
      </trkpt>
      <trkpt lat="45.10032" lon="2.65844">
        <ele>1448.84</ele>
        <time>2013-08-09T11:39:00Z</time>
      </trkpt>
      <trkpt lat="45.10036" lon="2.65836">
        <ele>1451.25</ele>
        <time>2013-08-09T11:39:10Z</time>
      </trkpt>
      <trkpt lat="45.10041" lon="2.65834">
        <ele>1453.17</ele>
        <time>2013-08-09T11:39:22Z</time>
      </trkpt>
      <trkpt lat="45.10042" lon="2.65834">
        <ele>1453.65</ele>
        <time>2013-08-09T11:39:23Z</time>
      </trkpt>
      <trkpt lat="45.10045" lon="2.65829">
        <ele>1455.09</ele>
        <time>2013-08-09T11:39:35Z</time>
      </trkpt>
      <trkpt lat="45.10049" lon="2.65818">
        <ele>1456.53</ele>
        <time>2013-08-09T11:39:48Z</time>
      </trkpt>
      <trkpt lat="45.10052" lon="2.65815">
        <ele>1457.98</ele>
        <time>2013-08-09T11:40:03Z</time>
      </trkpt>
      <trkpt lat="45.10051" lon="2.65815">
        <ele>1457.5</ele>
        <time>2013-08-09T11:40:32Z</time>
      </trkpt>
      <trkpt lat="45.10052" lon="2.65815">
        <ele>1457.98</ele>
        <time>2013-08-09T11:40:59Z</time>
      </trkpt>
      <trkpt lat="45.10052" lon="2.65815">
        <ele>1457.5</ele>
        <time>2013-08-09T11:41:24Z</time>
      </trkpt>
      <trkpt lat="45.10052" lon="2.65815">
        <ele>1457.98</ele>
        <time>2013-08-09T11:41:46Z</time>
      </trkpt>
      <trkpt lat="45.10056" lon="2.65812">
        <ele>1458.46</ele>
        <time>2013-08-09T11:41:59Z</time>
      </trkpt>
      <trkpt lat="45.10057" lon="2.65812">
        <ele>1458.94</ele>
        <time>2013-08-09T11:42:13Z</time>
      </trkpt>
      <trkpt lat="45.10058" lon="2.65811">
        <ele>1458.46</ele>
        <time>2013-08-09T11:42:36Z</time>
      </trkpt>
      <trkpt lat="45.10059" lon="2.65811">
        <ele>1458.94</ele>
        <time>2013-08-09T11:42:37Z</time>
      </trkpt>
      <trkpt lat="45.10062" lon="2.65805">
        <ele>1461.34</ele>
        <time>2013-08-09T11:42:49Z</time>
      </trkpt>
      <trkpt lat="45.10062" lon="2.65805">
        <ele>1461.82</ele>
        <time>2013-08-09T11:43:14Z</time>
      </trkpt>
      <trkpt lat="45.10066" lon="2.658">
        <ele>1464.23</ele>
        <time>2013-08-09T11:43:33Z</time>
      </trkpt>
      <trkpt lat="45.10066" lon="2.65793">
        <ele>1467.11</ele>
        <time>2013-08-09T11:43:42Z</time>
      </trkpt>
      <trkpt lat="45.10065" lon="2.6579">
        <ele>1468.07</ele>
        <time>2013-08-09T11:43:44Z</time>
      </trkpt>
      <trkpt lat="45.10069" lon="2.65783">
        <ele>1470.95</ele>
        <time>2013-08-09T11:43:55Z</time>
      </trkpt>
      <trkpt lat="45.10072" lon="2.6578">
        <ele>1472.4</ele>
        <time>2013-08-09T11:44:01Z</time>
      </trkpt>
      <trkpt lat="45.10075" lon="2.65773">
        <ele>1474.32</ele>
        <time>2013-08-09T11:44:10Z</time>
      </trkpt>
      <trkpt lat="45.1008" lon="2.65767">
        <ele>1476.24</ele>
        <time>2013-08-09T11:44:20Z</time>
      </trkpt>
      <trkpt lat="45.10087" lon="2.65764">
        <ele>1480.09</ele>
        <time>2013-08-09T11:44:32Z</time>
      </trkpt>
      <trkpt lat="45.10088" lon="2.65763">
        <ele>1480.09</ele>
        <time>2013-08-09T11:44:35Z</time>
      </trkpt>
      <trkpt lat="45.10093" lon="2.65761">
        <ele>1481.05</ele>
        <time>2013-08-09T11:44:40Z</time>
      </trkpt>
      <trkpt lat="45.10097" lon="2.65755">
        <ele>1482.97</ele>
        <time>2013-08-09T11:44:52Z</time>
      </trkpt>
      <trkpt lat="45.10101" lon="2.65749">
        <ele>1486.34</ele>
        <time>2013-08-09T11:45:02Z</time>
      </trkpt>
      <trkpt lat="45.10106" lon="2.65743">
        <ele>1488.26</ele>
        <time>2013-08-09T11:45:12Z</time>
      </trkpt>
      <trkpt lat="45.10111" lon="2.65736">
        <ele>1489.7</ele>
        <time>2013-08-09T11:45:23Z</time>
      </trkpt>
      <trkpt lat="45.10115" lon="2.65734">
        <ele>1491.14</ele>
        <time>2013-08-09T11:45:29Z</time>
      </trkpt>
      <trkpt lat="45.10119" lon="2.65724">
        <ele>1494.03</ele>
        <time>2013-08-09T11:45:41Z</time>
      </trkpt>
      <trkpt lat="45.10123" lon="2.65722">
        <ele>1495.47</ele>
        <time>2013-08-09T11:45:47Z</time>
      </trkpt>
      <trkpt lat="45.10126" lon="2.65721">
        <ele>1496.43</ele>
        <time>2013-08-09T11:45:50Z</time>
      </trkpt>
      <trkpt lat="45.10137" lon="2.65718">
        <ele>1497.87</ele>
        <time>2013-08-09T11:46:02Z</time>
      </trkpt>
      <trkpt lat="45.10139" lon="2.65717">
        <ele>1498.83</ele>
        <time>2013-08-09T11:46:08Z</time>
      </trkpt>
      <trkpt lat="45.10146" lon="2.65712">
        <ele>1500.76</ele>
        <time>2013-08-09T11:46:21Z</time>
      </trkpt>
      <trkpt lat="45.10148" lon="2.6571">
        <ele>1501.72</ele>
        <time>2013-08-09T11:46:23Z</time>
      </trkpt>
      <trkpt lat="45.10159" lon="2.65698">
        <ele>1504.12</ele>
        <time>2013-08-09T11:46:38Z</time>
      </trkpt>
      <trkpt lat="45.10161" lon="2.65697">
        <ele>1504.6</ele>
        <time>2013-08-09T11:46:40Z</time>
      </trkpt>
      <trkpt lat="45.10163" lon="2.65696">
        <ele>1504.6</ele>
        <time>2013-08-09T11:46:42Z</time>
      </trkpt>
      <trkpt lat="45.10165" lon="2.65694">
        <ele>1505.56</ele>
        <time>2013-08-09T11:46:45Z</time>
      </trkpt>
      <trkpt lat="45.10168" lon="2.65694">
        <ele>1505.56</ele>
        <time>2013-08-09T11:46:49Z</time>
      </trkpt>
      <trkpt lat="45.10178" lon="2.65693">
        <ele>1507</ele>
        <time>2013-08-09T11:47:01Z</time>
      </trkpt>
      <trkpt lat="45.10183" lon="2.65697">
        <ele>1507</ele>
        <time>2013-08-09T11:47:10Z</time>
      </trkpt>
      <trkpt lat="45.10185" lon="2.65698">
        <ele>1507.97</ele>
        <time>2013-08-09T11:47:14Z</time>
      </trkpt>
      <trkpt lat="45.1019" lon="2.65699">
        <ele>1508.45</ele>
        <time>2013-08-09T11:47:25Z</time>
      </trkpt>
      <trkpt lat="45.10193" lon="2.65705">
        <ele>1508.45</ele>
        <time>2013-08-09T11:47:32Z</time>
      </trkpt>
      <trkpt lat="45.10194" lon="2.65707">
        <ele>1508.45</ele>
        <time>2013-08-09T11:47:34Z</time>
      </trkpt>
      <trkpt lat="45.10199" lon="2.65714">
        <ele>1508.45</ele>
        <time>2013-08-09T11:47:46Z</time>
      </trkpt>
      <trkpt lat="45.10201" lon="2.65716">
        <ele>1508.45</ele>
        <time>2013-08-09T11:47:50Z</time>
      </trkpt>
      <trkpt lat="45.10205" lon="2.65719">
        <ele>1507.97</ele>
        <time>2013-08-09T11:48:04Z</time>
      </trkpt>
      <trkpt lat="45.10207" lon="2.6572">
        <ele>1508.93</ele>
        <time>2013-08-09T11:48:25Z</time>
      </trkpt>
      <trkpt lat="45.10208" lon="2.6572">
        <ele>1508.93</ele>
        <time>2013-08-09T11:48:49Z</time>
      </trkpt>
      <trkpt lat="45.10208" lon="2.6572">
        <ele>1508.45</ele>
        <time>2013-08-09T11:49:10Z</time>
      </trkpt>
      <trkpt lat="45.10208" lon="2.65719">
        <ele>1508.93</ele>
        <time>2013-08-09T11:49:34Z</time>
      </trkpt>
      <trkpt lat="45.10208" lon="2.65719">
        <ele>1508.93</ele>
        <time>2013-08-09T11:49:49Z</time>
      </trkpt>
      <trkpt lat="45.10208" lon="2.65719">
        <ele>1509.41</ele>
        <time>2013-08-09T11:50:04Z</time>
      </trkpt>
      <trkpt lat="45.10208" lon="2.65719">
        <ele>1508.93</ele>
        <time>2013-08-09T11:50:32Z</time>
      </trkpt>
      <trkpt lat="45.10208" lon="2.65719">
        <ele>1508.45</ele>
        <time>2013-08-09T11:50:54Z</time>
      </trkpt>
      <trkpt lat="45.10208" lon="2.6572">
        <ele>1509.89</ele>
        <time>2013-08-09T11:51:10Z</time>
      </trkpt>
      <trkpt lat="45.10208" lon="2.65721">
        <ele>1508.93</ele>
        <time>2013-08-09T11:51:28Z</time>
      </trkpt>
      <trkpt lat="45.1021" lon="2.65721">
        <ele>1508.45</ele>
        <time>2013-08-09T11:51:49Z</time>
      </trkpt>
      <trkpt lat="45.1021" lon="2.65721">
        <ele>1508.45</ele>
        <time>2013-08-09T11:52:14Z</time>
      </trkpt>
      <trkpt lat="45.10209" lon="2.65721">
        <ele>1508.93</ele>
        <time>2013-08-09T11:52:32Z</time>
      </trkpt>
      <trkpt lat="45.1021" lon="2.65721">
        <ele>1509.41</ele>
        <time>2013-08-09T11:52:50Z</time>
      </trkpt>
      <trkpt lat="45.10211" lon="2.65721">
        <ele>1509.89</ele>
        <time>2013-08-09T11:53:13Z</time>
      </trkpt>
      <trkpt lat="45.10211" lon="2.65721">
        <ele>1509.41</ele>
        <time>2013-08-09T11:53:43Z</time>
      </trkpt>
      <trkpt lat="45.1021" lon="2.65723">
        <ele>1509.41</ele>
        <time>2013-08-09T11:53:57Z</time>
      </trkpt>
      <trkpt lat="45.1021" lon="2.65723">
        <ele>1510.37</ele>
        <time>2013-08-09T11:54:24Z</time>
      </trkpt>
      <trkpt lat="45.1021" lon="2.65724">
        <ele>1509.89</ele>
        <time>2013-08-09T11:54:38Z</time>
      </trkpt>
      <trkpt lat="45.10211" lon="2.65727">
        <ele>1508.93</ele>
        <time>2013-08-09T11:54:54Z</time>
      </trkpt>
      <trkpt lat="45.10212" lon="2.65728">
        <ele>1509.41</ele>
        <time>2013-08-09T11:55:02Z</time>
      </trkpt>
      <trkpt lat="45.10219" lon="2.65731">
        <ele>1510.37</ele>
        <time>2013-08-09T11:55:15Z</time>
      </trkpt>
      <trkpt lat="45.10221" lon="2.65733">
        <ele>1510.37</ele>
        <time>2013-08-09T11:55:18Z</time>
      </trkpt>
      <trkpt lat="45.10224" lon="2.65737">
        <ele>1510.85</ele>
        <time>2013-08-09T11:55:22Z</time>
      </trkpt>
      <trkpt lat="45.10225" lon="2.65739">
        <ele>1510.37</ele>
        <time>2013-08-09T11:55:25Z</time>
      </trkpt>
      <trkpt lat="45.10227" lon="2.65745">
        <ele>1510.85</ele>
        <time>2013-08-09T11:55:31Z</time>
      </trkpt>
      <trkpt lat="45.10229" lon="2.65748">
        <ele>1510.85</ele>
        <time>2013-08-09T11:55:34Z</time>
      </trkpt>
      <trkpt lat="45.1023" lon="2.65755">
        <ele>1510.85</ele>
        <time>2013-08-09T11:55:44Z</time>
      </trkpt>
      <trkpt lat="45.10232" lon="2.65764">
        <ele>1510.85</ele>
        <time>2013-08-09T11:55:58Z</time>
      </trkpt>
      <trkpt lat="45.10232" lon="2.65765">
        <ele>1511.33</ele>
        <time>2013-08-09T11:56:00Z</time>
      </trkpt>
      <trkpt lat="45.10234" lon="2.65767">
        <ele>1511.81</ele>
        <time>2013-08-09T11:56:04Z</time>
      </trkpt>
      <trkpt lat="45.10236" lon="2.65767">
        <ele>1512.29</ele>
        <time>2013-08-09T11:56:07Z</time>
      </trkpt>
      <trkpt lat="45.10238" lon="2.65769">
        <ele>1512.29</ele>
        <time>2013-08-09T11:56:10Z</time>
      </trkpt>
      <trkpt lat="45.10243" lon="2.65779">
        <ele>1512.77</ele>
        <time>2013-08-09T11:56:22Z</time>
      </trkpt>
      <trkpt lat="45.10244" lon="2.65782">
        <ele>1512.29</ele>
        <time>2013-08-09T11:56:24Z</time>
      </trkpt>
      <trkpt lat="45.10246" lon="2.65786">
        <ele>1511.81</ele>
        <time>2013-08-09T11:56:29Z</time>
      </trkpt>
      <trkpt lat="45.10251" lon="2.65797">
        <ele>1513.73</ele>
        <time>2013-08-09T11:56:41Z</time>
      </trkpt>
      <trkpt lat="45.10254" lon="2.65803">
        <ele>1513.25</ele>
        <time>2013-08-09T11:56:47Z</time>
      </trkpt>
      <trkpt lat="45.1026" lon="2.65818">
        <ele>1513.73</ele>
        <time>2013-08-09T11:57:01Z</time>
      </trkpt>
      <trkpt lat="45.10262" lon="2.65822">
        <ele>1513.73</ele>
        <time>2013-08-09T11:57:05Z</time>
      </trkpt>
      <trkpt lat="45.10267" lon="2.65833">
        <ele>1515.18</ele>
        <time>2013-08-09T11:57:18Z</time>
      </trkpt>
      <trkpt lat="45.10268" lon="2.65838">
        <ele>1515.18</ele>
        <time>2013-08-09T11:57:24Z</time>
      </trkpt>
      <trkpt lat="45.10273" lon="2.6585">
        <ele>1516.62</ele>
        <time>2013-08-09T11:57:36Z</time>
      </trkpt>
      <trkpt lat="45.10273" lon="2.65851">
        <ele>1516.62</ele>
        <time>2013-08-09T11:57:37Z</time>
      </trkpt>
      <trkpt lat="45.10274" lon="2.65854">
        <ele>1517.1</ele>
        <time>2013-08-09T11:57:39Z</time>
      </trkpt>
      <trkpt lat="45.10278" lon="2.65863">
        <ele>1517.1</ele>
        <time>2013-08-09T11:57:45Z</time>
      </trkpt>
      <trkpt lat="45.10278" lon="2.65867">
        <ele>1517.1</ele>
        <time>2013-08-09T11:57:47Z</time>
      </trkpt>
      <trkpt lat="45.10279" lon="2.6587">
        <ele>1517.58</ele>
        <time>2013-08-09T11:57:50Z</time>
      </trkpt>
      <trkpt lat="45.10284" lon="2.65885">
        <ele>1519.02</ele>
        <time>2013-08-09T11:58:02Z</time>
      </trkpt>
      <trkpt lat="45.10285" lon="2.65887">
        <ele>1519.5</ele>
        <time>2013-08-09T11:58:04Z</time>
      </trkpt>
      <trkpt lat="45.10288" lon="2.65892">
        <ele>1520.46</ele>
        <time>2013-08-09T11:58:10Z</time>
      </trkpt>
      <trkpt lat="45.1029" lon="2.65904">
        <ele>1520.94</ele>
        <time>2013-08-09T11:58:19Z</time>
      </trkpt>
      <trkpt lat="45.10293" lon="2.6592">
        <ele>1523.83</ele>
        <time>2013-08-09T11:58:33Z</time>
      </trkpt>
      <trkpt lat="45.10292" lon="2.65928">
        <ele>1525.75</ele>
        <time>2013-08-09T11:58:45Z</time>
      </trkpt>
      <trkpt lat="45.10294" lon="2.65931">
        <ele>1525.75</ele>
        <time>2013-08-09T11:58:48Z</time>
      </trkpt>
      <trkpt lat="45.10306" lon="2.65942">
        <ele>1522.87</ele>
        <time>2013-08-09T11:59:01Z</time>
      </trkpt>
      <trkpt lat="45.10309" lon="2.65946">
        <ele>1522.39</ele>
        <time>2013-08-09T11:59:06Z</time>
      </trkpt>
      <trkpt lat="45.10319" lon="2.65955">
        <ele>1521.42</ele>
        <time>2013-08-09T11:59:19Z</time>
      </trkpt>
      <trkpt lat="45.1032" lon="2.65956">
        <ele>1520.94</ele>
        <time>2013-08-09T11:59:34Z</time>
      </trkpt>
      <trkpt lat="45.10323" lon="2.65959">
        <ele>1521.42</ele>
        <time>2013-08-09T11:59:38Z</time>
      </trkpt>
      <trkpt lat="45.10334" lon="2.65971">
        <ele>1520.94</ele>
        <time>2013-08-09T11:59:49Z</time>
      </trkpt>
      <trkpt lat="45.10344" lon="2.65982">
        <ele>1519.98</ele>
        <time>2013-08-09T11:59:59Z</time>
      </trkpt>
      <trkpt lat="45.1035" lon="2.65999">
        <ele>1520.46</ele>
        <time>2013-08-09T12:00:12Z</time>
      </trkpt>
      <trkpt lat="45.10352" lon="2.66004">
        <ele>1520.46</ele>
        <time>2013-08-09T12:00:21Z</time>
      </trkpt>
      <trkpt lat="45.10353" lon="2.66007">
        <ele>1520.94</ele>
        <time>2013-08-09T12:00:23Z</time>
      </trkpt>
      <trkpt lat="45.10356" lon="2.66011">
        <ele>1521.42</ele>
        <time>2013-08-09T12:00:27Z</time>
      </trkpt>
      <trkpt lat="45.10363" lon="2.66024">
        <ele>1522.39</ele>
        <time>2013-08-09T12:00:36Z</time>
      </trkpt>
      <trkpt lat="45.10365" lon="2.66028">
        <ele>1521.42</ele>
        <time>2013-08-09T12:00:40Z</time>
      </trkpt>
      <trkpt lat="45.10369" lon="2.66032">
        <ele>1522.39</ele>
        <time>2013-08-09T12:00:44Z</time>
      </trkpt>
      <trkpt lat="45.10371" lon="2.66036">
        <ele>1522.87</ele>
        <time>2013-08-09T12:00:47Z</time>
      </trkpt>
      <trkpt lat="45.10373" lon="2.66038">
        <ele>1522.87</ele>
        <time>2013-08-09T12:00:49Z</time>
      </trkpt>
      <trkpt lat="45.10374" lon="2.6604">
        <ele>1523.83</ele>
        <time>2013-08-09T12:00:51Z</time>
      </trkpt>
      <trkpt lat="45.10383" lon="2.66055">
        <ele>1523.35</ele>
        <time>2013-08-09T12:01:03Z</time>
      </trkpt>
      <trkpt lat="45.10391" lon="2.66077">
        <ele>1522.87</ele>
        <time>2013-08-09T12:01:17Z</time>
      </trkpt>
      <trkpt lat="45.10391" lon="2.6608">
        <ele>1523.35</ele>
        <time>2013-08-09T12:01:19Z</time>
      </trkpt>
      <trkpt lat="45.10396" lon="2.66103">
        <ele>1523.35</ele>
        <time>2013-08-09T12:01:34Z</time>
      </trkpt>
      <trkpt lat="45.104" lon="2.66111">
        <ele>1523.83</ele>
        <time>2013-08-09T12:01:40Z</time>
      </trkpt>
      <trkpt lat="45.10402" lon="2.66116">
        <ele>1524.31</ele>
        <time>2013-08-09T12:01:45Z</time>
      </trkpt>
      <trkpt lat="45.1041" lon="2.66134">
        <ele>1525.27</ele>
        <time>2013-08-09T12:01:59Z</time>
      </trkpt>
      <trkpt lat="45.10413" lon="2.66137">
        <ele>1525.27</ele>
        <time>2013-08-09T12:02:03Z</time>
      </trkpt>
      <trkpt lat="45.1042" lon="2.66153">
        <ele>1525.75</ele>
        <time>2013-08-09T12:02:15Z</time>
      </trkpt>
      <trkpt lat="45.10423" lon="2.66161">
        <ele>1526.23</ele>
        <time>2013-08-09T12:02:22Z</time>
      </trkpt>
      <trkpt lat="45.10423" lon="2.66164">
        <ele>1526.71</ele>
        <time>2013-08-09T12:02:24Z</time>
      </trkpt>
      <trkpt lat="45.10423" lon="2.66167">
        <ele>1527.19</ele>
        <time>2013-08-09T12:02:26Z</time>
      </trkpt>
      <trkpt lat="45.10424" lon="2.66172">
        <ele>1527.67</ele>
        <time>2013-08-09T12:02:30Z</time>
      </trkpt>
      <trkpt lat="45.10422" lon="2.66186">
        <ele>1529.59</ele>
        <time>2013-08-09T12:02:42Z</time>
      </trkpt>
      <trkpt lat="45.10422" lon="2.66192">
        <ele>1529.11</ele>
        <time>2013-08-09T12:02:52Z</time>
      </trkpt>
      <trkpt lat="45.10424" lon="2.66191">
        <ele>1529.11</ele>
        <time>2013-08-09T12:03:24Z</time>
      </trkpt>
      <trkpt lat="45.10423" lon="2.66194">
        <ele>1529.11</ele>
        <time>2013-08-09T12:03:29Z</time>
      </trkpt>
      <trkpt lat="45.10421" lon="2.66202">
        <ele>1529.11</ele>
        <time>2013-08-09T12:03:42Z</time>
      </trkpt>
      <trkpt lat="45.10421" lon="2.66203">
        <ele>1528.15</ele>
        <time>2013-08-09T12:04:14Z</time>
      </trkpt>
      <trkpt lat="45.1042" lon="2.66204">
        <ele>1528.63</ele>
        <time>2013-08-09T12:04:28Z</time>
      </trkpt>
      <trkpt lat="45.10421" lon="2.66203">
        <ele>1529.11</ele>
        <time>2013-08-09T12:04:46Z</time>
      </trkpt>
      <trkpt lat="45.10425" lon="2.66195">
        <ele>1529.59</ele>
        <time>2013-08-09T12:05:06Z</time>
      </trkpt>
      <trkpt lat="45.10424" lon="2.66186">
        <ele>1529.11</ele>
        <time>2013-08-09T12:05:19Z</time>
      </trkpt>
      <trkpt lat="45.10425" lon="2.66185">
        <ele>1528.15</ele>
        <time>2013-08-09T12:05:53Z</time>
      </trkpt>
      <trkpt lat="45.10425" lon="2.66185">
        <ele>1528.63</ele>
        <time>2013-08-09T12:06:26Z</time>
      </trkpt>
      <trkpt lat="45.10425" lon="2.66185">
        <ele>1529.11</ele>
        <time>2013-08-09T12:07:04Z</time>
      </trkpt>
      <trkpt lat="45.10426" lon="2.66185">
        <ele>1529.59</ele>
        <time>2013-08-09T12:07:40Z</time>
      </trkpt>
      <trkpt lat="45.10426" lon="2.66185">
        <ele>1529.11</ele>
        <time>2013-08-09T12:08:19Z</time>
      </trkpt>
      <trkpt lat="45.10426" lon="2.66185">
        <ele>1529.59</ele>
        <time>2013-08-09T12:08:53Z</time>
      </trkpt>
      <trkpt lat="45.10425" lon="2.66185">
        <ele>1530.08</ele>
        <time>2013-08-09T12:09:06Z</time>
      </trkpt>
      <trkpt lat="45.10425" lon="2.66185">
        <ele>1529.59</ele>
        <time>2013-08-09T12:09:20Z</time>
      </trkpt>
      <trkpt lat="45.10426" lon="2.66186">
        <ele>1530.08</ele>
        <time>2013-08-09T12:09:46Z</time>
      </trkpt>
      <trkpt lat="45.10425" lon="2.66186">
        <ele>1530.08</ele>
        <time>2013-08-09T12:10:19Z</time>
      </trkpt>
      <trkpt lat="45.10425" lon="2.66186">
        <ele>1530.08</ele>
        <time>2013-08-09T12:10:55Z</time>
      </trkpt>
      <trkpt lat="45.10425" lon="2.66185">
        <ele>1531.04</ele>
        <time>2013-08-09T12:11:29Z</time>
      </trkpt>
      <trkpt lat="45.10425" lon="2.66186">
        <ele>1531.04</ele>
        <time>2013-08-09T12:12:00Z</time>
      </trkpt>
      <trkpt lat="45.10426" lon="2.66185">
        <ele>1530.56</ele>
        <time>2013-08-09T12:12:31Z</time>
      </trkpt>
      <trkpt lat="45.10426" lon="2.66185">
        <ele>1531.04</ele>
        <time>2013-08-09T12:12:54Z</time>
      </trkpt>
      <trkpt lat="45.10426" lon="2.66185">
        <ele>1531.52</ele>
        <time>2013-08-09T12:13:30Z</time>
      </trkpt>
      <trkpt lat="45.10426" lon="2.66185">
        <ele>1531.04</ele>
        <time>2013-08-09T12:13:49Z</time>
      </trkpt>
      <trkpt lat="45.10426" lon="2.66185">
        <ele>1532</ele>
        <time>2013-08-09T12:14:23Z</time>
      </trkpt>
      <trkpt lat="45.10429" lon="2.66183">
        <ele>1532.96</ele>
        <time>2013-08-09T12:14:35Z</time>
      </trkpt>
      <trkpt lat="45.1043" lon="2.66179">
        <ele>1533.44</ele>
        <time>2013-08-09T12:14:39Z</time>
      </trkpt>
      <trkpt lat="45.10433" lon="2.66175">
        <ele>1534.88</ele>
        <time>2013-08-09T12:14:43Z</time>
      </trkpt>
      <trkpt lat="45.10435" lon="2.6617">
        <ele>1534.4</ele>
        <time>2013-08-09T12:14:46Z</time>
      </trkpt>
      <trkpt lat="45.10438" lon="2.66158">
        <ele>1535.36</ele>
        <time>2013-08-09T12:14:53Z</time>
      </trkpt>
      <trkpt lat="45.10442" lon="2.66136">
        <ele>1536.32</ele>
        <time>2013-08-09T12:15:07Z</time>
      </trkpt>
      <trkpt lat="45.10441" lon="2.6613">
        <ele>1537.29</ele>
        <time>2013-08-09T12:15:11Z</time>
      </trkpt>
      <trkpt lat="45.10435" lon="2.66115">
        <ele>1539.21</ele>
        <time>2013-08-09T12:15:23Z</time>
      </trkpt>
      <trkpt lat="45.1043" lon="2.66103">
        <ele>1540.65</ele>
        <time>2013-08-09T12:15:32Z</time>
      </trkpt>
      <trkpt lat="45.10429" lon="2.66091">
        <ele>1541.61</ele>
        <time>2013-08-09T12:15:40Z</time>
      </trkpt>
      <trkpt lat="45.10429" lon="2.66076">
        <ele>1544.5</ele>
        <time>2013-08-09T12:15:51Z</time>
      </trkpt>
      <trkpt lat="45.10429" lon="2.6607">
        <ele>1545.46</ele>
        <time>2013-08-09T12:15:55Z</time>
      </trkpt>
      <trkpt lat="45.10421" lon="2.66054">
        <ele>1547.38</ele>
        <time>2013-08-09T12:16:08Z</time>
      </trkpt>
      <trkpt lat="45.10421" lon="2.66048">
        <ele>1548.34</ele>
        <time>2013-08-09T12:16:13Z</time>
      </trkpt>
      <trkpt lat="45.1042" lon="2.66034">
        <ele>1550.26</ele>
        <time>2013-08-09T12:16:27Z</time>
      </trkpt>
      <trkpt lat="45.1042" lon="2.66018">
        <ele>1552.19</ele>
        <time>2013-08-09T12:16:38Z</time>
      </trkpt>
      <trkpt lat="45.10419" lon="2.66015">
        <ele>1552.67</ele>
        <time>2013-08-09T12:16:40Z</time>
      </trkpt>
      <trkpt lat="45.1042" lon="2.66013">
        <ele>1552.67</ele>
        <time>2013-08-09T12:16:42Z</time>
      </trkpt>
      <trkpt lat="45.10416" lon="2.65997">
        <ele>1556.51</ele>
        <time>2013-08-09T12:16:55Z</time>
      </trkpt>
      <trkpt lat="45.10414" lon="2.65994">
        <ele>1556.99</ele>
        <time>2013-08-09T12:16:59Z</time>
      </trkpt>
      <trkpt lat="45.1041" lon="2.65981">
        <ele>1557.95</ele>
        <time>2013-08-09T12:17:11Z</time>
      </trkpt>
      <trkpt lat="45.10408" lon="2.65978">
        <ele>1558.92</ele>
        <time>2013-08-09T12:17:14Z</time>
      </trkpt>
      <trkpt lat="45.10405" lon="2.65968">
        <ele>1559.4</ele>
        <time>2013-08-09T12:17:25Z</time>
      </trkpt>
      <trkpt lat="45.10404" lon="2.65966">
        <ele>1559.4</ele>
        <time>2013-08-09T12:17:27Z</time>
      </trkpt>
      <trkpt lat="45.10401" lon="2.65956">
        <ele>1560.84</ele>
        <time>2013-08-09T12:17:37Z</time>
      </trkpt>
      <trkpt lat="45.10394" lon="2.65942">
        <ele>1563.24</ele>
        <time>2013-08-09T12:17:50Z</time>
      </trkpt>
      <trkpt lat="45.10391" lon="2.65934">
        <ele>1564.68</ele>
        <time>2013-08-09T12:17:59Z</time>
      </trkpt>
      <trkpt lat="45.10387" lon="2.65927">
        <ele>1566.12</ele>
        <time>2013-08-09T12:18:06Z</time>
      </trkpt>
      <trkpt lat="45.10385" lon="2.6592">
        <ele>1567.57</ele>
        <time>2013-08-09T12:18:18Z</time>
      </trkpt>
      <trkpt lat="45.10385" lon="2.65916">
        <ele>1568.05</ele>
        <time>2013-08-09T12:18:21Z</time>
      </trkpt>
      <trkpt lat="45.10385" lon="2.65902">
        <ele>1569.49</ele>
        <time>2013-08-09T12:18:33Z</time>
      </trkpt>
      <trkpt lat="45.10384" lon="2.65899">
        <ele>1569.97</ele>
        <time>2013-08-09T12:18:36Z</time>
      </trkpt>
      <trkpt lat="45.10381" lon="2.65895">
        <ele>1569.97</ele>
        <time>2013-08-09T12:18:40Z</time>
      </trkpt>
      <trkpt lat="45.10378" lon="2.65892">
        <ele>1570.93</ele>
        <time>2013-08-09T12:18:44Z</time>
      </trkpt>
      <trkpt lat="45.10375" lon="2.65891">
        <ele>1570.93</ele>
        <time>2013-08-09T12:18:46Z</time>
      </trkpt>
      <trkpt lat="45.10365" lon="2.65886">
        <ele>1571.41</ele>
        <time>2013-08-09T12:19:02Z</time>
      </trkpt>
      <trkpt lat="45.10362" lon="2.65883">
        <ele>1571.41</ele>
        <time>2013-08-09T12:19:31Z</time>
      </trkpt>
      <trkpt lat="45.10362" lon="2.65882">
        <ele>1570.93</ele>
        <time>2013-08-09T12:19:32Z</time>
      </trkpt>
      <trkpt lat="45.10359" lon="2.65877">
        <ele>1570.93</ele>
        <time>2013-08-09T12:19:36Z</time>
      </trkpt>
      <trkpt lat="45.10353" lon="2.65868">
        <ele>1572.37</ele>
        <time>2013-08-09T12:19:48Z</time>
      </trkpt>
      <trkpt lat="45.10351" lon="2.65867">
        <ele>1574.3</ele>
        <time>2013-08-09T12:19:59Z</time>
      </trkpt>
      <trkpt lat="45.10349" lon="2.65864">
        <ele>1574.78</ele>
        <time>2013-08-09T12:20:05Z</time>
      </trkpt>
      <trkpt lat="45.10347" lon="2.65859">
        <ele>1575.74</ele>
        <time>2013-08-09T12:20:10Z</time>
      </trkpt>
      <trkpt lat="45.10343" lon="2.65846">
        <ele>1577.18</ele>
        <time>2013-08-09T12:20:23Z</time>
      </trkpt>
      <trkpt lat="45.10344" lon="2.65838">
        <ele>1579.1</ele>
        <time>2013-08-09T12:20:31Z</time>
      </trkpt>
      <trkpt lat="45.10343" lon="2.65836">
        <ele>1579.58</ele>
        <time>2013-08-09T12:20:33Z</time>
      </trkpt>
      <trkpt lat="45.10346" lon="2.65825">
        <ele>1581.03</ele>
        <time>2013-08-09T12:20:44Z</time>
      </trkpt>
      <trkpt lat="45.10345" lon="2.65823">
        <ele>1581.03</ele>
        <time>2013-08-09T12:20:47Z</time>
      </trkpt>
      <trkpt lat="45.10344" lon="2.65818">
        <ele>1580.54</ele>
        <time>2013-08-09T12:20:54Z</time>
      </trkpt>
      <trkpt lat="45.10342" lon="2.65811">
        <ele>1579.58</ele>
        <time>2013-08-09T12:21:00Z</time>
      </trkpt>
      <trkpt lat="45.10342" lon="2.65806">
        <ele>1578.62</ele>
        <time>2013-08-09T12:21:03Z</time>
      </trkpt>
      <trkpt lat="45.10343" lon="2.65799">
        <ele>1577.66</ele>
        <time>2013-08-09T12:21:16Z</time>
      </trkpt>
      <trkpt lat="45.10343" lon="2.65796">
        <ele>1577.18</ele>
        <time>2013-08-09T12:21:19Z</time>
      </trkpt>
      <trkpt lat="45.10344" lon="2.65791">
        <ele>1577.66</ele>
        <time>2013-08-09T12:21:22Z</time>
      </trkpt>
      <trkpt lat="45.10341" lon="2.65779">
        <ele>1577.18</ele>
        <time>2013-08-09T12:21:34Z</time>
      </trkpt>
      <trkpt lat="45.10341" lon="2.6577">
        <ele>1575.74</ele>
        <time>2013-08-09T12:21:40Z</time>
      </trkpt>
      <trkpt lat="45.10338" lon="2.6576">
        <ele>1576.22</ele>
        <time>2013-08-09T12:21:46Z</time>
      </trkpt>
      <trkpt lat="45.10335" lon="2.6575">
        <ele>1577.66</ele>
        <time>2013-08-09T12:21:53Z</time>
      </trkpt>
      <trkpt lat="45.10334" lon="2.65745">
        <ele>1578.62</ele>
        <time>2013-08-09T12:21:57Z</time>
      </trkpt>
      <trkpt lat="45.10331" lon="2.65731">
        <ele>1578.62</ele>
        <time>2013-08-09T12:22:10Z</time>
      </trkpt>
      <trkpt lat="45.10329" lon="2.65731">
        <ele>1578.62</ele>
        <time>2013-08-09T12:22:26Z</time>
      </trkpt>
      <trkpt lat="45.10329" lon="2.6573">
        <ele>1578.14</ele>
        <time>2013-08-09T12:22:27Z</time>
      </trkpt>
      <trkpt lat="45.10325" lon="2.65724">
        <ele>1576.7</ele>
        <time>2013-08-09T12:22:34Z</time>
      </trkpt>
      <trkpt lat="45.10316" lon="2.65707">
        <ele>1574.78</ele>
        <time>2013-08-09T12:22:48Z</time>
      </trkpt>
      <trkpt lat="45.10316" lon="2.65705">
        <ele>1574.3</ele>
        <time>2013-08-09T12:22:50Z</time>
      </trkpt>
      <trkpt lat="45.10315" lon="2.65701">
        <ele>1574.3</ele>
        <time>2013-08-09T12:22:53Z</time>
      </trkpt>
      <trkpt lat="45.10314" lon="2.65699">
        <ele>1573.82</ele>
        <time>2013-08-09T12:22:55Z</time>
      </trkpt>
      <trkpt lat="45.10312" lon="2.6569">
        <ele>1573.33</ele>
        <time>2013-08-09T12:23:01Z</time>
      </trkpt>
      <trkpt lat="45.1031" lon="2.65676">
        <ele>1574.78</ele>
        <time>2013-08-09T12:23:13Z</time>
      </trkpt>
      <trkpt lat="45.10308" lon="2.65671">
        <ele>1575.26</ele>
        <time>2013-08-09T12:23:17Z</time>
      </trkpt>
      <trkpt lat="45.10305" lon="2.65658">
        <ele>1575.26</ele>
        <time>2013-08-09T12:23:30Z</time>
      </trkpt>
      <trkpt lat="45.10305" lon="2.65657">
        <ele>1575.26</ele>
        <time>2013-08-09T12:23:31Z</time>
      </trkpt>
      <trkpt lat="45.10304" lon="2.65653">
        <ele>1575.26</ele>
        <time>2013-08-09T12:23:34Z</time>
      </trkpt>
      <trkpt lat="45.10301" lon="2.6564">
        <ele>1577.18</ele>
        <time>2013-08-09T12:23:49Z</time>
      </trkpt>
      <trkpt lat="45.103" lon="2.65635">
        <ele>1577.66</ele>
        <time>2013-08-09T12:23:59Z</time>
      </trkpt>
      <trkpt lat="45.10295" lon="2.65623">
        <ele>1578.62</ele>
        <time>2013-08-09T12:24:12Z</time>
      </trkpt>
      <trkpt lat="45.10291" lon="2.65614">
        <ele>1579.1</ele>
        <time>2013-08-09T12:24:23Z</time>
      </trkpt>
      <trkpt lat="45.1029" lon="2.65602">
        <ele>1580.06</ele>
        <time>2013-08-09T12:24:33Z</time>
      </trkpt>
      <trkpt lat="45.1029" lon="2.65595">
        <ele>1581.03</ele>
        <time>2013-08-09T12:24:45Z</time>
      </trkpt>
      <trkpt lat="45.10288" lon="2.65594">
        <ele>1581.03</ele>
        <time>2013-08-09T12:24:56Z</time>
      </trkpt>
      <trkpt lat="45.10287" lon="2.65593">
        <ele>1581.51</ele>
        <time>2013-08-09T12:25:08Z</time>
      </trkpt>
      <trkpt lat="45.10285" lon="2.65593">
        <ele>1581.51</ele>
        <time>2013-08-09T12:25:32Z</time>
      </trkpt>
      <trkpt lat="45.10281" lon="2.65585">
        <ele>1581.51</ele>
        <time>2013-08-09T12:25:43Z</time>
      </trkpt>
      <trkpt lat="45.10278" lon="2.65574">
        <ele>1582.95</ele>
        <time>2013-08-09T12:25:55Z</time>
      </trkpt>
      <trkpt lat="45.10278" lon="2.65573">
        <ele>1583.91</ele>
        <time>2013-08-09T12:25:56Z</time>
      </trkpt>
      <trkpt lat="45.10277" lon="2.6556">
        <ele>1586.31</ele>
        <time>2013-08-09T12:26:09Z</time>
      </trkpt>
      <trkpt lat="45.10275" lon="2.65551">
        <ele>1587.75</ele>
        <time>2013-08-09T12:26:19Z</time>
      </trkpt>
      <trkpt lat="45.10272" lon="2.65545">
        <ele>1589.68</ele>
        <time>2013-08-09T12:26:32Z</time>
      </trkpt>
      <trkpt lat="45.10271" lon="2.65537">
        <ele>1591.6</ele>
        <time>2013-08-09T12:26:42Z</time>
      </trkpt>
      <trkpt lat="45.10269" lon="2.65526">
        <ele>1593.52</ele>
        <time>2013-08-09T12:26:55Z</time>
      </trkpt>
      <trkpt lat="45.10269" lon="2.65518">
        <ele>1596.41</ele>
        <time>2013-08-09T12:27:07Z</time>
      </trkpt>
      <trkpt lat="45.10267" lon="2.6551">
        <ele>1596.89</ele>
        <time>2013-08-09T12:27:18Z</time>
      </trkpt>
      <trkpt lat="45.10265" lon="2.65504">
        <ele>1599.77</ele>
        <time>2013-08-09T12:27:30Z</time>
      </trkpt>
      <trkpt lat="45.10264" lon="2.65502">
        <ele>1600.73</ele>
        <time>2013-08-09T12:27:33Z</time>
      </trkpt>
      <trkpt lat="45.10264" lon="2.65492">
        <ele>1601.21</ele>
        <time>2013-08-09T12:27:45Z</time>
      </trkpt>
      <trkpt lat="45.10262" lon="2.65484">
        <ele>1602.66</ele>
        <time>2013-08-09T12:27:57Z</time>
      </trkpt>
      <trkpt lat="45.10258" lon="2.6547">
        <ele>1606.02</ele>
        <time>2013-08-09T12:28:08Z</time>
      </trkpt>
      <trkpt lat="45.10256" lon="2.65463">
        <ele>1608.9</ele>
        <time>2013-08-09T12:28:20Z</time>
      </trkpt>
      <trkpt lat="45.10258" lon="2.65453">
        <ele>1611.31</ele>
        <time>2013-08-09T12:28:29Z</time>
      </trkpt>
      <trkpt lat="45.10258" lon="2.65452">
        <ele>1611.79</ele>
        <time>2013-08-09T12:28:31Z</time>
      </trkpt>
      <trkpt lat="45.1026" lon="2.65449">
        <ele>1612.75</ele>
        <time>2013-08-09T12:28:33Z</time>
      </trkpt>
      <trkpt lat="45.10259" lon="2.65443">
        <ele>1614.19</ele>
        <time>2013-08-09T12:28:41Z</time>
      </trkpt>
      <trkpt lat="45.10256" lon="2.65443">
        <ele>1615.15</ele>
        <time>2013-08-09T12:28:45Z</time>
      </trkpt>
      <trkpt lat="45.10247" lon="2.65439">
        <ele>1618.52</ele>
        <time>2013-08-09T12:28:57Z</time>
      </trkpt>
      <trkpt lat="45.10239" lon="2.6544">
        <ele>1620.44</ele>
        <time>2013-08-09T12:29:09Z</time>
      </trkpt>
      <trkpt lat="45.10238" lon="2.6544">
        <ele>1619.96</ele>
        <time>2013-08-09T12:29:10Z</time>
      </trkpt>
      <trkpt lat="45.10232" lon="2.6544">
        <ele>1621.4</ele>
        <time>2013-08-09T12:29:17Z</time>
      </trkpt>
      <trkpt lat="45.10226" lon="2.65434">
        <ele>1622.36</ele>
        <time>2013-08-09T12:29:26Z</time>
      </trkpt>
      <trkpt lat="45.10229" lon="2.65427">
        <ele>1625.25</ele>
        <time>2013-08-09T12:29:38Z</time>
      </trkpt>
      <trkpt lat="45.1023" lon="2.65419">
        <ele>1626.21</ele>
        <time>2013-08-09T12:29:45Z</time>
      </trkpt>
      <trkpt lat="45.10234" lon="2.65409">
        <ele>1629.09</ele>
        <time>2013-08-09T12:29:56Z</time>
      </trkpt>
      <trkpt lat="45.10238" lon="2.65403">
        <ele>1631.01</ele>
        <time>2013-08-09T12:30:06Z</time>
      </trkpt>
      <trkpt lat="45.10241" lon="2.65395">
        <ele>1632.94</ele>
        <time>2013-08-09T12:30:17Z</time>
      </trkpt>
      <trkpt lat="45.1024" lon="2.6539">
        <ele>1634.38</ele>
        <time>2013-08-09T12:30:28Z</time>
      </trkpt>
      <trkpt lat="45.10238" lon="2.65388">
        <ele>1636.3</ele>
        <time>2013-08-09T12:30:38Z</time>
      </trkpt>
      <trkpt lat="45.10235" lon="2.65387">
        <ele>1636.3</ele>
        <time>2013-08-09T12:31:02Z</time>
      </trkpt>
      <trkpt lat="45.10233" lon="2.65386">
        <ele>1636.3</ele>
        <time>2013-08-09T12:31:06Z</time>
      </trkpt>
      <trkpt lat="45.10229" lon="2.65386">
        <ele>1636.78</ele>
        <time>2013-08-09T12:31:10Z</time>
      </trkpt>
      <trkpt lat="45.10225" lon="2.65392">
        <ele>1638.7</ele>
        <time>2013-08-09T12:31:14Z</time>
      </trkpt>
      <trkpt lat="45.10217" lon="2.65393">
        <ele>1639.67</ele>
        <time>2013-08-09T12:31:21Z</time>
      </trkpt>
      <trkpt lat="45.10212" lon="2.65394">
        <ele>1640.63</ele>
        <time>2013-08-09T12:31:26Z</time>
      </trkpt>
      <trkpt lat="45.10208" lon="2.65395">
        <ele>1641.11</ele>
        <time>2013-08-09T12:31:30Z</time>
      </trkpt>
      <trkpt lat="45.10205" lon="2.65397">
        <ele>1642.55</ele>
        <time>2013-08-09T12:31:34Z</time>
      </trkpt>
      <trkpt lat="45.102" lon="2.65397">
        <ele>1643.99</ele>
        <time>2013-08-09T12:31:39Z</time>
      </trkpt>
      <trkpt lat="45.10193" lon="2.65398">
        <ele>1646.4</ele>
        <time>2013-08-09T12:31:49Z</time>
      </trkpt>
      <trkpt lat="45.10191" lon="2.65399">
        <ele>1646.88</ele>
        <time>2013-08-09T12:31:51Z</time>
      </trkpt>
      <trkpt lat="45.10189" lon="2.65398">
        <ele>1647.84</ele>
        <time>2013-08-09T12:31:54Z</time>
      </trkpt>
      <trkpt lat="45.10178" lon="2.65401">
        <ele>1651.2</ele>
        <time>2013-08-09T12:32:07Z</time>
      </trkpt>
      <trkpt lat="45.10172" lon="2.65398">
        <ele>1652.64</ele>
        <time>2013-08-09T12:32:15Z</time>
      </trkpt>
      <trkpt lat="45.10163" lon="2.65396">
        <ele>1655.53</ele>
        <time>2013-08-09T12:32:28Z</time>
      </trkpt>
      <trkpt lat="45.10158" lon="2.65388">
        <ele>1657.45</ele>
        <time>2013-08-09T12:32:39Z</time>
      </trkpt>
      <trkpt lat="45.10152" lon="2.65384">
        <ele>1660.33</ele>
        <time>2013-08-09T12:32:50Z</time>
      </trkpt>
      <trkpt lat="45.10145" lon="2.65381">
        <ele>1663.22</ele>
        <time>2013-08-09T12:33:04Z</time>
      </trkpt>
      <trkpt lat="45.1014" lon="2.65382">
        <ele>1665.14</ele>
        <time>2013-08-09T12:33:15Z</time>
      </trkpt>
      <trkpt lat="45.10139" lon="2.65382">
        <ele>1666.1</ele>
        <time>2013-08-09T12:33:16Z</time>
      </trkpt>
      <trkpt lat="45.10138" lon="2.65383">
        <ele>1666.58</ele>
        <time>2013-08-09T12:33:18Z</time>
      </trkpt>
      <trkpt lat="45.10134" lon="2.65386">
        <ele>1668.99</ele>
        <time>2013-08-09T12:33:28Z</time>
      </trkpt>
      <trkpt lat="45.10132" lon="2.65387">
        <ele>1670.43</ele>
        <time>2013-08-09T12:33:42Z</time>
      </trkpt>
      <trkpt lat="45.10125" lon="2.65387">
        <ele>1671.87</ele>
        <time>2013-08-09T12:33:50Z</time>
      </trkpt>
      <trkpt lat="45.10115" lon="2.65384">
        <ele>1673.79</ele>
        <time>2013-08-09T12:34:03Z</time>
      </trkpt>
      <trkpt lat="45.10113" lon="2.65381">
        <ele>1673.79</ele>
        <time>2013-08-09T12:34:06Z</time>
      </trkpt>
      <trkpt lat="45.10107" lon="2.6538">
        <ele>1675.23</ele>
        <time>2013-08-09T12:34:21Z</time>
      </trkpt>
      <trkpt lat="45.10101" lon="2.65384">
        <ele>1678.12</ele>
        <time>2013-08-09T12:34:32Z</time>
      </trkpt>
      <trkpt lat="45.10098" lon="2.65385">
        <ele>1678.6</ele>
        <time>2013-08-09T12:34:41Z</time>
      </trkpt>
      <trkpt lat="45.10093" lon="2.65387">
        <ele>1680.04</ele>
        <time>2013-08-09T12:34:50Z</time>
      </trkpt>
      <trkpt lat="45.10089" lon="2.65387">
        <ele>1681.96</ele>
        <time>2013-08-09T12:35:05Z</time>
      </trkpt>
      <trkpt lat="45.10089" lon="2.65387">
        <ele>1681.96</ele>
        <time>2013-08-09T12:35:06Z</time>
      </trkpt>
      <trkpt lat="45.10086" lon="2.65385">
        <ele>1681.96</ele>
        <time>2013-08-09T12:35:10Z</time>
      </trkpt>
      <trkpt lat="45.10078" lon="2.65379">
        <ele>1683.89</ele>
        <time>2013-08-09T12:35:20Z</time>
      </trkpt>
      <trkpt lat="45.10074" lon="2.65379">
        <ele>1684.37</ele>
        <time>2013-08-09T12:35:23Z</time>
      </trkpt>
      <trkpt lat="45.10072" lon="2.65379">
        <ele>1684.37</ele>
        <time>2013-08-09T12:35:25Z</time>
      </trkpt>
      <trkpt lat="45.10068" lon="2.65377">
        <ele>1685.33</ele>
        <time>2013-08-09T12:35:29Z</time>
      </trkpt>
      <trkpt lat="45.10065" lon="2.65374">
        <ele>1685.81</ele>
        <time>2013-08-09T12:35:33Z</time>
      </trkpt>
      <trkpt lat="45.10063" lon="2.65375">
        <ele>1686.29</ele>
        <time>2013-08-09T12:35:35Z</time>
      </trkpt>
      <trkpt lat="45.10058" lon="2.65371">
        <ele>1687.25</ele>
        <time>2013-08-09T12:35:41Z</time>
      </trkpt>
      <trkpt lat="45.10055" lon="2.6537">
        <ele>1687.73</ele>
        <time>2013-08-09T12:35:45Z</time>
      </trkpt>
      <trkpt lat="45.10045" lon="2.65361">
        <ele>1687.25</ele>
        <time>2013-08-09T12:35:57Z</time>
      </trkpt>
      <trkpt lat="45.10042" lon="2.65357">
        <ele>1686.77</ele>
        <time>2013-08-09T12:36:01Z</time>
      </trkpt>
      <trkpt lat="45.10036" lon="2.65357">
        <ele>1686.77</ele>
        <time>2013-08-09T12:36:13Z</time>
      </trkpt>
      <trkpt lat="45.10034" lon="2.65355">
        <ele>1686.77</ele>
        <time>2013-08-09T12:36:15Z</time>
      </trkpt>
      <trkpt lat="45.10031" lon="2.65354">
        <ele>1686.77</ele>
        <time>2013-08-09T12:36:18Z</time>
      </trkpt>
      <trkpt lat="45.10024" lon="2.65348">
        <ele>1686.77</ele>
        <time>2013-08-09T12:36:26Z</time>
      </trkpt>
      <trkpt lat="45.10014" lon="2.65345">
        <ele>1686.77</ele>
        <time>2013-08-09T12:36:34Z</time>
      </trkpt>
      <trkpt lat="45.10008" lon="2.65338">
        <ele>1686.29</ele>
        <time>2013-08-09T12:36:41Z</time>
      </trkpt>
      <trkpt lat="45.10004" lon="2.65325">
        <ele>1686.29</ele>
        <time>2013-08-09T12:36:49Z</time>
      </trkpt>
      <trkpt lat="45.10002" lon="2.65323">
        <ele>1686.29</ele>
        <time>2013-08-09T12:36:51Z</time>
      </trkpt>
      <trkpt lat="45.1" lon="2.65323">
        <ele>1686.29</ele>
        <time>2013-08-09T12:36:53Z</time>
      </trkpt>
      <trkpt lat="45.09995" lon="2.65325">
        <ele>1687.25</ele>
        <time>2013-08-09T12:36:57Z</time>
      </trkpt>
      <trkpt lat="45.09993" lon="2.65325">
        <ele>1687.25</ele>
        <time>2013-08-09T12:36:59Z</time>
      </trkpt>
      <trkpt lat="45.09989" lon="2.65323">
        <ele>1688.21</ele>
        <time>2013-08-09T12:37:03Z</time>
      </trkpt>
      <trkpt lat="45.09987" lon="2.65324">
        <ele>1688.69</ele>
        <time>2013-08-09T12:37:05Z</time>
      </trkpt>
      <trkpt lat="45.0998" lon="2.6532">
        <ele>1690.14</ele>
        <time>2013-08-09T12:37:12Z</time>
      </trkpt>
      <trkpt lat="45.09971" lon="2.65311">
        <ele>1690.62</ele>
        <time>2013-08-09T12:37:25Z</time>
      </trkpt>
      <trkpt lat="45.0997" lon="2.65311">
        <ele>1691.1</ele>
        <time>2013-08-09T12:37:34Z</time>
      </trkpt>
      <trkpt lat="45.09966" lon="2.65306">
        <ele>1691.58</ele>
        <time>2013-08-09T12:37:42Z</time>
      </trkpt>
      <trkpt lat="45.09963" lon="2.65303">
        <ele>1692.06</ele>
        <time>2013-08-09T12:37:45Z</time>
      </trkpt>
      <trkpt lat="45.09962" lon="2.653">
        <ele>1692.54</ele>
        <time>2013-08-09T12:37:47Z</time>
      </trkpt>
      <trkpt lat="45.09959" lon="2.65294">
        <ele>1693.02</ele>
        <time>2013-08-09T12:37:55Z</time>
      </trkpt>
      <trkpt lat="45.09957" lon="2.65292">
        <ele>1693.02</ele>
        <time>2013-08-09T12:37:57Z</time>
      </trkpt>
      <trkpt lat="45.09949" lon="2.65282">
        <ele>1693.98</ele>
        <time>2013-08-09T12:38:09Z</time>
      </trkpt>
      <trkpt lat="45.09948" lon="2.6528">
        <ele>1694.94</ele>
        <time>2013-08-09T12:38:11Z</time>
      </trkpt>
      <trkpt lat="45.09946" lon="2.65267">
        <ele>1695.42</ele>
        <time>2013-08-09T12:38:21Z</time>
      </trkpt>
      <trkpt lat="45.09945" lon="2.65263">
        <ele>1695.9</ele>
        <time>2013-08-09T12:38:24Z</time>
      </trkpt>
      <trkpt lat="45.09945" lon="2.65256">
        <ele>1695.42</ele>
        <time>2013-08-09T12:38:29Z</time>
      </trkpt>
      <trkpt lat="45.09947" lon="2.65252">
        <ele>1694.46</ele>
        <time>2013-08-09T12:38:32Z</time>
      </trkpt>
      <trkpt lat="45.09948" lon="2.65242">
        <ele>1693.5</ele>
        <time>2013-08-09T12:38:37Z</time>
      </trkpt>
      <trkpt lat="45.09949" lon="2.65234">
        <ele>1693.02</ele>
        <time>2013-08-09T12:38:42Z</time>
      </trkpt>
      <trkpt lat="45.0995" lon="2.65215">
        <ele>1692.54</ele>
        <time>2013-08-09T12:38:54Z</time>
      </trkpt>
      <trkpt lat="45.0995" lon="2.65207">
        <ele>1692.06</ele>
        <time>2013-08-09T12:38:58Z</time>
      </trkpt>
      <trkpt lat="45.09949" lon="2.65196">
        <ele>1692.06</ele>
        <time>2013-08-09T12:39:05Z</time>
      </trkpt>
      <trkpt lat="45.09945" lon="2.65171">
        <ele>1691.58</ele>
        <time>2013-08-09T12:39:21Z</time>
      </trkpt>
      <trkpt lat="45.09944" lon="2.65164">
        <ele>1691.1</ele>
        <time>2013-08-09T12:39:25Z</time>
      </trkpt>
      <trkpt lat="45.09947" lon="2.65145">
        <ele>1688.21</ele>
        <time>2013-08-09T12:39:38Z</time>
      </trkpt>
      <trkpt lat="45.09946" lon="2.65127">
        <ele>1684.85</ele>
        <time>2013-08-09T12:39:48Z</time>
      </trkpt>
      <trkpt lat="45.09947" lon="2.65119">
        <ele>1683.41</ele>
        <time>2013-08-09T12:39:52Z</time>
      </trkpt>
      <trkpt lat="45.09949" lon="2.65105">
        <ele>1681</ele>
        <time>2013-08-09T12:40:00Z</time>
      </trkpt>
      <trkpt lat="45.09943" lon="2.6509">
        <ele>1679.56</ele>
        <time>2013-08-09T12:40:11Z</time>
      </trkpt>
      <trkpt lat="45.0994" lon="2.65084">
        <ele>1679.56</ele>
        <time>2013-08-09T12:40:15Z</time>
      </trkpt>
      <trkpt lat="45.09937" lon="2.65071">
        <ele>1678.12</ele>
        <time>2013-08-09T12:40:22Z</time>
      </trkpt>
      <trkpt lat="45.09927" lon="2.65055">
        <ele>1678.6</ele>
        <time>2013-08-09T12:40:35Z</time>
      </trkpt>
      <trkpt lat="45.09919" lon="2.65045">
        <ele>1680.52</ele>
        <time>2013-08-09T12:40:47Z</time>
      </trkpt>
      <trkpt lat="45.09917" lon="2.65039">
        <ele>1682.93</ele>
        <time>2013-08-09T12:40:54Z</time>
      </trkpt>
      <trkpt lat="45.09916" lon="2.65036">
        <ele>1682.93</ele>
        <time>2013-08-09T12:40:56Z</time>
      </trkpt>
      <trkpt lat="45.09915" lon="2.65033">
        <ele>1683.41</ele>
        <time>2013-08-09T12:40:58Z</time>
      </trkpt>
      <trkpt lat="45.09913" lon="2.65031">
        <ele>1682.93</ele>
        <time>2013-08-09T12:41:00Z</time>
      </trkpt>
      <trkpt lat="45.09912" lon="2.65029">
        <ele>1683.41</ele>
        <time>2013-08-09T12:41:02Z</time>
      </trkpt>
      <trkpt lat="45.09913" lon="2.65024">
        <ele>1682.93</ele>
        <time>2013-08-09T12:41:05Z</time>
      </trkpt>
      <trkpt lat="45.09906" lon="2.65014">
        <ele>1683.89</ele>
        <time>2013-08-09T12:41:14Z</time>
      </trkpt>
      <trkpt lat="45.099" lon="2.65007">
        <ele>1684.85</ele>
        <time>2013-08-09T12:41:23Z</time>
      </trkpt>
      <trkpt lat="45.09899" lon="2.65005">
        <ele>1685.33</ele>
        <time>2013-08-09T12:41:26Z</time>
      </trkpt>
      <trkpt lat="45.09893" lon="2.64995">
        <ele>1687.73</ele>
        <time>2013-08-09T12:41:36Z</time>
      </trkpt>
      <trkpt lat="45.09892" lon="2.64976">
        <ele>1685.81</ele>
        <time>2013-08-09T12:41:47Z</time>
      </trkpt>
      <trkpt lat="45.09886" lon="2.64955">
        <ele>1684.37</ele>
        <time>2013-08-09T12:42:00Z</time>
      </trkpt>
      <trkpt lat="45.09885" lon="2.64952">
        <ele>1684.37</ele>
        <time>2013-08-09T12:42:02Z</time>
      </trkpt>
      <trkpt lat="45.09884" lon="2.64949">
        <ele>1684.37</ele>
        <time>2013-08-09T12:42:04Z</time>
      </trkpt>
      <trkpt lat="45.09886" lon="2.6494">
        <ele>1683.89</ele>
        <time>2013-08-09T12:42:09Z</time>
      </trkpt>
      <trkpt lat="45.09888" lon="2.6493">
        <ele>1682.93</ele>
        <time>2013-08-09T12:42:15Z</time>
      </trkpt>
      <trkpt lat="45.09888" lon="2.64915">
        <ele>1681</ele>
        <time>2013-08-09T12:42:28Z</time>
      </trkpt>
      <trkpt lat="45.09888" lon="2.64914">
        <ele>1681</ele>
        <time>2013-08-09T12:42:29Z</time>
      </trkpt>
      <trkpt lat="45.09886" lon="2.64898">
        <ele>1681</ele>
        <time>2013-08-09T12:42:38Z</time>
      </trkpt>
      <trkpt lat="45.09884" lon="2.64893">
        <ele>1680.52</ele>
        <time>2013-08-09T12:42:42Z</time>
      </trkpt>
      <trkpt lat="45.0987" lon="2.6487">
        <ele>1678.12</ele>
        <time>2013-08-09T12:42:59Z</time>
      </trkpt>
      <trkpt lat="45.09864" lon="2.6486">
        <ele>1677.16</ele>
        <time>2013-08-09T12:43:06Z</time>
      </trkpt>
      <trkpt lat="45.0986" lon="2.64838">
        <ele>1674.75</ele>
        <time>2013-08-09T12:43:19Z</time>
      </trkpt>
      <trkpt lat="45.09852" lon="2.64823">
        <ele>1674.75</ele>
        <time>2013-08-09T12:43:29Z</time>
      </trkpt>
      <trkpt lat="45.09848" lon="2.64797">
        <ele>1673.79</ele>
        <time>2013-08-09T12:43:44Z</time>
      </trkpt>
      <trkpt lat="45.09843" lon="2.64784">
        <ele>1674.75</ele>
        <time>2013-08-09T12:43:55Z</time>
      </trkpt>
      <trkpt lat="45.09838" lon="2.64776">
        <ele>1674.27</ele>
        <time>2013-08-09T12:44:03Z</time>
      </trkpt>
      <trkpt lat="45.09835" lon="2.64766">
        <ele>1673.31</ele>
        <time>2013-08-09T12:44:15Z</time>
      </trkpt>
      <trkpt lat="45.09835" lon="2.64765">
        <ele>1673.31</ele>
        <time>2013-08-09T12:44:38Z</time>
      </trkpt>
      <trkpt lat="45.09834" lon="2.64765">
        <ele>1672.83</ele>
        <time>2013-08-09T12:44:52Z</time>
      </trkpt>
      <trkpt lat="45.09833" lon="2.64759">
        <ele>1674.75</ele>
        <time>2013-08-09T12:45:06Z</time>
      </trkpt>
      <trkpt lat="45.09833" lon="2.64748">
        <ele>1674.75</ele>
        <time>2013-08-09T12:45:13Z</time>
      </trkpt>
      <trkpt lat="45.09829" lon="2.64741">
        <ele>1675.23</ele>
        <time>2013-08-09T12:45:23Z</time>
      </trkpt>
      <trkpt lat="45.09829" lon="2.6474">
        <ele>1675.23</ele>
        <time>2013-08-09T12:45:40Z</time>
      </trkpt>
      <trkpt lat="45.09829" lon="2.64737">
        <ele>1674.75</ele>
        <time>2013-08-09T12:45:42Z</time>
      </trkpt>
      <trkpt lat="45.09821" lon="2.64724">
        <ele>1677.64</ele>
        <time>2013-08-09T12:45:55Z</time>
      </trkpt>
      <trkpt lat="45.09818" lon="2.64719">
        <ele>1678.6</ele>
        <time>2013-08-09T12:46:00Z</time>
      </trkpt>
      <trkpt lat="45.09815" lon="2.64713">
        <ele>1679.08</ele>
        <time>2013-08-09T12:46:05Z</time>
      </trkpt>
      <trkpt lat="45.09812" lon="2.64705">
        <ele>1680.52</ele>
        <time>2013-08-09T12:46:17Z</time>
      </trkpt>
      <trkpt lat="45.09812" lon="2.64705">
        <ele>1680.52</ele>
        <time>2013-08-09T12:46:21Z</time>
      </trkpt>
      <trkpt lat="45.0981" lon="2.64709">
        <ele>1681.48</ele>
        <time>2013-08-09T12:46:33Z</time>
      </trkpt>
      <trkpt lat="45.0981" lon="2.64709">
        <ele>1681</ele>
        <time>2013-08-09T12:46:34Z</time>
      </trkpt>
      <trkpt lat="45.0981" lon="2.647">
        <ele>1680.04</ele>
        <time>2013-08-09T12:46:40Z</time>
      </trkpt>
      <trkpt lat="45.09808" lon="2.64697">
        <ele>1680.52</ele>
        <time>2013-08-09T12:46:43Z</time>
      </trkpt>
      <trkpt lat="45.09807" lon="2.64695">
        <ele>1681</ele>
        <time>2013-08-09T12:46:45Z</time>
      </trkpt>
      <trkpt lat="45.09805" lon="2.64691">
        <ele>1681.48</ele>
        <time>2013-08-09T12:46:48Z</time>
      </trkpt>
      <trkpt lat="45.09804" lon="2.64687">
        <ele>1681.48</ele>
        <time>2013-08-09T12:46:51Z</time>
      </trkpt>
      <trkpt lat="45.098" lon="2.64676">
        <ele>1682.44</ele>
        <time>2013-08-09T12:47:03Z</time>
      </trkpt>
      <trkpt lat="45.09797" lon="2.6467">
        <ele>1682.93</ele>
        <time>2013-08-09T12:47:18Z</time>
      </trkpt>
      <trkpt lat="45.09795" lon="2.64663">
        <ele>1682.93</ele>
        <time>2013-08-09T12:47:23Z</time>
      </trkpt>
      <trkpt lat="45.09788" lon="2.64648">
        <ele>1684.37</ele>
        <time>2013-08-09T12:47:37Z</time>
      </trkpt>
      <trkpt lat="45.09783" lon="2.64637">
        <ele>1685.33</ele>
        <time>2013-08-09T12:47:49Z</time>
      </trkpt>
      <trkpt lat="45.09779" lon="2.6463">
        <ele>1686.77</ele>
        <time>2013-08-09T12:47:55Z</time>
      </trkpt>
      <trkpt lat="45.09778" lon="2.64626">
        <ele>1686.77</ele>
        <time>2013-08-09T12:47:58Z</time>
      </trkpt>
      <trkpt lat="45.09771" lon="2.64613">
        <ele>1689.17</ele>
        <time>2013-08-09T12:48:10Z</time>
      </trkpt>
      <trkpt lat="45.09767" lon="2.64608">
        <ele>1689.65</ele>
        <time>2013-08-09T12:48:16Z</time>
      </trkpt>
      <trkpt lat="45.09765" lon="2.64585">
        <ele>1689.65</ele>
        <time>2013-08-09T12:48:30Z</time>
      </trkpt>
      <trkpt lat="45.09764" lon="2.6458">
        <ele>1688.69</ele>
        <time>2013-08-09T12:48:42Z</time>
      </trkpt>
      <trkpt lat="45.09764" lon="2.64581">
        <ele>1689.17</ele>
        <time>2013-08-09T12:49:19Z</time>
      </trkpt>
      <trkpt lat="45.09763" lon="2.64579">
        <ele>1691.1</ele>
        <time>2013-08-09T12:49:26Z</time>
      </trkpt>
      <trkpt lat="45.09761" lon="2.64577">
        <ele>1691.1</ele>
        <time>2013-08-09T12:49:28Z</time>
      </trkpt>
      <trkpt lat="45.09759" lon="2.64574">
        <ele>1693.02</ele>
        <time>2013-08-09T12:49:40Z</time>
      </trkpt>
      <trkpt lat="45.09755" lon="2.64576">
        <ele>1695.9</ele>
        <time>2013-08-09T12:49:50Z</time>
      </trkpt>
      <trkpt lat="45.09754" lon="2.64576">
        <ele>1695.9</ele>
        <time>2013-08-09T12:49:51Z</time>
      </trkpt>
      <trkpt lat="45.09751" lon="2.64573">
        <ele>1697.83</ele>
        <time>2013-08-09T12:49:56Z</time>
      </trkpt>
      <trkpt lat="45.09749" lon="2.64573">
        <ele>1698.31</ele>
        <time>2013-08-09T12:49:59Z</time>
      </trkpt>
      <trkpt lat="45.09738" lon="2.64567">
        <ele>1700.23</ele>
        <time>2013-08-09T12:50:12Z</time>
      </trkpt>
      <trkpt lat="45.09734" lon="2.64563">
        <ele>1701.19</ele>
        <time>2013-08-09T12:50:20Z</time>
      </trkpt>
      <trkpt lat="45.09724" lon="2.64546">
        <ele>1702.15</ele>
        <time>2013-08-09T12:50:34Z</time>
      </trkpt>
      <trkpt lat="45.09718" lon="2.64543">
        <ele>1702.63</ele>
        <time>2013-08-09T12:50:41Z</time>
      </trkpt>
      <trkpt lat="45.09716" lon="2.64545">
        <ele>1703.11</ele>
        <time>2013-08-09T12:50:44Z</time>
      </trkpt>
      <trkpt lat="45.09708" lon="2.64549">
        <ele>1705.52</ele>
        <time>2013-08-09T12:50:53Z</time>
      </trkpt>
      <trkpt lat="45.09698" lon="2.64542">
        <ele>1708.4</ele>
        <time>2013-08-09T12:51:07Z</time>
      </trkpt>
      <trkpt lat="45.09692" lon="2.64536">
        <ele>1711.28</ele>
        <time>2013-08-09T12:51:18Z</time>
      </trkpt>
      <trkpt lat="45.09686" lon="2.64527">
        <ele>1714.17</ele>
        <time>2013-08-09T12:51:30Z</time>
      </trkpt>
      <trkpt lat="45.0968" lon="2.64522">
        <ele>1717.05</ele>
        <time>2013-08-09T12:51:40Z</time>
      </trkpt>
      <trkpt lat="45.09675" lon="2.64517">
        <ele>1718.97</ele>
        <time>2013-08-09T12:51:48Z</time>
      </trkpt>
      <trkpt lat="45.09673" lon="2.64517">
        <ele>1719.94</ele>
        <time>2013-08-09T12:51:51Z</time>
      </trkpt>
      <trkpt lat="45.09669" lon="2.64514">
        <ele>1721.86</ele>
        <time>2013-08-09T12:52:02Z</time>
      </trkpt>
      <trkpt lat="45.09669" lon="2.64512">
        <ele>1722.82</ele>
        <time>2013-08-09T12:52:05Z</time>
      </trkpt>
      <trkpt lat="45.09665" lon="2.64506">
        <ele>1724.74</ele>
        <time>2013-08-09T12:52:14Z</time>
      </trkpt>
      <trkpt lat="45.09662" lon="2.64505">
        <ele>1725.7</ele>
        <time>2013-08-09T12:52:18Z</time>
      </trkpt>
      <trkpt lat="45.09659" lon="2.645">
        <ele>1727.15</ele>
        <time>2013-08-09T12:52:24Z</time>
      </trkpt>
      <trkpt lat="45.09649" lon="2.6449">
        <ele>1730.03</ele>
        <time>2013-08-09T12:52:38Z</time>
      </trkpt>
      <trkpt lat="45.09642" lon="2.64479">
        <ele>1732.43</ele>
        <time>2013-08-09T12:52:51Z</time>
      </trkpt>
      <trkpt lat="45.09635" lon="2.64474">
        <ele>1732.91</ele>
        <time>2013-08-09T12:53:03Z</time>
      </trkpt>
      <trkpt lat="45.0963" lon="2.64472">
        <ele>1733.88</ele>
        <time>2013-08-09T12:53:10Z</time>
      </trkpt>
      <trkpt lat="45.09625" lon="2.64476">
        <ele>1735.32</ele>
        <time>2013-08-09T12:53:24Z</time>
      </trkpt>
      <trkpt lat="45.09625" lon="2.64477">
        <ele>1733.88</ele>
        <time>2013-08-09T12:53:40Z</time>
      </trkpt>
      <trkpt lat="45.09624" lon="2.64476">
        <ele>1733.88</ele>
        <time>2013-08-09T12:54:06Z</time>
      </trkpt>
      <trkpt lat="45.09624" lon="2.64477">
        <ele>1732.43</ele>
        <time>2013-08-09T12:54:32Z</time>
      </trkpt>
      <trkpt lat="45.09624" lon="2.64476">
        <ele>1733.88</ele>
        <time>2013-08-09T12:54:58Z</time>
      </trkpt>
      <trkpt lat="45.09624" lon="2.64476">
        <ele>1734.36</ele>
        <time>2013-08-09T12:55:35Z</time>
      </trkpt>
      <trkpt lat="45.09624" lon="2.64476">
        <ele>1735.8</ele>
        <time>2013-08-09T12:55:45Z</time>
      </trkpt>
      <trkpt lat="45.09623" lon="2.64473">
        <ele>1735.8</ele>
        <time>2013-08-09T12:55:47Z</time>
      </trkpt>
      <trkpt lat="45.09619" lon="2.64471">
        <ele>1734.84</ele>
        <time>2013-08-09T12:55:50Z</time>
      </trkpt>
      <trkpt lat="45.09612" lon="2.6447">
        <ele>1732.91</ele>
        <time>2013-08-09T12:55:56Z</time>
      </trkpt>
      <trkpt lat="45.09609" lon="2.64469">
        <ele>1732.43</ele>
        <time>2013-08-09T12:55:58Z</time>
      </trkpt>
      <trkpt lat="45.09589" lon="2.6447">
        <ele>1731.47</ele>
        <time>2013-08-09T12:56:13Z</time>
      </trkpt>
      <trkpt lat="45.09573" lon="2.64472">
        <ele>1730.03</ele>
        <time>2013-08-09T12:56:25Z</time>
      </trkpt>
      <trkpt lat="45.09555" lon="2.64482">
        <ele>1730.99</ele>
        <time>2013-08-09T12:56:39Z</time>
      </trkpt>
      <trkpt lat="45.09539" lon="2.6449">
        <ele>1730.51</ele>
        <time>2013-08-09T12:56:52Z</time>
      </trkpt>
      <trkpt lat="45.09521" lon="2.64496">
        <ele>1731.47</ele>
        <time>2013-08-09T12:57:05Z</time>
      </trkpt>
      <trkpt lat="45.09513" lon="2.64503">
        <ele>1733.39</ele>
        <time>2013-08-09T12:57:13Z</time>
      </trkpt>
      <trkpt lat="45.09508" lon="2.64511">
        <ele>1734.84</ele>
        <time>2013-08-09T12:57:26Z</time>
      </trkpt>
      <trkpt lat="45.09508" lon="2.64511">
        <ele>1733.88</ele>
        <time>2013-08-09T12:57:49Z</time>
      </trkpt>
      <trkpt lat="45.09509" lon="2.64507">
        <ele>1734.84</ele>
        <time>2013-08-09T12:58:00Z</time>
      </trkpt>
      <trkpt lat="45.0951" lon="2.64502">
        <ele>1732.43</ele>
        <time>2013-08-09T12:58:12Z</time>
      </trkpt>
      <trkpt lat="45.0951" lon="2.64503">
        <ele>1733.88</ele>
        <time>2013-08-09T12:58:25Z</time>
      </trkpt>
      <trkpt lat="45.0951" lon="2.64504">
        <ele>1732.91</ele>
        <time>2013-08-09T12:58:57Z</time>
      </trkpt>
      <trkpt lat="45.0951" lon="2.64503">
        <ele>1733.39</ele>
        <time>2013-08-09T12:59:27Z</time>
      </trkpt>
      <trkpt lat="45.09509" lon="2.64503">
        <ele>1733.39</ele>
        <time>2013-08-09T12:59:41Z</time>
      </trkpt>
      <trkpt lat="45.09509" lon="2.64502">
        <ele>1733.39</ele>
        <time>2013-08-09T13:00:00Z</time>
      </trkpt>
      <trkpt lat="45.09509" lon="2.64502">
        <ele>1733.39</ele>
        <time>2013-08-09T13:00:18Z</time>
      </trkpt>
      <trkpt lat="45.09509" lon="2.64501">
        <ele>1733.88</ele>
        <time>2013-08-09T13:00:49Z</time>
      </trkpt>
      <trkpt lat="45.09509" lon="2.64501">
        <ele>1733.39</ele>
        <time>2013-08-09T13:01:00Z</time>
      </trkpt>
      <trkpt lat="45.09509" lon="2.64501">
        <ele>1733.39</ele>
        <time>2013-08-09T13:01:31Z</time>
      </trkpt>
      <trkpt lat="45.09508" lon="2.64501">
        <ele>1732.91</ele>
        <time>2013-08-09T13:01:45Z</time>
      </trkpt>
      <trkpt lat="45.09508" lon="2.645">
        <ele>1732.91</ele>
        <time>2013-08-09T13:02:12Z</time>
      </trkpt>
      <trkpt lat="45.09508" lon="2.645">
        <ele>1733.39</ele>
        <time>2013-08-09T13:02:45Z</time>
      </trkpt>
      <trkpt lat="45.09508" lon="2.64501">
        <ele>1733.39</ele>
        <time>2013-08-09T13:03:05Z</time>
      </trkpt>
      <trkpt lat="45.09508" lon="2.64501">
        <ele>1733.88</ele>
        <time>2013-08-09T13:03:40Z</time>
      </trkpt>
      <trkpt lat="45.09508" lon="2.64502">
        <ele>1733.88</ele>
        <time>2013-08-09T13:04:10Z</time>
      </trkpt>
      <trkpt lat="45.09508" lon="2.64502">
        <ele>1734.36</ele>
        <time>2013-08-09T13:04:43Z</time>
      </trkpt>
      <trkpt lat="45.09508" lon="2.64502">
        <ele>1733.88</ele>
        <time>2013-08-09T13:05:17Z</time>
      </trkpt>
      <trkpt lat="45.09508" lon="2.64502">
        <ele>1734.36</ele>
        <time>2013-08-09T13:05:51Z</time>
      </trkpt>
      <trkpt lat="45.09508" lon="2.64502">
        <ele>1734.84</ele>
        <time>2013-08-09T13:06:26Z</time>
      </trkpt>
      <trkpt lat="45.09509" lon="2.64499">
        <ele>1733.88</ele>
        <time>2013-08-09T13:06:47Z</time>
      </trkpt>
      <trkpt lat="45.09508" lon="2.64494">
        <ele>1734.36</ele>
        <time>2013-08-09T13:06:51Z</time>
      </trkpt>
      <trkpt lat="45.09506" lon="2.64483">
        <ele>1732.91</ele>
        <time>2013-08-09T13:07:01Z</time>
      </trkpt>
      <trkpt lat="45.09506" lon="2.64478">
        <ele>1732.43</ele>
        <time>2013-08-09T13:07:04Z</time>
      </trkpt>
      <trkpt lat="45.09505" lon="2.64463">
        <ele>1729.55</ele>
        <time>2013-08-09T13:07:17Z</time>
      </trkpt>
      <trkpt lat="45.09506" lon="2.6446">
        <ele>1729.55</ele>
        <time>2013-08-09T13:07:22Z</time>
      </trkpt>
      <trkpt lat="45.09507" lon="2.64457">
        <ele>1729.07</ele>
        <time>2013-08-09T13:07:24Z</time>
      </trkpt>
      <trkpt lat="45.09509" lon="2.64447">
        <ele>1729.07</ele>
        <time>2013-08-09T13:07:31Z</time>
      </trkpt>
      <trkpt lat="45.09511" lon="2.64435">
        <ele>1726.18</ele>
        <time>2013-08-09T13:07:39Z</time>
      </trkpt>
      <trkpt lat="45.09509" lon="2.64433">
        <ele>1725.7</ele>
        <time>2013-08-09T13:07:41Z</time>
      </trkpt>
      <trkpt lat="45.09502" lon="2.64429">
        <ele>1724.26</ele>
        <time>2013-08-09T13:07:57Z</time>
      </trkpt>
      <trkpt lat="45.09502" lon="2.64428">
        <ele>1724.26</ele>
        <time>2013-08-09T13:08:00Z</time>
      </trkpt>
      <trkpt lat="45.09501" lon="2.64426">
        <ele>1723.78</ele>
        <time>2013-08-09T13:08:02Z</time>
      </trkpt>
      <trkpt lat="45.09497" lon="2.64423">
        <ele>1722.82</ele>
        <time>2013-08-09T13:08:05Z</time>
      </trkpt>
      <trkpt lat="45.09487" lon="2.6441">
        <ele>1719.94</ele>
        <time>2013-08-09T13:08:19Z</time>
      </trkpt>
      <trkpt lat="45.09485" lon="2.64409">
        <ele>1719.46</ele>
        <time>2013-08-09T13:08:21Z</time>
      </trkpt>
      <trkpt lat="45.0948" lon="2.64402">
        <ele>1718.49</ele>
        <time>2013-08-09T13:08:27Z</time>
      </trkpt>
      <trkpt lat="45.0947" lon="2.64387">
        <ele>1715.13</ele>
        <time>2013-08-09T13:08:41Z</time>
      </trkpt>
      <trkpt lat="45.09462" lon="2.64374">
        <ele>1713.21</ele>
        <time>2013-08-09T13:08:52Z</time>
      </trkpt>
      <trkpt lat="45.09458" lon="2.64366">
        <ele>1711.76</ele>
        <time>2013-08-09T13:08:58Z</time>
      </trkpt>
      <trkpt lat="45.09455" lon="2.64365">
        <ele>1710.32</ele>
        <time>2013-08-09T13:09:01Z</time>
      </trkpt>
      <trkpt lat="45.09444" lon="2.64356">
        <ele>1707.92</ele>
        <time>2013-08-09T13:09:11Z</time>
      </trkpt>
      <trkpt lat="45.09434" lon="2.64353">
        <ele>1706.48</ele>
        <time>2013-08-09T13:09:22Z</time>
      </trkpt>
      <trkpt lat="45.09416" lon="2.64344">
        <ele>1704.55</ele>
        <time>2013-08-09T13:09:38Z</time>
      </trkpt>
      <trkpt lat="45.09411" lon="2.64342">
        <ele>1704.07</ele>
        <time>2013-08-09T13:09:43Z</time>
      </trkpt>
      <trkpt lat="45.09404" lon="2.6434">
        <ele>1703.59</ele>
        <time>2013-08-09T13:09:49Z</time>
      </trkpt>
      <trkpt lat="45.09387" lon="2.64332">
        <ele>1703.11</ele>
        <time>2013-08-09T13:10:03Z</time>
      </trkpt>
      <trkpt lat="45.09383" lon="2.64333">
        <ele>1702.63</ele>
        <time>2013-08-09T13:10:07Z</time>
      </trkpt>
      <trkpt lat="45.09376" lon="2.64334">
        <ele>1703.11</ele>
        <time>2013-08-09T13:10:13Z</time>
      </trkpt>
      <trkpt lat="45.09368" lon="2.6433">
        <ele>1703.59</ele>
        <time>2013-08-09T13:10:24Z</time>
      </trkpt>
      <trkpt lat="45.09364" lon="2.64325">
        <ele>1703.59</ele>
        <time>2013-08-09T13:10:28Z</time>
      </trkpt>
      <trkpt lat="45.09349" lon="2.6431">
        <ele>1702.15</ele>
        <time>2013-08-09T13:10:44Z</time>
      </trkpt>
      <trkpt lat="45.09334" lon="2.64302">
        <ele>1702.15</ele>
        <time>2013-08-09T13:10:57Z</time>
      </trkpt>
      <trkpt lat="45.09324" lon="2.643">
        <ele>1701.67</ele>
        <time>2013-08-09T13:11:05Z</time>
      </trkpt>
      <trkpt lat="45.0932" lon="2.64298">
        <ele>1701.67</ele>
        <time>2013-08-09T13:11:09Z</time>
      </trkpt>
      <trkpt lat="45.09301" lon="2.64288">
        <ele>1700.23</ele>
        <time>2013-08-09T13:11:26Z</time>
      </trkpt>
      <trkpt lat="45.09294" lon="2.64284">
        <ele>1700.23</ele>
        <time>2013-08-09T13:11:33Z</time>
      </trkpt>
      <trkpt lat="45.0929" lon="2.64281">
        <ele>1700.23</ele>
        <time>2013-08-09T13:11:37Z</time>
      </trkpt>
      <trkpt lat="45.09285" lon="2.64277">
        <ele>1699.75</ele>
        <time>2013-08-09T13:11:42Z</time>
      </trkpt>
      <trkpt lat="45.09269" lon="2.64268">
        <ele>1697.83</ele>
        <time>2013-08-09T13:11:56Z</time>
      </trkpt>
      <trkpt lat="45.09253" lon="2.64264">
        <ele>1697.34</ele>
        <time>2013-08-09T13:12:11Z</time>
      </trkpt>
      <trkpt lat="45.09238" lon="2.64262">
        <ele>1695.9</ele>
        <time>2013-08-09T13:12:24Z</time>
      </trkpt>
      <trkpt lat="45.09218" lon="2.64262">
        <ele>1694.46</ele>
        <time>2013-08-09T13:12:41Z</time>
      </trkpt>
      <trkpt lat="45.09202" lon="2.6426">
        <ele>1690.62</ele>
        <time>2013-08-09T13:12:54Z</time>
      </trkpt>
      <trkpt lat="45.09198" lon="2.64262">
        <ele>1689.65</ele>
        <time>2013-08-09T13:12:58Z</time>
      </trkpt>
      <trkpt lat="45.09189" lon="2.64265">
        <ele>1687.73</ele>
        <time>2013-08-09T13:13:06Z</time>
      </trkpt>
      <trkpt lat="45.09177" lon="2.64269">
        <ele>1684.37</ele>
        <time>2013-08-09T13:13:20Z</time>
      </trkpt>
      <trkpt lat="45.09166" lon="2.6427">
        <ele>1681</ele>
        <time>2013-08-09T13:13:31Z</time>
      </trkpt>
      <trkpt lat="45.09164" lon="2.6427">
        <ele>1680.52</ele>
        <time>2013-08-09T13:13:34Z</time>
      </trkpt>
      <trkpt lat="45.09154" lon="2.64272">
        <ele>1676.68</ele>
        <time>2013-08-09T13:13:44Z</time>
      </trkpt>
      <trkpt lat="45.09149" lon="2.64272">
        <ele>1674.75</ele>
        <time>2013-08-09T13:13:50Z</time>
      </trkpt>
      <trkpt lat="45.09144" lon="2.64278">
        <ele>1672.83</ele>
        <time>2013-08-09T13:14:02Z</time>
      </trkpt>
      <trkpt lat="45.09143" lon="2.64278">
        <ele>1670.43</ele>
        <time>2013-08-09T13:14:15Z</time>
      </trkpt>
      <trkpt lat="45.09141" lon="2.6428">
        <ele>1668.51</ele>
        <time>2013-08-09T13:14:26Z</time>
      </trkpt>
      <trkpt lat="45.0914" lon="2.6428">
        <ele>1668.51</ele>
        <time>2013-08-09T13:14:27Z</time>
      </trkpt>
      <trkpt lat="45.09138" lon="2.64284">
        <ele>1667.54</ele>
        <time>2013-08-09T13:14:31Z</time>
      </trkpt>
      <trkpt lat="45.0913" lon="2.64287">
        <ele>1664.18</ele>
        <time>2013-08-09T13:14:43Z</time>
      </trkpt>
      <trkpt lat="45.09127" lon="2.64288">
        <ele>1663.7</ele>
        <time>2013-08-09T13:14:50Z</time>
      </trkpt>
      <trkpt lat="45.09118" lon="2.64291">
        <ele>1661.78</ele>
        <time>2013-08-09T13:15:02Z</time>
      </trkpt>
      <trkpt lat="45.09114" lon="2.64295">
        <ele>1659.37</ele>
        <time>2013-08-09T13:15:14Z</time>
      </trkpt>
      <trkpt lat="45.09114" lon="2.64295">
        <ele>1658.41</ele>
        <time>2013-08-09T13:15:16Z</time>
      </trkpt>
      <trkpt lat="45.09113" lon="2.64296">
        <ele>1657.93</ele>
        <time>2013-08-09T13:15:45Z</time>
      </trkpt>
      <trkpt lat="45.09112" lon="2.64297">
        <ele>1657.45</ele>
        <time>2013-08-09T13:16:17Z</time>
      </trkpt>
      <trkpt lat="45.09112" lon="2.64297">
        <ele>1657.93</ele>
        <time>2013-08-09T13:16:48Z</time>
      </trkpt>
      <trkpt lat="45.09112" lon="2.64298">
        <ele>1657.93</ele>
        <time>2013-08-09T13:17:18Z</time>
      </trkpt>
      <trkpt lat="45.09111" lon="2.64297">
        <ele>1657.93</ele>
        <time>2013-08-09T13:17:49Z</time>
      </trkpt>
      <trkpt lat="45.09111" lon="2.64297">
        <ele>1658.41</ele>
        <time>2013-08-09T13:18:21Z</time>
      </trkpt>
      <trkpt lat="45.09111" lon="2.64297">
        <ele>1658.41</ele>
        <time>2013-08-09T13:18:57Z</time>
      </trkpt>
      <trkpt lat="45.09111" lon="2.64297">
        <ele>1658.41</ele>
        <time>2013-08-09T13:19:32Z</time>
      </trkpt>
      <trkpt lat="45.09111" lon="2.64297">
        <ele>1658.41</ele>
        <time>2013-08-09T13:20:03Z</time>
      </trkpt>
      <trkpt lat="45.09111" lon="2.64297">
        <ele>1657.93</ele>
        <time>2013-08-09T13:20:29Z</time>
      </trkpt>
      <trkpt lat="45.09111" lon="2.64297">
        <ele>1658.41</ele>
        <time>2013-08-09T13:21:03Z</time>
      </trkpt>
      <trkpt lat="45.09108" lon="2.64301">
        <ele>1657.93</ele>
        <time>2013-08-09T13:21:32Z</time>
      </trkpt>
      <trkpt lat="45.09104" lon="2.64307">
        <ele>1655.53</ele>
        <time>2013-08-09T13:21:41Z</time>
      </trkpt>
      <trkpt lat="45.091" lon="2.6431">
        <ele>1654.09</ele>
        <time>2013-08-09T13:21:45Z</time>
      </trkpt>
      <trkpt lat="45.09097" lon="2.64313">
        <ele>1652.64</ele>
        <time>2013-08-09T13:21:48Z</time>
      </trkpt>
      <trkpt lat="45.09093" lon="2.64316">
        <ele>1650.72</ele>
        <time>2013-08-09T13:21:52Z</time>
      </trkpt>
      <trkpt lat="45.09085" lon="2.64326">
        <ele>1647.36</ele>
        <time>2013-08-09T13:22:04Z</time>
      </trkpt>
      <trkpt lat="45.09083" lon="2.64328">
        <ele>1646.88</ele>
        <time>2013-08-09T13:22:06Z</time>
      </trkpt>
      <trkpt lat="45.09077" lon="2.64334">
        <ele>1644.47</ele>
        <time>2013-08-09T13:22:12Z</time>
      </trkpt>
      <trkpt lat="45.09064" lon="2.6434">
        <ele>1641.59</ele>
        <time>2013-08-09T13:22:24Z</time>
      </trkpt>
      <trkpt lat="45.09052" lon="2.64348">
        <ele>1637.74</ele>
        <time>2013-08-09T13:22:38Z</time>
      </trkpt>
      <trkpt lat="45.09047" lon="2.64352">
        <ele>1636.78</ele>
        <time>2013-08-09T13:22:44Z</time>
      </trkpt>
      <trkpt lat="45.09044" lon="2.64356">
        <ele>1636.3</ele>
        <time>2013-08-09T13:22:50Z</time>
      </trkpt>
      <trkpt lat="45.0904" lon="2.6436">
        <ele>1633.42</ele>
        <time>2013-08-09T13:22:58Z</time>
      </trkpt>
      <trkpt lat="45.09027" lon="2.64372">
        <ele>1630.05</ele>
        <time>2013-08-09T13:23:11Z</time>
      </trkpt>
      <trkpt lat="45.09017" lon="2.64383">
        <ele>1627.17</ele>
        <time>2013-08-09T13:23:22Z</time>
      </trkpt>
      <trkpt lat="45.09005" lon="2.64394">
        <ele>1623.32</ele>
        <time>2013-08-09T13:23:33Z</time>
      </trkpt>
      <trkpt lat="45.08995" lon="2.64399">
        <ele>1621.4</ele>
        <time>2013-08-09T13:23:43Z</time>
      </trkpt>
      <trkpt lat="45.0898" lon="2.64406">
        <ele>1620.92</ele>
        <time>2013-08-09T13:23:57Z</time>
      </trkpt>
      <trkpt lat="45.08964" lon="2.64409">
        <ele>1621.88</ele>
        <time>2013-08-09T13:24:11Z</time>
      </trkpt>
      <trkpt lat="45.08947" lon="2.64411">
        <ele>1621.88</ele>
        <time>2013-08-09T13:24:25Z</time>
      </trkpt>
      <trkpt lat="45.08933" lon="2.64412">
        <ele>1619.96</ele>
        <time>2013-08-09T13:24:39Z</time>
      </trkpt>
      <trkpt lat="45.08932" lon="2.64412">
        <ele>1619.96</ele>
        <time>2013-08-09T13:24:42Z</time>
      </trkpt>
      <trkpt lat="45.08921" lon="2.64413">
        <ele>1618.04</ele>
        <time>2013-08-09T13:24:54Z</time>
      </trkpt>
      <trkpt lat="45.08916" lon="2.64411">
        <ele>1616.59</ele>
        <time>2013-08-09T13:24:59Z</time>
      </trkpt>
      <trkpt lat="45.0891" lon="2.64412">
        <ele>1616.59</ele>
        <time>2013-08-09T13:25:10Z</time>
      </trkpt>
      <trkpt lat="45.08906" lon="2.6441">
        <ele>1615.15</ele>
        <time>2013-08-09T13:25:20Z</time>
      </trkpt>
      <trkpt lat="45.08904" lon="2.64407">
        <ele>1612.75</ele>
        <time>2013-08-09T13:25:30Z</time>
      </trkpt>
      <trkpt lat="45.08903" lon="2.64402">
        <ele>1611.79</ele>
        <time>2013-08-09T13:25:36Z</time>
      </trkpt>
      <trkpt lat="45.089" lon="2.64401">
        <ele>1610.35</ele>
        <time>2013-08-09T13:25:40Z</time>
      </trkpt>
      <trkpt lat="45.08899" lon="2.64399">
        <ele>1608.42</ele>
        <time>2013-08-09T13:25:44Z</time>
      </trkpt>
      <trkpt lat="45.08895" lon="2.64397">
        <ele>1608.42</ele>
        <time>2013-08-09T13:25:56Z</time>
      </trkpt>
      <trkpt lat="45.08892" lon="2.64396">
        <ele>1607.46</ele>
        <time>2013-08-09T13:26:10Z</time>
      </trkpt>
      <trkpt lat="45.08893" lon="2.64396">
        <ele>1607.94</ele>
        <time>2013-08-09T13:26:33Z</time>
      </trkpt>
      <trkpt lat="45.08891" lon="2.64395">
        <ele>1606.5</ele>
        <time>2013-08-09T13:26:45Z</time>
      </trkpt>
      <trkpt lat="45.08884" lon="2.64393">
        <ele>1603.14</ele>
        <time>2013-08-09T13:26:55Z</time>
      </trkpt>
      <trkpt lat="45.08884" lon="2.64392">
        <ele>1601.21</ele>
        <time>2013-08-09T13:26:58Z</time>
      </trkpt>
      <trkpt lat="45.08883" lon="2.64393">
        <ele>1602.17</ele>
        <time>2013-08-09T13:27:10Z</time>
      </trkpt>
      <trkpt lat="45.08884" lon="2.64387">
        <ele>1599.29</ele>
        <time>2013-08-09T13:27:16Z</time>
      </trkpt>
      <trkpt lat="45.08884" lon="2.6438">
        <ele>1597.37</ele>
        <time>2013-08-09T13:27:21Z</time>
      </trkpt>
      <trkpt lat="45.08884" lon="2.64378">
        <ele>1596.41</ele>
        <time>2013-08-09T13:27:24Z</time>
      </trkpt>
      <trkpt lat="45.08882" lon="2.64372">
        <ele>1595.93</ele>
        <time>2013-08-09T13:27:29Z</time>
      </trkpt>
      <trkpt lat="45.08882" lon="2.64368">
        <ele>1594.48</ele>
        <time>2013-08-09T13:27:32Z</time>
      </trkpt>
      <trkpt lat="45.08882" lon="2.64363">
        <ele>1593.52</ele>
        <time>2013-08-09T13:27:35Z</time>
      </trkpt>
      <trkpt lat="45.08879" lon="2.64357">
        <ele>1592.08</ele>
        <time>2013-08-09T13:27:48Z</time>
      </trkpt>
      <trkpt lat="45.08877" lon="2.64357">
        <ele>1591.12</ele>
        <time>2013-08-09T13:28:04Z</time>
      </trkpt>
      <trkpt lat="45.08877" lon="2.64357">
        <ele>1591.12</ele>
        <time>2013-08-09T13:28:33Z</time>
      </trkpt>
      <trkpt lat="45.08875" lon="2.64359">
        <ele>1590.16</ele>
        <time>2013-08-09T13:28:50Z</time>
      </trkpt>
      <trkpt lat="45.0887" lon="2.64362">
        <ele>1588.24</ele>
        <time>2013-08-09T13:29:07Z</time>
      </trkpt>
      <trkpt lat="45.08869" lon="2.64363">
        <ele>1587.75</ele>
        <time>2013-08-09T13:29:12Z</time>
      </trkpt>
      <trkpt lat="45.08864" lon="2.64365">
        <ele>1585.83</ele>
        <time>2013-08-09T13:29:23Z</time>
      </trkpt>
      <trkpt lat="45.08863" lon="2.64369">
        <ele>1584.87</ele>
        <time>2013-08-09T13:29:36Z</time>
      </trkpt>
      <trkpt lat="45.0886" lon="2.64372">
        <ele>1584.39</ele>
        <time>2013-08-09T13:29:49Z</time>
      </trkpt>
      <trkpt lat="45.08857" lon="2.64374">
        <ele>1583.43</ele>
        <time>2013-08-09T13:29:53Z</time>
      </trkpt>
      <trkpt lat="45.08849" lon="2.64378">
        <ele>1581.03</ele>
        <time>2013-08-09T13:30:01Z</time>
      </trkpt>
      <trkpt lat="45.0884" lon="2.6438">
        <ele>1577.66</ele>
        <time>2013-08-09T13:30:11Z</time>
      </trkpt>
      <trkpt lat="45.08839" lon="2.6438">
        <ele>1577.18</ele>
        <time>2013-08-09T13:30:28Z</time>
      </trkpt>
      <trkpt lat="45.08835" lon="2.64381">
        <ele>1576.22</ele>
        <time>2013-08-09T13:30:31Z</time>
      </trkpt>
      <trkpt lat="45.0883" lon="2.64383">
        <ele>1574.78</ele>
        <time>2013-08-09T13:30:35Z</time>
      </trkpt>
      <trkpt lat="45.08825" lon="2.64383">
        <ele>1572.85</ele>
        <time>2013-08-09T13:30:39Z</time>
      </trkpt>
      <trkpt lat="45.08823" lon="2.64385">
        <ele>1571.89</ele>
        <time>2013-08-09T13:30:41Z</time>
      </trkpt>
      <trkpt lat="45.08818" lon="2.64385">
        <ele>1569.97</ele>
        <time>2013-08-09T13:30:47Z</time>
      </trkpt>
      <trkpt lat="45.08812" lon="2.64385">
        <ele>1567.09</ele>
        <time>2013-08-09T13:30:55Z</time>
      </trkpt>
      <trkpt lat="45.08811" lon="2.64386">
        <ele>1566.12</ele>
        <time>2013-08-09T13:30:57Z</time>
      </trkpt>
      <trkpt lat="45.08809" lon="2.64387">
        <ele>1565.64</ele>
        <time>2013-08-09T13:30:59Z</time>
      </trkpt>
      <trkpt lat="45.08806" lon="2.64387">
        <ele>1564.68</ele>
        <time>2013-08-09T13:31:03Z</time>
      </trkpt>
      <trkpt lat="45.08796" lon="2.64389">
        <ele>1560.84</ele>
        <time>2013-08-09T13:31:13Z</time>
      </trkpt>
      <trkpt lat="45.08792" lon="2.64391">
        <ele>1560.36</ele>
        <time>2013-08-09T13:31:19Z</time>
      </trkpt>
      <trkpt lat="45.08785" lon="2.64392">
        <ele>1557.95</ele>
        <time>2013-08-09T13:31:27Z</time>
      </trkpt>
      <trkpt lat="45.08774" lon="2.64395">
        <ele>1554.59</ele>
        <time>2013-08-09T13:31:38Z</time>
      </trkpt>
      <trkpt lat="45.08771" lon="2.64397">
        <ele>1553.63</ele>
        <time>2013-08-09T13:31:41Z</time>
      </trkpt>
      <trkpt lat="45.08759" lon="2.64402">
        <ele>1551.71</ele>
        <time>2013-08-09T13:31:54Z</time>
      </trkpt>
      <trkpt lat="45.08756" lon="2.64403">
        <ele>1551.22</ele>
        <time>2013-08-09T13:31:57Z</time>
      </trkpt>
      <trkpt lat="45.08749" lon="2.64407">
        <ele>1549.78</ele>
        <time>2013-08-09T13:32:04Z</time>
      </trkpt>
      <trkpt lat="45.08745" lon="2.6441">
        <ele>1548.82</ele>
        <time>2013-08-09T13:32:08Z</time>
      </trkpt>
      <trkpt lat="45.08741" lon="2.64411">
        <ele>1547.86</ele>
        <time>2013-08-09T13:32:13Z</time>
      </trkpt>
      <trkpt lat="45.08737" lon="2.64414">
        <ele>1547.38</ele>
        <time>2013-08-09T13:32:16Z</time>
      </trkpt>
      <trkpt lat="45.0872" lon="2.6442">
        <ele>1544.98</ele>
        <time>2013-08-09T13:32:31Z</time>
      </trkpt>
      <trkpt lat="45.08705" lon="2.64429">
        <ele>1543.53</ele>
        <time>2013-08-09T13:32:45Z</time>
      </trkpt>
      <trkpt lat="45.08685" lon="2.64439">
        <ele>1543.05</ele>
        <time>2013-08-09T13:33:02Z</time>
      </trkpt>
      <trkpt lat="45.08684" lon="2.6444">
        <ele>1543.05</ele>
        <time>2013-08-09T13:33:03Z</time>
      </trkpt>
      <trkpt lat="45.08665" lon="2.6445">
        <ele>1543.05</ele>
        <time>2013-08-09T13:33:18Z</time>
      </trkpt>
      <trkpt lat="45.08648" lon="2.64453">
        <ele>1543.05</ele>
        <time>2013-08-09T13:33:32Z</time>
      </trkpt>
      <trkpt lat="45.08642" lon="2.64455">
        <ele>1542.57</ele>
        <time>2013-08-09T13:33:38Z</time>
      </trkpt>
      <trkpt lat="45.08637" lon="2.64455">
        <ele>1543.53</ele>
        <time>2013-08-09T13:33:43Z</time>
      </trkpt>
      <trkpt lat="45.08624" lon="2.64452">
        <ele>1544.5</ele>
        <time>2013-08-09T13:33:56Z</time>
      </trkpt>
      <trkpt lat="45.08616" lon="2.6445">
        <ele>1544.98</ele>
        <time>2013-08-09T13:34:03Z</time>
      </trkpt>
      <trkpt lat="45.08614" lon="2.64448">
        <ele>1544.98</ele>
        <time>2013-08-09T13:34:05Z</time>
      </trkpt>
      <trkpt lat="45.08597" lon="2.64442">
        <ele>1545.94</ele>
        <time>2013-08-09T13:34:19Z</time>
      </trkpt>
      <trkpt lat="45.08583" lon="2.64434">
        <ele>1547.86</ele>
        <time>2013-08-09T13:34:32Z</time>
      </trkpt>
      <trkpt lat="45.08569" lon="2.64425">
        <ele>1549.3</ele>
        <time>2013-08-09T13:34:46Z</time>
      </trkpt>
      <trkpt lat="45.08558" lon="2.64416">
        <ele>1550.74</ele>
        <time>2013-08-09T13:34:57Z</time>
      </trkpt>
      <trkpt lat="45.08557" lon="2.64416">
        <ele>1551.71</ele>
        <time>2013-08-09T13:35:12Z</time>
      </trkpt>
      <trkpt lat="45.08557" lon="2.64416">
        <ele>1551.22</ele>
        <time>2013-08-09T13:35:28Z</time>
      </trkpt>
      <trkpt lat="45.08557" lon="2.64416">
        <ele>1550.74</ele>
        <time>2013-08-09T13:35:49Z</time>
      </trkpt>
      <trkpt lat="45.08546" lon="2.64415">
        <ele>1547.86</ele>
        <time>2013-08-09T13:35:59Z</time>
      </trkpt>
      <trkpt lat="45.08544" lon="2.64415">
        <ele>1547.86</ele>
        <time>2013-08-09T13:36:01Z</time>
      </trkpt>
      <trkpt lat="45.08539" lon="2.64421">
        <ele>1544.98</ele>
        <time>2013-08-09T13:36:07Z</time>
      </trkpt>
      <trkpt lat="45.08536" lon="2.64427">
        <ele>1543.05</ele>
        <time>2013-08-09T13:36:11Z</time>
      </trkpt>
      <trkpt lat="45.08528" lon="2.64427">
        <ele>1541.13</ele>
        <time>2013-08-09T13:36:24Z</time>
      </trkpt>
      <trkpt lat="45.08528" lon="2.64425">
        <ele>1541.61</ele>
        <time>2013-08-09T13:36:51Z</time>
      </trkpt>
      <trkpt lat="45.08528" lon="2.64424">
        <ele>1541.13</ele>
        <time>2013-08-09T13:37:22Z</time>
      </trkpt>
      <trkpt lat="45.08528" lon="2.64424">
        <ele>1541.13</ele>
        <time>2013-08-09T13:37:46Z</time>
      </trkpt>
      <trkpt lat="45.08528" lon="2.64425">
        <ele>1541.13</ele>
        <time>2013-08-09T13:37:50Z</time>
      </trkpt>
      <trkpt lat="45.08523" lon="2.64433">
        <ele>1538.73</ele>
        <time>2013-08-09T13:37:58Z</time>
      </trkpt>
      <trkpt lat="45.08518" lon="2.64439">
        <ele>1536.32</ele>
        <time>2013-08-09T13:38:02Z</time>
      </trkpt>
      <trkpt lat="45.08518" lon="2.64441">
        <ele>1535.84</ele>
        <time>2013-08-09T13:38:03Z</time>
      </trkpt>
      <trkpt lat="45.08515" lon="2.64447">
        <ele>1534.88</ele>
        <time>2013-08-09T13:38:06Z</time>
      </trkpt>
      <trkpt lat="45.08509" lon="2.6445">
        <ele>1532.48</ele>
        <time>2013-08-09T13:38:11Z</time>
      </trkpt>
      <trkpt lat="45.08506" lon="2.64452">
        <ele>1531.04</ele>
        <time>2013-08-09T13:38:21Z</time>
      </trkpt>
      <trkpt lat="45.08502" lon="2.64457">
        <ele>1530.08</ele>
        <time>2013-08-09T13:38:37Z</time>
      </trkpt>
      <trkpt lat="45.08499" lon="2.64461">
        <ele>1528.63</ele>
        <time>2013-08-09T13:38:40Z</time>
      </trkpt>
      <trkpt lat="45.08494" lon="2.64469">
        <ele>1525.75</ele>
        <time>2013-08-09T13:38:46Z</time>
      </trkpt>
      <trkpt lat="45.08488" lon="2.6448">
        <ele>1522.87</ele>
        <time>2013-08-09T13:38:53Z</time>
      </trkpt>
      <trkpt lat="45.08487" lon="2.64481">
        <ele>1522.39</ele>
        <time>2013-08-09T13:38:54Z</time>
      </trkpt>
      <trkpt lat="45.08484" lon="2.64491">
        <ele>1520.46</ele>
        <time>2013-08-09T13:39:00Z</time>
      </trkpt>
      <trkpt lat="45.08481" lon="2.64494">
        <ele>1519.98</ele>
        <time>2013-08-09T13:39:03Z</time>
      </trkpt>
      <trkpt lat="45.08479" lon="2.64495">
        <ele>1519.02</ele>
        <time>2013-08-09T13:39:05Z</time>
      </trkpt>
      <trkpt lat="45.08476" lon="2.64502">
        <ele>1517.58</ele>
        <time>2013-08-09T13:39:10Z</time>
      </trkpt>
      <trkpt lat="45.08473" lon="2.64507">
        <ele>1516.14</ele>
        <time>2013-08-09T13:39:13Z</time>
      </trkpt>
      <trkpt lat="45.08465" lon="2.64524">
        <ele>1512.77</ele>
        <time>2013-08-09T13:39:23Z</time>
      </trkpt>
      <trkpt lat="45.08459" lon="2.6453">
        <ele>1509.41</ele>
        <time>2013-08-09T13:39:28Z</time>
      </trkpt>
      <trkpt lat="45.08453" lon="2.64538">
        <ele>1506.52</ele>
        <time>2013-08-09T13:39:34Z</time>
      </trkpt>
      <trkpt lat="45.08448" lon="2.64553">
        <ele>1503.16</ele>
        <time>2013-08-09T13:39:43Z</time>
      </trkpt>
      <trkpt lat="45.08445" lon="2.64558">
        <ele>1501.24</ele>
        <time>2013-08-09T13:39:49Z</time>
      </trkpt>
      <trkpt lat="45.08443" lon="2.64562">
        <ele>1501.24</ele>
        <time>2013-08-09T13:39:52Z</time>
      </trkpt>
      <trkpt lat="45.08442" lon="2.64564">
        <ele>1500.76</ele>
        <time>2013-08-09T13:39:55Z</time>
      </trkpt>
      <trkpt lat="45.0844" lon="2.64578">
        <ele>1499.79</ele>
        <time>2013-08-09T13:40:03Z</time>
      </trkpt>
      <trkpt lat="45.08434" lon="2.64593">
        <ele>1496.91</ele>
        <time>2013-08-09T13:40:11Z</time>
      </trkpt>
      <trkpt lat="45.08425" lon="2.64607">
        <ele>1495.47</ele>
        <time>2013-08-09T13:40:24Z</time>
      </trkpt>
      <trkpt lat="45.08424" lon="2.64607">
        <ele>1495.47</ele>
        <time>2013-08-09T13:40:40Z</time>
      </trkpt>
      <trkpt lat="45.08422" lon="2.64613">
        <ele>1495.95</ele>
        <time>2013-08-09T13:40:52Z</time>
      </trkpt>
      <trkpt lat="45.08422" lon="2.64613">
        <ele>1495.47</ele>
        <time>2013-08-09T13:40:56Z</time>
      </trkpt>
      <trkpt lat="45.08416" lon="2.64623">
        <ele>1494.51</ele>
        <time>2013-08-09T13:41:03Z</time>
      </trkpt>
      <trkpt lat="45.08412" lon="2.64629">
        <ele>1493.55</ele>
        <time>2013-08-09T13:41:08Z</time>
      </trkpt>
      <trkpt lat="45.08403" lon="2.64634">
        <ele>1490.66</ele>
        <time>2013-08-09T13:41:16Z</time>
      </trkpt>
      <trkpt lat="45.08389" lon="2.64636">
        <ele>1486.82</ele>
        <time>2013-08-09T13:41:24Z</time>
      </trkpt>
      <trkpt lat="45.08387" lon="2.64635">
        <ele>1486.34</ele>
        <time>2013-08-09T13:41:25Z</time>
      </trkpt>
      <trkpt lat="45.08363" lon="2.64634">
        <ele>1481.05</ele>
        <time>2013-08-09T13:41:34Z</time>
      </trkpt>
      <trkpt lat="45.08354" lon="2.6464">
        <ele>1478.16</ele>
        <time>2013-08-09T13:41:37Z</time>
      </trkpt>
      <trkpt lat="45.0834" lon="2.64655">
        <ele>1474.8</ele>
        <time>2013-08-09T13:41:42Z</time>
      </trkpt>
      <trkpt lat="45.08324" lon="2.64661">
        <ele>1473.36</ele>
        <time>2013-08-09T13:41:50Z</time>
      </trkpt>
      <trkpt lat="45.08328" lon="2.64664">
        <ele>1472.4</ele>
        <time>2013-08-09T13:41:54Z</time>
      </trkpt>
      <trkpt lat="45.08336" lon="2.6467">
        <ele>1470.47</ele>
        <time>2013-08-09T13:41:58Z</time>
      </trkpt>
      <trkpt lat="45.08345" lon="2.64674">
        <ele>1468.07</ele>
        <time>2013-08-09T13:42:01Z</time>
      </trkpt>
      <trkpt lat="45.08352" lon="2.64674">
        <ele>1467.11</ele>
        <time>2013-08-09T13:42:03Z</time>
      </trkpt>
      <trkpt lat="45.0837" lon="2.64672">
        <ele>1463.74</ele>
        <time>2013-08-09T13:42:07Z</time>
      </trkpt>
      <trkpt lat="45.08389" lon="2.64683">
        <ele>1462.3</ele>
        <time>2013-08-09T13:42:14Z</time>
      </trkpt>
      <trkpt lat="45.0839" lon="2.64692">
        <ele>1460.86</ele>
        <time>2013-08-09T13:42:26Z</time>
      </trkpt>
      <trkpt lat="45.0839" lon="2.64692">
        <ele>1460.86</ele>
        <time>2013-08-09T13:42:37Z</time>
      </trkpt>
      <trkpt lat="45.08381" lon="2.64686">
        <ele>1459.42</ele>
        <time>2013-08-09T13:42:46Z</time>
      </trkpt>
      <trkpt lat="45.08364" lon="2.64671">
        <ele>1458.94</ele>
        <time>2013-08-09T13:43:02Z</time>
      </trkpt>
      <trkpt lat="45.08343" lon="2.64681">
        <ele>1457.02</ele>
        <time>2013-08-09T13:43:16Z</time>
      </trkpt>
      <trkpt lat="45.08335" lon="2.64685">
        <ele>1456.05</ele>
        <time>2013-08-09T13:43:28Z</time>
      </trkpt>
      <trkpt lat="45.08335" lon="2.64686">
        <ele>1456.05</ele>
        <time>2013-08-09T13:43:32Z</time>
      </trkpt>
      <trkpt lat="45.08331" lon="2.64688">
        <ele>1455.57</ele>
        <time>2013-08-09T13:43:36Z</time>
      </trkpt>
      <trkpt lat="45.08324" lon="2.64694">
        <ele>1455.57</ele>
        <time>2013-08-09T13:43:42Z</time>
      </trkpt>
      <trkpt lat="45.08319" lon="2.6471">
        <ele>1453.65</ele>
        <time>2013-08-09T13:43:49Z</time>
      </trkpt>
      <trkpt lat="45.08315" lon="2.64724">
        <ele>1452.69</ele>
        <time>2013-08-09T13:44:00Z</time>
      </trkpt>
      <trkpt lat="45.08312" lon="2.64728">
        <ele>1451.73</ele>
        <time>2013-08-09T13:44:14Z</time>
      </trkpt>
      <trkpt lat="45.08312" lon="2.64728">
        <ele>1451.73</ele>
        <time>2013-08-09T13:44:42Z</time>
      </trkpt>
      <trkpt lat="45.08307" lon="2.64733">
        <ele>1451.25</ele>
        <time>2013-08-09T13:45:15Z</time>
      </trkpt>
      <trkpt lat="45.083" lon="2.64752">
        <ele>1447.88</ele>
        <time>2013-08-09T13:45:21Z</time>
      </trkpt>
      <trkpt lat="45.08287" lon="2.64764">
        <ele>1444.52</ele>
        <time>2013-08-09T13:45:26Z</time>
      </trkpt>
      <trkpt lat="45.08285" lon="2.64765">
        <ele>1444.52</ele>
        <time>2013-08-09T13:45:27Z</time>
      </trkpt>
      <trkpt lat="45.08261" lon="2.64786">
        <ele>1439.23</ele>
        <time>2013-08-09T13:45:36Z</time>
      </trkpt>
      <trkpt lat="45.08252" lon="2.64795">
        <ele>1436.83</ele>
        <time>2013-08-09T13:45:39Z</time>
      </trkpt>
      <trkpt lat="45.08246" lon="2.648">
        <ele>1435.39</ele>
        <time>2013-08-09T13:45:41Z</time>
      </trkpt>
      <trkpt lat="45.08242" lon="2.64802">
        <ele>1435.39</ele>
        <time>2013-08-09T13:45:43Z</time>
      </trkpt>
      <trkpt lat="45.08236" lon="2.648">
        <ele>1433.46</ele>
        <time>2013-08-09T13:45:46Z</time>
      </trkpt>
      <trkpt lat="45.08214" lon="2.64802">
        <ele>1429.62</ele>
        <time>2013-08-09T13:45:51Z</time>
      </trkpt>
      <trkpt lat="45.08181" lon="2.64788">
        <ele>1425.77</ele>
        <time>2013-08-09T13:46:01Z</time>
      </trkpt>
      <trkpt lat="45.08168" lon="2.64773">
        <ele>1422.41</ele>
        <time>2013-08-09T13:46:07Z</time>
      </trkpt>
      <trkpt lat="45.08161" lon="2.6476">
        <ele>1419.52</ele>
        <time>2013-08-09T13:46:10Z</time>
      </trkpt>
      <trkpt lat="45.08158" lon="2.64753">
        <ele>1418.08</ele>
        <time>2013-08-09T13:46:12Z</time>
      </trkpt>
      <trkpt lat="45.08151" lon="2.64741">
        <ele>1414.72</ele>
        <time>2013-08-09T13:46:17Z</time>
      </trkpt>
      <trkpt lat="45.08145" lon="2.64732">
        <ele>1412.79</ele>
        <time>2013-08-09T13:46:20Z</time>
      </trkpt>
      <trkpt lat="45.08142" lon="2.64732">
        <ele>1411.35</ele>
        <time>2013-08-09T13:46:29Z</time>
      </trkpt>
      <trkpt lat="45.08144" lon="2.64734">
        <ele>1410.87</ele>
        <time>2013-08-09T13:46:50Z</time>
      </trkpt>
      <trkpt lat="45.08144" lon="2.64735">
        <ele>1409.91</ele>
        <time>2013-08-09T13:47:05Z</time>
      </trkpt>
      <trkpt lat="45.08143" lon="2.64737">
        <ele>1409.43</ele>
        <time>2013-08-09T13:47:32Z</time>
      </trkpt>
      <trkpt lat="45.08142" lon="2.6474">
        <ele>1407.99</ele>
        <time>2013-08-09T13:47:43Z</time>
      </trkpt>
      <trkpt lat="45.08142" lon="2.64745">
        <ele>1405.58</ele>
        <time>2013-08-09T13:47:47Z</time>
      </trkpt>
      <trkpt lat="45.08141" lon="2.6475">
        <ele>1404.14</ele>
        <time>2013-08-09T13:47:49Z</time>
      </trkpt>
      <trkpt lat="45.08137" lon="2.64758">
        <ele>1399.34</ele>
        <time>2013-08-09T13:47:53Z</time>
      </trkpt>
      <trkpt lat="45.08136" lon="2.6476">
        <ele>1398.37</ele>
        <time>2013-08-09T13:47:54Z</time>
      </trkpt>
      <trkpt lat="45.08132" lon="2.64764">
        <ele>1395.97</ele>
        <time>2013-08-09T13:47:56Z</time>
      </trkpt>
      <trkpt lat="45.08128" lon="2.6478">
        <ele>1392.13</ele>
        <time>2013-08-09T13:48:00Z</time>
      </trkpt>
      <trkpt lat="45.08127" lon="2.64787">
        <ele>1390.68</ele>
        <time>2013-08-09T13:48:03Z</time>
      </trkpt>
      <trkpt lat="45.08123" lon="2.64791">
        <ele>1388.76</ele>
        <time>2013-08-09T13:48:05Z</time>
      </trkpt>
      <trkpt lat="45.0812" lon="2.64796">
        <ele>1386.84</ele>
        <time>2013-08-09T13:48:07Z</time>
      </trkpt>
      <trkpt lat="45.08109" lon="2.64815">
        <ele>1382.99</ele>
        <time>2013-08-09T13:48:12Z</time>
      </trkpt>
      <trkpt lat="45.08108" lon="2.6482">
        <ele>1381.07</ele>
        <time>2013-08-09T13:48:14Z</time>
      </trkpt>
      <trkpt lat="45.08102" lon="2.6483">
        <ele>1377.71</ele>
        <time>2013-08-09T13:48:21Z</time>
      </trkpt>
      <trkpt lat="45.08097" lon="2.64841">
        <ele>1374.82</ele>
        <time>2013-08-09T13:48:31Z</time>
      </trkpt>
      <trkpt lat="45.08093" lon="2.64845">
        <ele>1372.42</ele>
        <time>2013-08-09T13:48:44Z</time>
      </trkpt>
      <trkpt lat="45.08091" lon="2.64849">
        <ele>1368.57</ele>
        <time>2013-08-09T13:48:51Z</time>
      </trkpt>
      <trkpt lat="45.0809" lon="2.64852">
        <ele>1365.69</ele>
        <time>2013-08-09T13:48:59Z</time>
      </trkpt>
      <trkpt lat="45.0809" lon="2.64853">
        <ele>1365.69</ele>
        <time>2013-08-09T13:49:00Z</time>
      </trkpt>
      <trkpt lat="45.08088" lon="2.6487">
        <ele>1361.84</ele>
        <time>2013-08-09T13:49:05Z</time>
      </trkpt>
      <trkpt lat="45.08083" lon="2.64873">
        <ele>1358.96</ele>
        <time>2013-08-09T13:49:10Z</time>
      </trkpt>
      <trkpt lat="45.08073" lon="2.64874">
        <ele>1355.6</ele>
        <time>2013-08-09T13:49:15Z</time>
      </trkpt>
      <trkpt lat="45.08059" lon="2.64873">
        <ele>1351.27</ele>
        <time>2013-08-09T13:49:22Z</time>
      </trkpt>
      <trkpt lat="45.08058" lon="2.64877">
        <ele>1347.91</ele>
        <time>2013-08-09T13:49:31Z</time>
      </trkpt>
      <trkpt lat="45.0806" lon="2.64885">
        <ele>1345.02</ele>
        <time>2013-08-09T13:49:40Z</time>
      </trkpt>
      <trkpt lat="45.08064" lon="2.649">
        <ele>1341.66</ele>
        <time>2013-08-09T13:49:51Z</time>
      </trkpt>
      <trkpt lat="45.0807" lon="2.64918">
        <ele>1338.29</ele>
        <time>2013-08-09T13:50:02Z</time>
      </trkpt>
      <trkpt lat="45.08074" lon="2.64945">
        <ele>1336.37</ele>
        <time>2013-08-09T13:50:15Z</time>
      </trkpt>
      <trkpt lat="45.08076" lon="2.64946">
        <ele>1335.41</ele>
        <time>2013-08-09T13:50:30Z</time>
      </trkpt>
      <trkpt lat="45.08076" lon="2.64948">
        <ele>1334.93</ele>
        <time>2013-08-09T13:50:55Z</time>
      </trkpt>
      <trkpt lat="45.08077" lon="2.64948">
        <ele>1334.93</ele>
        <time>2013-08-09T13:51:12Z</time>
      </trkpt>
      <trkpt lat="45.08078" lon="2.6495">
        <ele>1334.93</ele>
        <time>2013-08-09T13:51:46Z</time>
      </trkpt>
      <trkpt lat="45.08078" lon="2.64952">
        <ele>1334.93</ele>
        <time>2013-08-09T13:52:19Z</time>
      </trkpt>
      <trkpt lat="45.08078" lon="2.64952">
        <ele>1334.93</ele>
        <time>2013-08-09T13:52:52Z</time>
      </trkpt>
      <trkpt lat="45.08077" lon="2.64953">
        <ele>1334.93</ele>
        <time>2013-08-09T13:53:26Z</time>
      </trkpt>
      <trkpt lat="45.08077" lon="2.64953">
        <ele>1334.93</ele>
        <time>2013-08-09T13:53:59Z</time>
      </trkpt>
      <trkpt lat="45.08077" lon="2.64954">
        <ele>1334.93</ele>
        <time>2013-08-09T13:54:31Z</time>
      </trkpt>
      <trkpt lat="45.08077" lon="2.64953">
        <ele>1334.93</ele>
        <time>2013-08-09T13:55:10Z</time>
      </trkpt>
      <trkpt lat="45.08077" lon="2.64952">
        <ele>1334.93</ele>
        <time>2013-08-09T13:55:39Z</time>
      </trkpt>
      <trkpt lat="45.08078" lon="2.64952">
        <ele>1334.93</ele>
        <time>2013-08-09T13:56:14Z</time>
      </trkpt>
      <trkpt lat="45.08079" lon="2.64954">
        <ele>1335.41</ele>
        <time>2013-08-09T13:56:46Z</time>
      </trkpt>
      <trkpt lat="45.08079" lon="2.64953">
        <ele>1334.93</ele>
        <time>2013-08-09T13:57:17Z</time>
      </trkpt>
      <trkpt lat="45.08079" lon="2.64953">
        <ele>1334.93</ele>
        <time>2013-08-09T13:57:51Z</time>
      </trkpt>
      <trkpt lat="45.08079" lon="2.64953">
        <ele>1334.93</ele>
        <time>2013-08-09T13:58:22Z</time>
      </trkpt>
      <trkpt lat="45.08078" lon="2.64952">
        <ele>1334.93</ele>
        <time>2013-08-09T13:58:49Z</time>
      </trkpt>
      <trkpt lat="45.08078" lon="2.64952">
        <ele>1334.93</ele>
        <time>2013-08-09T13:59:14Z</time>
      </trkpt>
      <trkpt lat="45.08078" lon="2.64952">
        <ele>1334.93</ele>
        <time>2013-08-09T13:59:45Z</time>
      </trkpt>
      <trkpt lat="45.08077" lon="2.64953">
        <ele>1334.93</ele>
        <time>2013-08-09T14:00:08Z</time>
      </trkpt>
      <trkpt lat="45.08077" lon="2.64954">
        <ele>1334.93</ele>
        <time>2013-08-09T14:00:33Z</time>
      </trkpt>
      <trkpt lat="45.08077" lon="2.64956">
        <ele>1335.41</ele>
        <time>2013-08-09T14:01:03Z</time>
      </trkpt>
      <trkpt lat="45.08083" lon="2.64963">
        <ele>1332.04</ele>
        <time>2013-08-09T14:01:16Z</time>
      </trkpt>
      <trkpt lat="45.08088" lon="2.64971">
        <ele>1329.16</ele>
        <time>2013-08-09T14:01:32Z</time>
      </trkpt>
      <trkpt lat="45.08087" lon="2.64976">
        <ele>1327.72</ele>
        <time>2013-08-09T14:01:37Z</time>
      </trkpt>
      <trkpt lat="45.08088" lon="2.65">
        <ele>1324.35</ele>
        <time>2013-08-09T14:01:49Z</time>
      </trkpt>
      <trkpt lat="45.08091" lon="2.65019">
        <ele>1321.95</ele>
        <time>2013-08-09T14:02:02Z</time>
      </trkpt>
      <trkpt lat="45.08091" lon="2.65028">
        <ele>1320.03</ele>
        <time>2013-08-09T14:02:07Z</time>
      </trkpt>
      <trkpt lat="45.08091" lon="2.6503">
        <ele>1319.55</ele>
        <time>2013-08-09T14:02:08Z</time>
      </trkpt>
      <trkpt lat="45.08089" lon="2.65037">
        <ele>1317.62</ele>
        <time>2013-08-09T14:02:12Z</time>
      </trkpt>
      <trkpt lat="45.08086" lon="2.65056">
        <ele>1313.78</ele>
        <time>2013-08-09T14:02:23Z</time>
      </trkpt>
      <trkpt lat="45.08083" lon="2.65064">
        <ele>1311.86</ele>
        <time>2013-08-09T14:02:28Z</time>
      </trkpt>
      <trkpt lat="45.08082" lon="2.65066">
        <ele>1310.9</ele>
        <time>2013-08-09T14:02:30Z</time>
      </trkpt>
      <trkpt lat="45.0808" lon="2.65069">
        <ele>1309.93</ele>
        <time>2013-08-09T14:02:32Z</time>
      </trkpt>
      <trkpt lat="45.0808" lon="2.65071">
        <ele>1309.45</ele>
        <time>2013-08-09T14:02:33Z</time>
      </trkpt>
      <trkpt lat="45.08072" lon="2.65081">
        <ele>1306.57</ele>
        <time>2013-08-09T14:02:41Z</time>
      </trkpt>
      <trkpt lat="45.08067" lon="2.6508">
        <ele>1304.65</ele>
        <time>2013-08-09T14:02:45Z</time>
      </trkpt>
      <trkpt lat="45.08053" lon="2.65085">
        <ele>1300.8</ele>
        <time>2013-08-09T14:02:56Z</time>
      </trkpt>
      <trkpt lat="45.08049" lon="2.65087">
        <ele>1298.88</ele>
        <time>2013-08-09T14:02:59Z</time>
      </trkpt>
      <trkpt lat="45.08042" lon="2.65095">
        <ele>1295.51</ele>
        <time>2013-08-09T14:03:06Z</time>
      </trkpt>
      <trkpt lat="45.08038" lon="2.65104">
        <ele>1292.63</ele>
        <time>2013-08-09T14:03:11Z</time>
      </trkpt>
      <trkpt lat="45.08032" lon="2.65114">
        <ele>1289.75</ele>
        <time>2013-08-09T14:03:16Z</time>
      </trkpt>
      <trkpt lat="45.08024" lon="2.65129">
        <ele>1285.42</ele>
        <time>2013-08-09T14:03:22Z</time>
      </trkpt>
      <trkpt lat="45.08016" lon="2.6514">
        <ele>1282.54</ele>
        <time>2013-08-09T14:03:28Z</time>
      </trkpt>
      <trkpt lat="45.08014" lon="2.65143">
        <ele>1281.09</ele>
        <time>2013-08-09T14:03:29Z</time>
      </trkpt>
      <trkpt lat="45.08006" lon="2.65152">
        <ele>1278.69</ele>
        <time>2013-08-09T14:03:34Z</time>
      </trkpt>
      <trkpt lat="45.07993" lon="2.65167">
        <ele>1275.33</ele>
        <time>2013-08-09T14:03:46Z</time>
      </trkpt>
      <trkpt lat="45.07987" lon="2.65175">
        <ele>1272.44</ele>
        <time>2013-08-09T14:03:51Z</time>
      </trkpt>
      <trkpt lat="45.07978" lon="2.65194">
        <ele>1269.08</ele>
        <time>2013-08-09T14:04:02Z</time>
      </trkpt>
      <trkpt lat="45.07973" lon="2.65204">
        <ele>1267.64</ele>
        <time>2013-08-09T14:04:07Z</time>
      </trkpt>
      <trkpt lat="45.07965" lon="2.65222">
        <ele>1264.27</ele>
        <time>2013-08-09T14:04:18Z</time>
      </trkpt>
      <trkpt lat="45.07961" lon="2.65233">
        <ele>1263.79</ele>
        <time>2013-08-09T14:04:24Z</time>
      </trkpt>
      <trkpt lat="45.07952" lon="2.65256">
        <ele>1260.43</ele>
        <time>2013-08-09T14:04:37Z</time>
      </trkpt>
      <trkpt lat="45.07951" lon="2.65268">
        <ele>1258.02</ele>
        <time>2013-08-09T14:04:43Z</time>
      </trkpt>
      <trkpt lat="45.07951" lon="2.65272">
        <ele>1257.54</ele>
        <time>2013-08-09T14:04:45Z</time>
      </trkpt>
      <trkpt lat="45.0795" lon="2.65276">
        <ele>1256.58</ele>
        <time>2013-08-09T14:04:47Z</time>
      </trkpt>
      <trkpt lat="45.07946" lon="2.65289">
        <ele>1254.18</ele>
        <time>2013-08-09T14:04:55Z</time>
      </trkpt>
      <trkpt lat="45.07944" lon="2.65295">
        <ele>1252.25</ele>
        <time>2013-08-09T14:04:58Z</time>
      </trkpt>
      <trkpt lat="45.07941" lon="2.6531">
        <ele>1248.89</ele>
        <time>2013-08-09T14:05:05Z</time>
      </trkpt>
      <trkpt lat="45.07938" lon="2.65318">
        <ele>1248.41</ele>
        <time>2013-08-09T14:05:09Z</time>
      </trkpt>
      <trkpt lat="45.07939" lon="2.65327">
        <ele>1246.49</ele>
        <time>2013-08-09T14:05:14Z</time>
      </trkpt>
      <trkpt lat="45.0794" lon="2.65331">
        <ele>1245.53</ele>
        <time>2013-08-09T14:05:16Z</time>
      </trkpt>
      <trkpt lat="45.07939" lon="2.65342">
        <ele>1243.12</ele>
        <time>2013-08-09T14:05:21Z</time>
      </trkpt>
      <trkpt lat="45.07937" lon="2.65346">
        <ele>1242.64</ele>
        <time>2013-08-09T14:05:23Z</time>
      </trkpt>
      <trkpt lat="45.07937" lon="2.65354">
        <ele>1240.72</ele>
        <time>2013-08-09T14:05:27Z</time>
      </trkpt>
      <trkpt lat="45.07932" lon="2.6537">
        <ele>1238.8</ele>
        <time>2013-08-09T14:05:34Z</time>
      </trkpt>
      <trkpt lat="45.0793" lon="2.65375">
        <ele>1237.83</ele>
        <time>2013-08-09T14:05:37Z</time>
      </trkpt>
      <trkpt lat="45.07924" lon="2.65373">
        <ele>1236.39</ele>
        <time>2013-08-09T14:05:41Z</time>
      </trkpt>
      <trkpt lat="45.07915" lon="2.6537">
        <ele>1233.51</ele>
        <time>2013-08-09T14:05:47Z</time>
      </trkpt>
      <trkpt lat="45.07913" lon="2.6537">
        <ele>1233.03</ele>
        <time>2013-08-09T14:05:49Z</time>
      </trkpt>
      <trkpt lat="45.07906" lon="2.65364">
        <ele>1230.62</ele>
        <time>2013-08-09T14:05:55Z</time>
      </trkpt>
      <trkpt lat="45.07901" lon="2.65359">
        <ele>1229.66</ele>
        <time>2013-08-09T14:05:59Z</time>
      </trkpt>
      <trkpt lat="45.07895" lon="2.65352">
        <ele>1228.22</ele>
        <time>2013-08-09T14:06:05Z</time>
      </trkpt>
      <trkpt lat="45.07891" lon="2.65351">
        <ele>1226.78</ele>
        <time>2013-08-09T14:06:09Z</time>
      </trkpt>
      <trkpt lat="45.07886" lon="2.65347">
        <ele>1225.34</ele>
        <time>2013-08-09T14:06:14Z</time>
      </trkpt>
      <trkpt lat="45.07879" lon="2.65339">
        <ele>1223.42</ele>
        <time>2013-08-09T14:06:19Z</time>
      </trkpt>
      <trkpt lat="45.07876" lon="2.65332">
        <ele>1222.45</ele>
        <time>2013-08-09T14:06:23Z</time>
      </trkpt>
      <trkpt lat="45.07868" lon="2.65321">
        <ele>1220.05</ele>
        <time>2013-08-09T14:06:33Z</time>
      </trkpt>
      <trkpt lat="45.07866" lon="2.6532">
        <ele>1219.57</ele>
        <time>2013-08-09T14:06:36Z</time>
      </trkpt>
      <trkpt lat="45.07858" lon="2.65326">
        <ele>1216.69</ele>
        <time>2013-08-09T14:06:43Z</time>
      </trkpt>
      <trkpt lat="45.07857" lon="2.65327">
        <ele>1216.21</ele>
        <time>2013-08-09T14:06:44Z</time>
      </trkpt>
      <trkpt lat="45.07857" lon="2.65331">
        <ele>1215.24</ele>
        <time>2013-08-09T14:06:50Z</time>
      </trkpt>
      <trkpt lat="45.07857" lon="2.6534">
        <ele>1214.28</ele>
        <time>2013-08-09T14:06:55Z</time>
      </trkpt>
      <trkpt lat="45.07858" lon="2.65345">
        <ele>1212.36</ele>
        <time>2013-08-09T14:06:58Z</time>
      </trkpt>
      <trkpt lat="45.07858" lon="2.65358">
        <ele>1209.48</ele>
        <time>2013-08-09T14:07:04Z</time>
      </trkpt>
      <trkpt lat="45.07858" lon="2.65365">
        <ele>1208.51</ele>
        <time>2013-08-09T14:07:07Z</time>
      </trkpt>
      <trkpt lat="45.07865" lon="2.65384">
        <ele>1205.15</ele>
        <time>2013-08-09T14:07:17Z</time>
      </trkpt>
      <trkpt lat="45.07869" lon="2.65393">
        <ele>1203.23</ele>
        <time>2013-08-09T14:07:23Z</time>
      </trkpt>
      <trkpt lat="45.07876" lon="2.65403">
        <ele>1200.34</ele>
        <time>2013-08-09T14:07:34Z</time>
      </trkpt>
      <trkpt lat="45.07875" lon="2.65405">
        <ele>1199.86</ele>
        <time>2013-08-09T14:07:35Z</time>
      </trkpt>
      <trkpt lat="45.07872" lon="2.65408">
        <ele>1198.42</ele>
        <time>2013-08-09T14:07:38Z</time>
      </trkpt>
      <trkpt lat="45.0786" lon="2.65412">
        <ele>1194.58</ele>
        <time>2013-08-09T14:07:47Z</time>
      </trkpt>
      <trkpt lat="45.07844" lon="2.65416">
        <ele>1191.69</ele>
        <time>2013-08-09T14:07:58Z</time>
      </trkpt>
      <trkpt lat="45.07824" lon="2.65406">
        <ele>1188.81</ele>
        <time>2013-08-09T14:08:13Z</time>
      </trkpt>
      <trkpt lat="45.07815" lon="2.65399">
        <ele>1187.85</ele>
        <time>2013-08-09T14:08:24Z</time>
      </trkpt>
      <trkpt lat="45.07796" lon="2.65405">
        <ele>1185.92</ele>
        <time>2013-08-09T14:08:38Z</time>
      </trkpt>
      <trkpt lat="45.07775" lon="2.65409">
        <ele>1184.96</ele>
        <time>2013-08-09T14:08:55Z</time>
      </trkpt>
      <trkpt lat="45.0777" lon="2.65412">
        <ele>1184</ele>
        <time>2013-08-09T14:09:07Z</time>
      </trkpt>
      <trkpt lat="45.0777" lon="2.65412">
        <ele>1184</ele>
        <time>2013-08-09T14:09:22Z</time>
      </trkpt>
      <trkpt lat="45.07763" lon="2.65412">
        <ele>1183.04</ele>
        <time>2013-08-09T14:09:28Z</time>
      </trkpt>
      <trkpt lat="45.07747" lon="2.65417">
        <ele>1180.64</ele>
        <time>2013-08-09T14:09:40Z</time>
      </trkpt>
      <trkpt lat="45.07733" lon="2.65417">
        <ele>1177.27</ele>
        <time>2013-08-09T14:09:52Z</time>
      </trkpt>
      <trkpt lat="45.0773" lon="2.65417">
        <ele>1176.79</ele>
        <time>2013-08-09T14:09:55Z</time>
      </trkpt>
      <trkpt lat="45.0772" lon="2.6542">
        <ele>1174.39</ele>
        <time>2013-08-09T14:10:04Z</time>
      </trkpt>
      <trkpt lat="45.07705" lon="2.65427">
        <ele>1171.02</ele>
        <time>2013-08-09T14:10:16Z</time>
      </trkpt>
      <trkpt lat="45.07698" lon="2.65428">
        <ele>1170.06</ele>
        <time>2013-08-09T14:10:21Z</time>
      </trkpt>
      <trkpt lat="45.0769" lon="2.65429">
        <ele>1169.1</ele>
        <time>2013-08-09T14:10:27Z</time>
      </trkpt>
      <trkpt lat="45.07679" lon="2.65432">
        <ele>1166.7</ele>
        <time>2013-08-09T14:10:40Z</time>
      </trkpt>
      <trkpt lat="45.07679" lon="2.65432">
        <ele>1166.7</ele>
        <time>2013-08-09T14:10:55Z</time>
      </trkpt>
      <trkpt lat="45.07667" lon="2.65433">
        <ele>1165.26</ele>
        <time>2013-08-09T14:11:05Z</time>
      </trkpt>
      <trkpt lat="45.0765" lon="2.65437">
        <ele>1164.29</ele>
        <time>2013-08-09T14:11:19Z</time>
      </trkpt>
      <trkpt lat="45.07633" lon="2.65434">
        <ele>1161.41</ele>
        <time>2013-08-09T14:11:32Z</time>
      </trkpt>
      <trkpt lat="45.0762" lon="2.65429">
        <ele>1158.05</ele>
        <time>2013-08-09T14:11:42Z</time>
      </trkpt>
      <trkpt lat="45.07614" lon="2.65424">
        <ele>1156.6</ele>
        <time>2013-08-09T14:11:47Z</time>
      </trkpt>
      <trkpt lat="45.07611" lon="2.65423">
        <ele>1155.64</ele>
        <time>2013-08-09T14:11:49Z</time>
      </trkpt>
      <trkpt lat="45.07609" lon="2.65422">
        <ele>1155.16</ele>
        <time>2013-08-09T14:11:51Z</time>
      </trkpt>
      <trkpt lat="45.07602" lon="2.65423">
        <ele>1153.24</ele>
        <time>2013-08-09T14:11:57Z</time>
      </trkpt>
      <trkpt lat="45.07591" lon="2.65422">
        <ele>1150.84</ele>
        <time>2013-08-09T14:12:06Z</time>
      </trkpt>
      <trkpt lat="45.07586" lon="2.65425">
        <ele>1149.87</ele>
        <time>2013-08-09T14:12:10Z</time>
      </trkpt>
      <trkpt lat="45.07582" lon="2.65428">
        <ele>1148.43</ele>
        <time>2013-08-09T14:12:13Z</time>
      </trkpt>
      <trkpt lat="45.0758" lon="2.65427">
        <ele>1147.47</ele>
        <time>2013-08-09T14:12:17Z</time>
      </trkpt>
      <trkpt lat="45.07574" lon="2.65428">
        <ele>1146.51</ele>
        <time>2013-08-09T14:12:20Z</time>
      </trkpt>
      <trkpt lat="45.0756" lon="2.65429">
        <ele>1143.14</ele>
        <time>2013-08-09T14:12:32Z</time>
      </trkpt>
      <trkpt lat="45.07558" lon="2.65429">
        <ele>1142.18</ele>
        <time>2013-08-09T14:12:36Z</time>
      </trkpt>
      <trkpt lat="45.07549" lon="2.65426">
        <ele>1138.82</ele>
        <time>2013-08-09T14:12:42Z</time>
      </trkpt>
      <trkpt lat="45.07542" lon="2.65419">
        <ele>1136.42</ele>
        <time>2013-08-09T14:12:48Z</time>
      </trkpt>
      <trkpt lat="45.07532" lon="2.65413">
        <ele>1134.49</ele>
        <time>2013-08-09T14:12:59Z</time>
      </trkpt>
      <trkpt lat="45.07528" lon="2.65409">
        <ele>1132.57</ele>
        <time>2013-08-09T14:13:04Z</time>
      </trkpt>
      <trkpt lat="45.07521" lon="2.65405">
        <ele>1130.65</ele>
        <time>2013-08-09T14:13:09Z</time>
      </trkpt>
      <trkpt lat="45.0752" lon="2.65404">
        <ele>1130.17</ele>
        <time>2013-08-09T14:13:10Z</time>
      </trkpt>
      <trkpt lat="45.07515" lon="2.65394">
        <ele>1128.24</ele>
        <time>2013-08-09T14:13:22Z</time>
      </trkpt>
      <trkpt lat="45.07515" lon="2.65394">
        <ele>1128.24</ele>
        <time>2013-08-09T14:13:28Z</time>
      </trkpt>
      <trkpt lat="45.07499" lon="2.65381">
        <ele>1125.36</ele>
        <time>2013-08-09T14:13:42Z</time>
      </trkpt>
      <trkpt lat="45.07488" lon="2.65376">
        <ele>1123.92</ele>
        <time>2013-08-09T14:13:52Z</time>
      </trkpt>
      <trkpt lat="45.07475" lon="2.6537">
        <ele>1122.48</ele>
        <time>2013-08-09T14:14:02Z</time>
      </trkpt>
      <trkpt lat="45.07455" lon="2.65359">
        <ele>1120.55</ele>
        <time>2013-08-09T14:14:19Z</time>
      </trkpt>
      <trkpt lat="45.07435" lon="2.65349">
        <ele>1119.59</ele>
        <time>2013-08-09T14:14:35Z</time>
      </trkpt>
      <trkpt lat="45.0742" lon="2.65331">
        <ele>1119.11</ele>
        <time>2013-08-09T14:14:50Z</time>
      </trkpt>
      <trkpt lat="45.07412" lon="2.65312">
        <ele>1118.15</ele>
        <time>2013-08-09T14:15:04Z</time>
      </trkpt>
      <trkpt lat="45.07404" lon="2.65298">
        <ele>1115.75</ele>
        <time>2013-08-09T14:15:17Z</time>
      </trkpt>
      <trkpt lat="45.07402" lon="2.65296">
        <ele>1115.27</ele>
        <time>2013-08-09T14:15:20Z</time>
      </trkpt>
      <trkpt lat="45.07397" lon="2.6529">
        <ele>1114.31</ele>
        <time>2013-08-09T14:15:24Z</time>
      </trkpt>
      <trkpt lat="45.07386" lon="2.65279">
        <ele>1111.42</ele>
        <time>2013-08-09T14:15:36Z</time>
      </trkpt>
      <trkpt lat="45.07372" lon="2.65271">
        <ele>1108.06</ele>
        <time>2013-08-09T14:15:46Z</time>
      </trkpt>
      <trkpt lat="45.0736" lon="2.6526">
        <ele>1105.17</ele>
        <time>2013-08-09T14:15:55Z</time>
      </trkpt>
      <trkpt lat="45.07344" lon="2.65242">
        <ele>1103.25</ele>
        <time>2013-08-09T14:16:09Z</time>
      </trkpt>
      <trkpt lat="45.07324" lon="2.65226">
        <ele>1102.77</ele>
        <time>2013-08-09T14:16:26Z</time>
      </trkpt>
      <trkpt lat="45.07307" lon="2.6523">
        <ele>1100.85</ele>
        <time>2013-08-09T14:16:40Z</time>
      </trkpt>
      <trkpt lat="45.07289" lon="2.65253">
        <ele>1097.96</ele>
        <time>2013-08-09T14:16:57Z</time>
      </trkpt>
      <trkpt lat="45.07271" lon="2.65275">
        <ele>1096.04</ele>
        <time>2013-08-09T14:17:14Z</time>
      </trkpt>
      <trkpt lat="45.07262" lon="2.65294">
        <ele>1094.12</ele>
        <time>2013-08-09T14:17:26Z</time>
      </trkpt>
      <trkpt lat="45.07258" lon="2.65306">
        <ele>1092.2</ele>
        <time>2013-08-09T14:17:32Z</time>
      </trkpt>
      <trkpt lat="45.0726" lon="2.65317">
        <ele>1090.27</ele>
        <time>2013-08-09T14:17:38Z</time>
      </trkpt>
      <trkpt lat="45.07259" lon="2.65322">
        <ele>1088.83</ele>
        <time>2013-08-09T14:17:41Z</time>
      </trkpt>
      <trkpt lat="45.07264" lon="2.65334">
        <ele>1085.95</ele>
        <time>2013-08-09T14:17:50Z</time>
      </trkpt>
      <trkpt lat="45.07268" lon="2.65343">
        <ele>1083.06</ele>
        <time>2013-08-09T14:17:56Z</time>
      </trkpt>
      <trkpt lat="45.07272" lon="2.65347">
        <ele>1082.1</ele>
        <time>2013-08-09T14:18:00Z</time>
      </trkpt>
      <trkpt lat="45.07279" lon="2.65354">
        <ele>1079.22</ele>
        <time>2013-08-09T14:18:07Z</time>
      </trkpt>
      <trkpt lat="45.07281" lon="2.65357">
        <ele>1078.26</ele>
        <time>2013-08-09T14:18:10Z</time>
      </trkpt>
      <trkpt lat="45.07285" lon="2.65362">
        <ele>1076.81</ele>
        <time>2013-08-09T14:18:15Z</time>
      </trkpt>
      <trkpt lat="45.0729" lon="2.65372">
        <ele>1074.41</ele>
        <time>2013-08-09T14:18:21Z</time>
      </trkpt>
      <trkpt lat="45.07295" lon="2.65391">
        <ele>1071.05</ele>
        <time>2013-08-09T14:18:32Z</time>
      </trkpt>
      <trkpt lat="45.07296" lon="2.65414">
        <ele>1067.68</ele>
        <time>2013-08-09T14:18:45Z</time>
      </trkpt>
      <trkpt lat="45.07296" lon="2.65417">
        <ele>1067.2</ele>
        <time>2013-08-09T14:18:47Z</time>
      </trkpt>
      <trkpt lat="45.07293" lon="2.65428">
        <ele>1065.28</ele>
        <time>2013-08-09T14:18:54Z</time>
      </trkpt>
      <trkpt lat="45.07289" lon="2.65448">
        <ele>1063.36</ele>
        <time>2013-08-09T14:19:09Z</time>
      </trkpt>
      <trkpt lat="45.07301" lon="2.6547">
        <ele>1062.87</ele>
        <time>2013-08-09T14:19:22Z</time>
      </trkpt>
      <trkpt lat="45.07304" lon="2.65473">
        <ele>1061.91</ele>
        <time>2013-08-09T14:19:24Z</time>
      </trkpt>
      <trkpt lat="45.07313" lon="2.6549">
        <ele>1059.99</ele>
        <time>2013-08-09T14:19:37Z</time>
      </trkpt>
      <trkpt lat="45.07314" lon="2.65495">
        <ele>1059.03</ele>
        <time>2013-08-09T14:19:42Z</time>
      </trkpt>
      <trkpt lat="45.07308" lon="2.65503">
        <ele>1055.67</ele>
        <time>2013-08-09T14:19:55Z</time>
      </trkpt>
      <trkpt lat="45.07304" lon="2.65512">
        <ele>1053.26</ele>
        <time>2013-08-09T14:20:05Z</time>
      </trkpt>
      <trkpt lat="45.07298" lon="2.6552">
        <ele>1049.42</ele>
        <time>2013-08-09T14:20:13Z</time>
      </trkpt>
      <trkpt lat="45.07294" lon="2.65528">
        <ele>1047.01</ele>
        <time>2013-08-09T14:20:22Z</time>
      </trkpt>
      <trkpt lat="45.07291" lon="2.65533">
        <ele>1045.57</ele>
        <time>2013-08-09T14:20:26Z</time>
      </trkpt>
      <trkpt lat="45.07288" lon="2.65534">
        <ele>1044.13</ele>
        <time>2013-08-09T14:20:28Z</time>
      </trkpt>
      <trkpt lat="45.07286" lon="2.65538">
        <ele>1042.69</ele>
        <time>2013-08-09T14:20:32Z</time>
      </trkpt>
      <trkpt lat="45.07279" lon="2.65551">
        <ele>1039.8</ele>
        <time>2013-08-09T14:20:38Z</time>
      </trkpt>
      <trkpt lat="45.07272" lon="2.6556">
        <ele>1036.92</ele>
        <time>2013-08-09T14:20:46Z</time>
      </trkpt>
      <trkpt lat="45.07265" lon="2.65566">
        <ele>1034.04</ele>
        <time>2013-08-09T14:20:53Z</time>
      </trkpt>
      <trkpt lat="45.07259" lon="2.65571">
        <ele>1032.59</ele>
        <time>2013-08-09T14:21:03Z</time>
      </trkpt>
      <trkpt lat="45.07255" lon="2.65572">
        <ele>1029.23</ele>
        <time>2013-08-09T14:21:10Z</time>
      </trkpt>
      <trkpt lat="45.07253" lon="2.65582">
        <ele>1026.83</ele>
        <time>2013-08-09T14:21:21Z</time>
      </trkpt>
      <trkpt lat="45.0726" lon="2.65592">
        <ele>1023.46</ele>
        <time>2013-08-09T14:21:31Z</time>
      </trkpt>
      <trkpt lat="45.07274" lon="2.65604">
        <ele>1019.62</ele>
        <time>2013-08-09T14:21:42Z</time>
      </trkpt>
      <trkpt lat="45.07284" lon="2.65615">
        <ele>1016.25</ele>
        <time>2013-08-09T14:21:54Z</time>
      </trkpt>
      <trkpt lat="45.073" lon="2.65626">
        <ele>1013.37</ele>
        <time>2013-08-09T14:22:09Z</time>
      </trkpt>
      <trkpt lat="45.07304" lon="2.65634">
        <ele>1012.41</ele>
        <time>2013-08-09T14:22:24Z</time>
      </trkpt>
      <trkpt lat="45.07303" lon="2.65641">
        <ele>1010.48</ele>
        <time>2013-08-09T14:22:39Z</time>
      </trkpt>
      <trkpt lat="45.07302" lon="2.65645">
        <ele>1008.56</ele>
        <time>2013-08-09T14:22:55Z</time>
      </trkpt>
      <trkpt lat="45.073" lon="2.65648">
        <ele>1007.6</ele>
        <time>2013-08-09T14:22:59Z</time>
      </trkpt>
      <trkpt lat="45.07289" lon="2.65657">
        <ele>1005.2</ele>
        <time>2013-08-09T14:23:07Z</time>
      </trkpt>
      <trkpt lat="45.07283" lon="2.65665">
        <ele>1003.75</ele>
        <time>2013-08-09T14:23:12Z</time>
      </trkpt>
      <trkpt lat="45.07273" lon="2.65677">
        <ele>1001.83</ele>
        <time>2013-08-09T14:23:25Z</time>
      </trkpt>
      <trkpt lat="45.07272" lon="2.65678">
        <ele>1001.83</ele>
        <time>2013-08-09T14:23:49Z</time>
      </trkpt>
      <trkpt lat="45.07271" lon="2.65676">
        <ele>1001.83</ele>
        <time>2013-08-09T14:24:09Z</time>
      </trkpt>
      <trkpt lat="45.07271" lon="2.65676">
        <ele>1001.35</ele>
        <time>2013-08-09T14:24:46Z</time>
      </trkpt>
      <trkpt lat="45.07272" lon="2.65675">
        <ele>1001.35</ele>
        <time>2013-08-09T14:25:16Z</time>
      </trkpt>
      <trkpt lat="45.07272" lon="2.65674">
        <ele>1001.35</ele>
        <time>2013-08-09T14:25:49Z</time>
      </trkpt>
      <trkpt lat="45.07271" lon="2.65673">
        <ele>1000.87</ele>
        <time>2013-08-09T14:26:22Z</time>
      </trkpt>
      <trkpt lat="45.0727" lon="2.65674">
        <ele>1000.87</ele>
        <time>2013-08-09T14:27:00Z</time>
      </trkpt>
      <trkpt lat="45.0727" lon="2.65673">
        <ele>1000.87</ele>
        <time>2013-08-09T14:27:38Z</time>
      </trkpt>
      <trkpt lat="45.07271" lon="2.65672">
        <ele>1000.39</ele>
        <time>2013-08-09T14:28:13Z</time>
      </trkpt>
      <trkpt lat="45.07271" lon="2.65671">
        <ele>1000.39</ele>
        <time>2013-08-09T14:28:52Z</time>
      </trkpt>
      <trkpt lat="45.07271" lon="2.65671">
        <ele>1000.39</ele>
        <time>2013-08-09T14:29:33Z</time>
      </trkpt>
      <trkpt lat="45.0727" lon="2.65671">
        <ele>999.91</ele>
        <time>2013-08-09T14:30:11Z</time>
      </trkpt>
      <trkpt lat="45.0727" lon="2.65673">
        <ele>999.91</ele>
        <time>2013-08-09T14:30:32Z</time>
      </trkpt>
      <trkpt lat="45.07271" lon="2.65674">
        <ele>999.91</ele>
        <time>2013-08-09T14:30:47Z</time>
      </trkpt>
      <trkpt lat="45.07272" lon="2.65676">
        <ele>999.91</ele>
        <time>2013-08-09T14:31:20Z</time>
      </trkpt>
      <trkpt lat="45.07272" lon="2.65676">
        <ele>999.91</ele>
        <time>2013-08-09T14:31:59Z</time>
      </trkpt>
      <trkpt lat="45.07271" lon="2.65676">
        <ele>999.43</ele>
        <time>2013-08-09T14:32:35Z</time>
      </trkpt>
      <trkpt lat="45.07271" lon="2.65676">
        <ele>999.43</ele>
        <time>2013-08-09T14:33:06Z</time>
      </trkpt>
      <trkpt lat="45.07271" lon="2.65676">
        <ele>999.43</ele>
        <time>2013-08-09T14:33:39Z</time>
      </trkpt>
      <trkpt lat="45.07271" lon="2.65675">
        <ele>999.43</ele>
        <time>2013-08-09T14:34:02Z</time>
      </trkpt>
      <trkpt lat="45.07272" lon="2.65676">
        <ele>998.95</ele>
        <time>2013-08-09T14:34:28Z</time>
      </trkpt>
      <trkpt lat="45.07272" lon="2.65676">
        <ele>998.95</ele>
        <time>2013-08-09T14:34:54Z</time>
      </trkpt>
      <trkpt lat="45.07271" lon="2.65677">
        <ele>998.47</ele>
        <time>2013-08-09T14:35:18Z</time>
      </trkpt>
      <trkpt lat="45.07271" lon="2.65678">
        <ele>998.47</ele>
        <time>2013-08-09T14:35:56Z</time>
      </trkpt>
      <trkpt lat="45.07272" lon="2.65678">
        <ele>998.47</ele>
        <time>2013-08-09T14:36:36Z</time>
      </trkpt>
      <trkpt lat="45.07272" lon="2.65677">
        <ele>997.99</ele>
        <time>2013-08-09T14:37:05Z</time>
      </trkpt>
      <trkpt lat="45.07272" lon="2.65678">
        <ele>997.99</ele>
        <time>2013-08-09T14:37:45Z</time>
      </trkpt>
      <trkpt lat="45.07272" lon="2.65678">
        <ele>997.51</ele>
        <time>2013-08-09T14:38:17Z</time>
      </trkpt>
      <trkpt lat="45.07272" lon="2.65678">
        <ele>997.99</ele>
        <time>2013-08-09T14:38:54Z</time>
      </trkpt>
      <trkpt lat="45.07272" lon="2.65679">
        <ele>997.99</ele>
        <time>2013-08-09T14:39:25Z</time>
      </trkpt>
      <trkpt lat="45.07272" lon="2.65678">
        <ele>997.99</ele>
        <time>2013-08-09T14:39:54Z</time>
      </trkpt>
      <trkpt lat="45.07272" lon="2.65678">
        <ele>997.99</ele>
        <time>2013-08-09T14:40:22Z</time>
      </trkpt>
      <trkpt lat="45.07273" lon="2.65678">
        <ele>997.51</ele>
        <time>2013-08-09T14:40:47Z</time>
      </trkpt>
      <trkpt lat="45.07274" lon="2.65678">
        <ele>997.02</ele>
        <time>2013-08-09T14:41:19Z</time>
      </trkpt>
      <trkpt lat="45.07279" lon="2.65681">
        <ele>997.02</ele>
        <time>2013-08-09T14:41:41Z</time>
      </trkpt>
      <trkpt lat="45.07278" lon="2.6568">
        <ele>997.02</ele>
        <time>2013-08-09T14:42:04Z</time>
      </trkpt>
      <trkpt lat="45.07276" lon="2.65679">
        <ele>996.54</ele>
        <time>2013-08-09T14:42:30Z</time>
      </trkpt>
      <trkpt lat="45.07276" lon="2.65678">
        <ele>996.54</ele>
        <time>2013-08-09T14:43:03Z</time>
      </trkpt>
      <trkpt lat="45.07275" lon="2.65677">
        <ele>996.54</ele>
        <time>2013-08-09T14:43:37Z</time>
      </trkpt>
      <trkpt lat="45.07274" lon="2.65676">
        <ele>996.54</ele>
        <time>2013-08-09T14:44:05Z</time>
      </trkpt>
      <trkpt lat="45.07273" lon="2.65676">
        <ele>996.54</ele>
        <time>2013-08-09T14:44:29Z</time>
      </trkpt>
      <trkpt lat="45.07274" lon="2.65676">
        <ele>996.54</ele>
        <time>2013-08-09T14:44:52Z</time>
      </trkpt>
      <trkpt lat="45.07273" lon="2.65676">
        <ele>996.06</ele>
        <time>2013-08-09T14:45:21Z</time>
      </trkpt>
      <trkpt lat="45.07272" lon="2.65678">
        <ele>996.06</ele>
        <time>2013-08-09T14:45:47Z</time>
      </trkpt>
      <trkpt lat="45.07272" lon="2.65678">
        <ele>996.06</ele>
        <time>2013-08-09T14:46:23Z</time>
      </trkpt>
      <trkpt lat="45.07272" lon="2.65679">
        <ele>996.06</ele>
        <time>2013-08-09T14:46:56Z</time>
      </trkpt>
      <trkpt lat="45.07272" lon="2.6568">
        <ele>996.54</ele>
        <time>2013-08-09T14:47:25Z</time>
      </trkpt>
    </trkseg>
  </trk>
</gpx>